GFSCGP_850_dewp_000.txt.gz
Dewpoint
10 10 11 9 8 6 5 4 5 2 -1 -1 -0 0 -1 -2 -2 -3 -2 0 1 -0 1 0 -1 -1 -2 -2 -2 -4 -3 -3 -2 -0 3 6 8 8 9 9 10 10 10 10
10 10 8 7 7 7 3 4 3 2 0 -1 0 0 -1 -2 -4 -4 -1 1 1 -0 -1 -1 -1 -2 -3 -3 -3 -4 -4 -2 -1 2 5 6 8 9 9 9 8 7 7 7
9 9 7 8 6 7 4 5 5 5 1 0 1 2 0 -3 -3 -2 -0 1 1 -0 -0 -0 -1 -1 -1 -2 -2 -2 -3 -3 -2 0 4 7 9 8 6 3 2 2 3 3
9 8 9 8 9 7 10 3 2 2 3 4 0 5 1 -3 -1 -1 0 2 2 1 1 0 -0 -1 -1 -1 -1 -2 -2 -2 -1 -0 -0 0 1 0 1 1 1 1 0 0
9 9 10 9 8 7 8 2 3 2 2 1 1 3 1 -3 0 0 -0 1 2 1 1 1 0 -0 -0 -0 -1 -1 -1 -1 -1 -1 -1 -1 -0 0 1 -0 -1 -3 -4 -4
6 6 8 9 7 5 3 2 1 1 1 5 2 2 2 -0 -1 -0 -1 0 2 1 1 1 1 0 0 0 0 0 -0 -0 -0 -1 -1 -2 -2 -3 -4 -5 -5 -5 -5 -5
5 8 4 5 4 1 2 3 8 6 6 6 1 2 2 -2 -3 -2 -0 -1 1 1 1 1 1 1 1 1 1 1 1 1 -0 -3 -4 -5 -4 -5 -5 -5 -5 -5 -5 -5
8 10 3 -1 6 6 4 3 5 7 7 5 1 3 0 -2 -1 -3 -1 -1 1 1 1 1 1 1 1 1 1 1 1 1 0 -1 -5 -6 -5 -5 -5 -5 -5 -5 -6 -7
8 8 -2 -3 -2 4 2 3 1 4 3 6 4 1 -1 -1 -0 -1 -1 -1 1 1 1 1 1 1 1 1 1 2 1 1 -1 -4 -7 -6 -5 -4 -4 -4 -4 -6 -10 -15
3 2 0 -3 -4 -5 -0 -1 3 3 7 7 4 2 3 -1 0 0 -0 -0 1 1 1 1 1 1 1 2 2 2 1 -0 -3 -6 -5 -4 -3 -3 -3 -5 -9 -16 -28 -40
-0 1 3 -2 -0 -0 -2 -0 0 2 3 5 5 3 -2 -2 -1 1 -0 -0 1 1 1 1 1 1 1 2 2 1 0 -2 -5 -5 -3 -2 -2 -4 -9 -15 -27 -41 -40 -37
2 2 3 2 0 -2 -3 -1 -0 4 3 1 2 2 -3 -3 -2 -0 -0 -0 0 1 1 1 1 1 2 2 1 0 -2 -4 -5 -2 -2 -2 -5 -9 -19 -34 -41 -38 -35 -34
3 4 7 6 4 2 1 -1 -2 -0 0 2 3 2 -4 -3 -1 -0 0 0 0 0 1 2 2 2 2 1 0 -1 -4 -5 -2 -2 -2 -4 -9 -21 -36 -38 -36 -34 -33 -32
2 4 4 6 4 3 4 1 -1 0 3 2 1 0 -2 -2 -1 -1 -1 -0 0 1 1 2 2 2 2 1 -1 -3 -4 -2 -1 -1 -4 -11 -21 -31 -35 -35 -33 -32 -31 -30
2 4 2 -0 2 3 2 3 1 1 1 3 2 0 -2 -3 -3 -3 -2 -1 -1 1 1 2 2 2 1 0 -3 -4 -2 -0 -0 -4 -11 -20 -27 -33 -33 -32 -31 -31 -30 -29
1 2 -1 -2 -2 -3 0 1 1 1 0 -1 1 1 -4 -1 -1 1 1 0 0 1 2 2 2 2 1 -2 -4 -1 -1 -1 -2 -8 -13 -24 -29 -30 -31 -30 -30 -29 -28 -27
-1 -1 -0 1 -1 -1 -2 -2 2 1 -1 0 2 -2 -2 1 1 0 -0 -0 0 0 1 1 1 1 -0 -3 -1 -1 -0 -2 -4 -5 -14 -24 -29 -30 -30 -29 -28 -28 -26 -25
-2 -2 -2 -1 0 -1 -3 -0 -4 -1 -1 -1 1 1 1 1 0 -1 -1 -1 -0 1 1 1 1 1 -2 -2 -1 -0 -2 -2 -5 -12 -20 -28 -30 -29 -28 -28 -27 -26 -24 -24
-2 -1 2 2 1 -0 2 -0 2 2 3 1 1 1 0 -0 -1 -0 0 -0 -0 0 0 0 1 -1 -2 -1 -1 -1 -2 -6 -14 -21 -28 -29 -28 -27 -27 -27 -25 -24 -23 -23
-1 -1 0 2 4 4 1 -0 -1 -0 4 1 1 1 1 0 1 0 -1 0 0 0 0 1 -0 -2 -2 -1 0 -1 -4 -9 -20 -27 -28 -27 -26 -26 -26 -24 -23 -22 -22 -23
1 1 2 4 4 3 -0 -0 -1 3 2 1 -0 -1 -0 0 -1 -1 -1 0 0 1 0 -0 -1 -1 -1 -0 -1 -2 -11 -20 -23 -27 -27 -27 -26 -25 -23 -22 -21 -21 -21 -22
0 2 3 3 4 5 -0 1 2 1 0 -1 -1 -1 -1 -1 -1 -1 -0 0 1 1 0 -0 -1 -1 -0 -1 -3 -14 -21 -24 -26 -27 -26 -26 -24 -22 -21 -21 -20 -21 -21 -22
2 1 2 2 3 1 0 0 -0 -1 -1 -0 -0 -1 -1 -1 -1 -1 -1 -1 1 1 1 -0 -1 -1 -2 -6 -12 -22 -25 -25 -26 -26 -25 -23 -21 -20 -20 -20 -20 -20 -21 -21
1 0 2 2 1 0 -0 -0 -0 -0 -0 -0 0 0 -0 -0 0 -0 -1 -1 -0 0 0 -1 -1 -2 -7 -13 -22 -24 -24 -25 -25 -24 -22 -21 -19 -19 -20 -20 -20 -20 -20 -16
1 1 2 2 1 1 0 0 0 0 1 0 0 0 0 -0 0 0 -1 -1 -0 -0 -0 -0 -2 -6 -10 -20 -22 -23 -24 -24 -23 -22 -21 -19 -19 -19 -19 -20 -20 -18 -15 -11
1 2 2 2 1 1 0 0 -0 0 0 0 -0 -1 -2 -1 -1 -0 -0 -0 -0 -1 -2 -2 -5 -6 -19 -21 -22 -23 -22 -22 -22 -21 -19 -19 -19 -19 -20 -20 -19 -16 -13 -11

GFSCGP_850_dewp_003.txt.gz
Dewpoint
7 10 11 9 8 6 4 5 5 5 1 0 1 0 -0 -1 -2 -2 -2 1 1 1 1 0 -1 -1 -2 -2 -3 -4 -4 -2 -0 0 3 5 7 8 9 9 9 8 7 5
8 10 8 7 7 6 5 5 5 3 1 0 2 2 0 -1 -2 -3 -1 1 1 1 0 -0 -1 -2 -3 -3 -4 -5 -5 -4 -2 0 5 7 8 8 7 6 4 2 1 1
7 8 7 8 9 9 6 6 5 6 3 1 1 2 0 -2 -3 -2 -0 1 0 0 0 0 -1 -1 -2 -3 -4 -4 -3 -3 -2 -0 3 6 6 3 1 -0 -0 -0 -0 -1
8 7 8 8 8 8 10 3 4 4 5 7 1 5 2 -1 -2 -0 1 2 1 1 1 -0 -1 -1 -2 -2 -2 -3 -3 -2 -2 -1 -1 -0 -1 -1 1 1 -1 -3 -5 -5
9 9 8 9 8 7 8 5 6 4 4 1 2 4 2 -2 -1 0 0 2 2 1 1 0 -0 -0 -1 -1 -1 -2 -2 -2 -1 -2 -2 -2 -2 -2 -3 -5 -5 -5 -4 -4
8 7 8 8 6 7 1 4 4 2 1 5 3 3 3 0 -2 -0 -0 1 2 2 1 1 1 1 0 0 0 -0 -1 -1 -2 -3 -4 -5 -5 -5 -5 -5 -4 -3 -3 -3
8 9 8 9 6 3 3 8 11 10 7 6 1 3 2 -1 -3 -1 -0 0 2 1 1 1 1 1 1 1 1 1 0 -0 -1 -2 -5 -6 -5 -5 -4 -3 -2 -2 -2 -4
9 11 6 7 8 7 7 8 8 9 7 5 1 4 1 -3 -2 -2 -1 0 2 2 1 1 1 1 1 2 2 1 1 0 -1 -4 -5 -5 -4 -3 -2 -1 -2 -4 -9 -20
7 8 2 3 2 5 6 8 2 4 3 6 5 3 0 -2 -1 -1 -1 -0 2 2 2 1 1 2 2 2 2 1 1 0 -2 -4 -5 -3 -2 -1 -1 -3 -6 -12 -25 -37
5 5 2 -3 -0 -3 4 1 7 3 7 8 5 3 4 -1 -1 -0 -1 1 2 2 2 2 1 2 2 2 1 1 1 -1 -3 -5 -3 -1 -1 -2 -4 -7 -14 -27 -41 -37
0 2 3 -2 0 1 2 6 2 2 4 6 5 3 -1 -2 -3 0 -1 0 1 1 1 2 2 2 2 2 1 1 -0 -3 -5 -4 -2 -2 -2 -4 -9 -18 -30 -36 -35 -33
-0 2 3 1 1 -1 -2 1 2 4 4 2 2 3 -3 -3 -2 -1 -1 -0 0 1 1 2 2 2 2 1 1 -0 -2 -5 -4 -3 -2 -2 -4 -7 -16 -26 -33 -34 -32 -30
2 4 6 5 3 2 1 -2 -1 -0 0 2 4 3 -4 -2 -0 -0 -0 -1 -0 1 1 2 2 2 1 1 0 -1 -3 -5 -3 -1 -2 -4 -7 -14 -21 -25 -30 -30 -30 -29
1 3 5 6 5 3 4 1 -1 0 3 2 1 0 -2 -3 -0 -1 -0 -0 -0 0 1 2 2 2 1 1 -0 -2 -5 -3 -1 -2 -3 -5 -8 -15 -19 -26 -29 -29 -28 -28
2 4 2 0 2 2 2 2 -0 1 1 2 1 1 -1 -3 -1 -2 -3 -2 -2 0 1 2 2 2 1 0 -1 -4 -4 -2 -2 -1 -4 -7 -11 -18 -25 -28 -28 -28 -28 -26
1 3 -1 -1 -0 1 3 2 1 -0 -0 0 0 1 -3 -2 -2 0 0 -0 -0 0 1 2 2 2 1 0 -2 -3 -2 -1 -0 -4 -8 -11 -16 -25 -28 -28 -28 -28 -26 -22
2 -0 1 3 -1 -2 0 -1 2 1 -0 -0 2 -0 -2 1 0 0 0 0 0 0 1 1 2 2 1 -0 -3 -3 -1 -0 -2 -6 -10 -15 -24 -27 -28 -28 -28 -25 -21 -19
2 2 0 0 -1 1 -1 -1 -1 1 -2 -3 -2 -2 -1 0 -0 -1 -1 -1 -1 -1 0 1 2 2 1 -2 -3 -2 -1 -0 -4 -8 -14 -23 -26 -27 -28 -28 -24 -20 -19 -18
-2 -0 2 2 1 -1 2 -0 0 0 1 1 1 1 0 -1 -1 -0 -0 -0 -0 -0 -0 0 1 1 -0 -2 -3 -1 -0 -3 -7 -13 -20 -25 -27 -28 -27 -24 -20 -18 -18 -18
-1 -1 1 3 3 1 -1 -1 -1 -0 3 1 0 1 -0 -1 1 -0 -1 -1 -1 -1 -0 0 1 1 -2 -3 -2 -0 -3 -6 -12 -19 -25 -26 -27 -26 -23 -20 -18 -18 -18 -18
1 1 2 4 3 2 -0 -1 -1 3 1 1 0 0 -0 -0 -1 -1 -2 -2 -2 -1 0 0 0 -1 -3 -2 -1 -2 -6 -10 -19 -24 -26 -26 -25 -23 -20 -18 -17 -17 -18 -19
1 2 2 3 3 2 -1 0 2 0 0 -0 -1 -1 -1 -2 -2 -2 -2 -2 -1 -0 0 -0 -1 -2 -2 -1 -2 -7 -12 -18 -22 -25 -25 -24 -23 -21 -19 -18 -17 -17 -19 -20
1 -1 1 1 2 0 0 0 -0 0 -1 -1 -1 -1 -2 -1 -1 -1 -2 -2 -1 -0 0 -0 -1 -2 -2 -2 -7 -12 -16 -22 -24 -25 -24 -23 -22 -19 -17 -17 -18 -19 -20 -21
1 0 2 2 1 -0 -0 -1 -1 -1 -1 -1 -1 -1 -1 -1 -1 -1 -1 -1 -1 -0 -0 -0 -1 -2 -2 -6 -11 -14 -22 -24 -24 -23 -22 -22 -19 -17 -17 -18 -20 -21 -21 -19
0 1 2 2 1 0 -0 -1 -1 -0 -1 -0 -0 -0 -0 -0 -0 -0 -0 -1 -1 -1 -0 -1 -1 -2 -6 -7 -17 -21 -23 -23 -22 -22 -23 -18 -16 -17 -18 -20 -21 -20 -18 -13
1 1 2 2 1 1 -0 -0 0 -0 -0 -0 -1 -1 -2 -3 -3 -2 -1 -1 -1 -1 -1 -1 -2 -5 -7 -18 -21 -22 -22 -22 -23 -23 -17 -16 -17 -19 -20 -22 -22 -20 -17 -11

GFSCGP_850_dewp_006.txt.gz
Dewpoint
4 7 9 8 9 6 4 6 7 4 2 3 4 4 1 1 -0 -1 -1 0 1 2 1 1 1 1 0 -1 -2 -1 1 2 3 6 7 8 8 9 8 8 6 4 1 -2
5 8 6 8 7 7 5 6 6 3 2 2 4 5 3 1 -1 -1 -1 0 1 2 2 1 -0 -1 -2 -3 -4 -4 -3 -1 2 5 7 8 8 7 6 2 -1 -1 -2 -3
6 6 6 9 8 8 6 6 5 5 4 3 3 5 3 -2 -3 -3 -2 1 1 2 2 2 -0 -1 -2 -3 -3 -3 -3 -3 -1 1 4 4 3 1 -0 -0 -2 -4 -5 -4
3 4 8 8 8 7 7 5 5 6 8 9 3 7 3 -0 -1 -1 0 1 1 2 2 2 2 -0 -2 -2 -2 -2 -2 -2 -2 -1 -1 -1 -1 -1 -3 -5 -5 -4 -3 -3
5 7 8 10 8 6 6 5 6 7 8 7 6 5 3 -1 -1 -1 1 1 2 2 2 3 1 -1 -1 -2 -2 -2 -2 -2 -2 -2 -3 -4 -4 -5 -5 -4 -3 -2 -2 -4
2 7 7 6 6 6 4 5 5 4 6 9 5 5 3 -1 -2 -2 1 1 2 3 3 3 0 -0 -1 -1 -1 -1 -1 -2 -3 -3 -4 -5 -5 -4 -3 -1 -1 -3 -5 -7
4 5 9 6 9 5 6 8 12 12 10 9 1 3 2 -1 -3 -2 0 1 2 3 3 3 1 1 0 0 0 -0 -1 -1 -2 -4 -5 -4 -3 -2 -1 -2 -3 -4 -6 -8
7 10 10 7 7 8 7 7 7 9 9 6 2 4 -0 -3 -2 -3 -1 1 2 3 3 3 3 1 1 1 1 0 -0 -2 -3 -4 -4 -3 -2 -1 -2 -2 -4 -6 -10 -19
7 8 7 7 5 5 8 9 3 4 4 5 3 3 0 -2 -1 -2 -2 1 2 3 3 3 3 2 2 1 1 1 -0 -2 -3 -4 -4 -2 -1 -1 -1 -4 -6 -10 -19 -30
4 9 6 5 6 4 7 5 8 5 7 7 4 3 2 -1 -1 -1 -1 1 2 3 3 3 3 2 2 2 1 1 -1 -2 -4 -4 -3 -1 -1 -2 -4 -7 -10 -17 -27 -32
4 5 5 5 7 8 7 9 7 4 3 5 4 3 -2 -1 -2 -1 -2 -0 2 3 3 3 3 2 2 2 1 0 -1 -3 -4 -4 -2 -1 -2 -4 -6 -10 -14 -20 -25 -29
4 2 8 5 1 2 4 5 5 7 5 3 3 2 -3 -3 -2 -2 -1 -0 2 2 3 2 3 2 2 1 1 -0 -1 -3 -4 -3 -1 -2 -4 -6 -9 -12 -14 -23 -28 -29
2 3 6 7 4 1 5 4 5 3 1 3 5 3 -3 -1 -0 -0 -1 0 1 2 3 2 3 2 2 1 1 -0 -2 -4 -4 -2 -2 -3 -5 -6 -8 -14 -22 -27 -28 -28
1 3 2 5 4 3 5 3 4 5 6 4 2 1 -1 -1 0 -0 -0 -0 1 2 2 2 3 1 1 1 0 -1 -3 -4 -3 -2 -2 -5 -7 -8 -13 -21 -27 -28 -28 -27
4 4 3 2 2 2 3 4 2 3 3 4 2 1 -0 -2 -0 -0 -0 -0 0 1 2 2 3 1 1 0 -0 -1 -4 -4 -2 -1 -3 -7 -7 -11 -18 -26 -27 -28 -27 -22
3 5 1 2 2 2 2 2 3 3 3 2 1 1 -2 -3 -2 -2 -1 -1 -0 1 2 2 2 1 0 -0 -0 -2 -4 -3 -2 -2 -5 -6 -10 -16 -25 -27 -28 -26 -21 -19
4 3 3 4 0 1 4 2 2 1 0 0 2 0 -2 -1 -2 -1 -0 0 1 1 1 2 2 1 1 1 -0 -3 -3 -2 -1 -3 -6 -9 -14 -23 -27 -28 -26 -21 -19 -17
4 3 2 4 0 6 1 -1 -0 1 -0 -1 -1 -1 -2 -1 -0 0 0 0 0 -0 0 1 2 2 2 1 -1 -3 -3 -1 -2 -5 -8 -12 -23 -26 -27 -26 -22 -19 -18 -17
2 6 7 4 7 1 -1 -0 -1 1 2 -1 -1 -2 -0 -0 -0 0 0 -0 -0 -0 -0 0 1 2 2 1 -2 -3 -2 -2 -4 -7 -11 -22 -26 -27 -25 -22 -20 -18 -17 -16
2 6 8 5 4 4 -0 -1 -2 -2 -1 -2 -2 -0 -0 -1 1 0 -0 -1 -1 -1 -1 -0 1 2 1 -1 -3 -3 -2 -3 -8 -10 -19 -25 -26 -25 -23 -21 -19 -17 -16 -16
4 3 8 5 7 1 -1 -1 -0 1 1 0 -0 -0 -0 -0 -0 0 -2 -3 -2 -2 -1 -0 1 1 -1 -2 -3 -2 -3 -6 -11 -16 -23 -25 -24 -23 -22 -19 -17 -17 -16 -16
5 3 3 5 8 8 -0 -0 1 1 1 0 0 0 -0 -1 -2 -2 -3 -3 -3 -2 -1 -1 -0 -1 -2 -3 -2 -3 -6 -11 -15 -22 -24 -24 -23 -23 -18 -17 -17 -18 -16 -16
2 1 2 1 2 1 0 1 -0 1 0 -0 -0 -1 -2 -2 -2 -2 -2 -3 -3 -3 -2 -1 -1 -1 -2 -2 -2 -5 -10 -15 -20 -23 -23 -23 -23 -18 -16 -17 -18 -17 -16 -16
0 0 1 1 1 0 0 -0 -0 -0 -1 -1 -2 -2 -2 -2 -2 -2 -2 -2 -3 -3 -2 -1 -0 -1 -2 -2 -4 -9 -12 -20 -22 -22 -23 -23 -17 -16 -17 -17 -16 -18 -16 -15
1 1 1 2 1 -0 -0 -0 -1 -1 -1 -2 -1 -2 -1 -1 -1 -1 -1 -1 -1 -2 -1 -1 -1 -2 -3 -4 -10 -12 -19 -22 -22 -23 -23 -17 -16 -16 -17 -17 -17 -15 -14 -14
0 1 2 2 0 0 -0 -0 -1 -1 -1 -1 -1 -1 -2 -3 -4 -4 -3 -2 -1 -1 -1 -1 -1 -2 -4 -9 -11 -19 -21 -22 -23 -23 -17 -16 -16 -17 -18 -17 -16 -14 -12 -11

GFSCGP_850_dewp_009.txt.gz
Dewpoint
3 6 7 6 6 7 6 8 6 5 2 4 5 4 1 0 0 0 -2 -1 1 1 2 3 4 4 4 7 8 9 9 10 11 11 10 8 7 7 7 6 2 -2 -2 -5
4 7 3 2 5 7 7 7 6 4 3 3 3 3 2 1 1 1 -2 -2 0 2 2 3 3 3 3 4 4 6 8 10 9 8 8 7 6 5 1 -1 -2 -4 -5 -4
5 5 2 2 5 9 8 9 6 6 4 3 3 5 4 3 1 -1 -1 -1 1 1 1 2 3 3 3 -1 -2 -2 -1 1 3 4 4 3 1 2 -0 -4 -5 -4 -3 -2
3 2 5 3 6 8 9 7 4 5 6 7 4 6 1 1 -1 -2 -2 -1 1 1 1 2 2 3 2 -2 -2 -2 -2 -2 0 3 3 3 1 -3 -5 -4 -3 -2 -2 -4
4 4 6 5 7 7 9 6 5 6 7 9 8 7 3 1 0 -0 -2 0 1 1 2 2 3 3 1 -1 -1 -2 -2 -2 -2 -2 -3 -4 -4 -4 -3 -1 -2 -4 -4 -4
2 3 5 4 6 8 7 7 7 7 7 9 6 6 3 2 0 -1 -1 0 1 2 2 3 3 3 0 -1 -1 -2 -2 -3 -3 -4 -4 -4 -3 -2 -1 -2 -2 -3 -5 -6
5 5 5 6 8 8 8 9 12 10 10 7 3 5 3 -2 -3 -3 -1 0 1 2 2 3 3 3 2 0 -1 -2 -2 -2 -3 -4 -3 -3 -2 -1 -1 -1 -1 -3 -5 -6
8 8 6 4 9 9 9 9 7 9 8 6 2 5 2 -2 -3 -3 -1 0 1 2 2 3 3 4 4 1 -0 -1 -2 -3 -3 -3 -3 -3 -2 -1 -1 -1 -2 -4 -5 -8
6 8 5 6 7 7 9 10 3 5 3 5 4 2 -1 -2 -1 -3 -1 0 1 2 2 3 3 4 4 2 1 -0 -1 -2 -3 -3 -3 -2 -2 -1 -1 -2 -4 -5 -8 -11
6 8 6 8 7 7 8 4 7 4 7 6 4 3 2 -0 -1 -1 -2 0 2 2 3 3 3 4 3 2 1 0 -1 -2 -3 -4 -3 -2 -1 -2 -3 -3 -4 -7 -10 -13
6 6 7 7 9 9 10 8 7 4 4 5 5 3 -1 -2 -2 -1 -2 -0 2 2 2 3 3 3 3 1 1 1 -0 -2 -3 -4 -3 -2 -2 -2 -3 -4 -6 -9 -15 -20
6 7 8 7 2 5 7 7 5 6 6 3 3 2 -3 -3 -2 -2 -2 -1 1 2 2 2 3 3 2 1 1 1 -0 -2 -4 -4 -3 -2 -2 -3 -4 -6 -9 -15 -20 -25
4 6 10 9 5 6 8 5 6 5 3 4 4 3 -3 -2 -1 -1 -2 -1 2 2 2 2 3 3 1 1 0 -0 -2 -3 -4 -4 -3 -3 -3 -4 -6 -8 -13 -19 -25 -27
3 4 5 6 5 6 8 7 5 4 5 4 3 1 -2 -1 -0 -1 -1 -0 1 2 2 2 3 2 1 -0 -1 -2 -3 -3 -4 -4 -3 -2 -4 -5 -7 -12 -18 -24 -27 -29
4 5 2 1 1 3 4 6 6 6 5 5 2 2 -1 -2 -1 -1 -1 0 1 2 2 2 3 2 1 -1 -2 -4 -4 -4 -4 -3 -2 -3 -4 -6 -11 -17 -24 -28 -29 -24
3 6 2 3 2 2 3 3 4 4 4 4 2 2 -1 -2 -3 -2 -1 -0 0 1 2 2 3 2 1 -1 -3 -4 -3 -4 -4 -3 -2 -3 -6 -10 -17 -24 -27 -28 -24 -20
5 6 4 4 2 3 5 2 2 3 2 2 4 2 -0 -2 -2 -2 -1 -1 -0 0 1 2 3 2 1 -1 -3 -4 -4 -4 -3 -2 -3 -6 -8 -14 -22 -26 -27 -23 -19 -17
5 5 4 6 2 7 1 -1 0 1 1 1 1 0 -1 -1 -2 -1 -1 -0 0 1 2 2 3 2 0 -2 -3 -5 -4 -4 -2 -3 -6 -8 -13 -19 -25 -26 -23 -20 -17 -15
4 6 7 7 8 5 3 -1 0 2 2 -0 -0 -1 -2 -1 0 0 0 0 0 1 1 2 3 1 -1 -1 -2 -3 -4 -3 -3 -6 -9 -13 -17 -23 -25 -24 -22 -20 -16 -15
5 5 8 7 5 7 0 -1 -3 -1 3 -2 -0 -1 -1 0 2 1 1 1 -0 -1 -0 0 1 0 0 -2 -2 -4 -5 -3 -4 -7 -11 -15 -21 -24 -23 -23 -20 -16 -15 -16
8 8 9 9 9 5 -1 -2 -2 1 3 -1 -2 -1 -0 0 1 1 -0 -1 -2 -3 -3 -1 0 -0 -2 -2 -3 -7 -4 -3 -7 -9 -12 -19 -24 -23 -23 -20 -16 -15 -16 -16
7 7 8 8 9 9 -1 -0 1 2 0 -1 -0 -0 -0 1 0 -0 -1 -3 -3 -4 -2 -1 -1 -2 -2 -2 -4 -4 -3 -5 -8 -9 -17 -23 -23 -24 -20 -16 -15 -17 -15 -15
7 3 3 3 5 1 -0 1 1 1 1 0 0 0 0 -0 -0 -2 -3 -3 -3 -3 -3 -2 -2 -2 -3 -3 -3 -3 -3 -6 -7 -17 -22 -22 -25 -20 -16 -15 -16 -15 -15 -16
-1 -1 1 0 1 0 0 0 0 1 0 0 -0 -0 -1 -0 -0 -0 -2 -2 -3 -3 -3 -2 -2 -3 -3 -2 -2 -2 -5 -6 -16 -22 -22 -24 -21 -16 -14 -15 -15 -15 -15 -15
0 -0 1 1 1 0 0 0 0 0 0 -1 -1 -1 -1 -1 -0 -1 -1 -1 -1 -2 -2 -2 -2 -3 -4 -2 -2 -4 -6 -16 -22 -22 -25 -21 -16 -14 -14 -15 -15 -15 -14 -13
0 0 2 2 -0 -0 0 -0 0 -0 -1 -2 -2 -2 -2 -2 -3 -3 -2 -2 -2 -2 -1 -1 -2 -2 -2 -2 -4 -6 -17 -21 -23 -24 -21 -16 -14 -14 -14 -15 -15 -15 -13 -13

GFSCGP_850_dewp_012.txt.gz
Dewpoint
2 5 6 6 5 5 6 6 8 5 5 5 5 4 4 2 2 1 0 -2 0 2 3 3 4 6 8 9 9 9 9 10 11 11 12 12 10 8 7 5 -1 -3 -5 -4
4 5 3 2 3 5 5 8 9 6 5 5 4 5 3 2 1 1 0 -1 1 2 3 3 3 5 7 9 10 10 11 11 11 11 9 7 7 5 0 -2 -5 -4 -3 -2
4 3 2 2 3 5 5 7 9 9 6 6 4 5 3 1 0 1 1 -0 1 2 2 3 3 3 5 5 5 8 8 8 8 7 6 5 1 -1 -3 -4 -4 -2 -2 -3
3 1 1 3 3 3 5 4 7 9 10 10 4 8 4 2 3 2 -0 -1 1 1 2 3 3 3 2 1 1 2 3 3 4 3 2 0 -2 -4 -4 -2 -2 -2 -3 -3
4 3 2 3 5 2 5 5 6 8 10 10 8 7 5 2 4 1 -2 -1 1 1 2 2 3 3 2 1 1 0 0 1 3 3 1 -3 -4 -3 -2 -2 -2 -3 -3 -2
3 1 2 2 2 3 3 5 8 9 10 12 10 7 6 3 2 -0 -2 0 1 1 2 3 4 3 2 1 -0 -1 -2 -2 -2 -3 -4 -4 -3 -2 -2 -2 -2 -2 -2 -3
5 4 2 3 6 3 5 8 11 12 12 12 5 8 5 -2 -2 -1 -1 1 1 1 2 3 4 3 2 0 -1 -2 -3 -3 -3 -4 -3 -2 -2 -2 -1 -1 -1 -2 -2 -3
5 5 5 3 5 6 7 8 10 12 12 7 3 7 4 -2 -3 -2 -1 1 2 2 3 3 4 3 1 0 -1 -2 -2 -3 -3 -3 -3 -2 -2 -2 -1 -1 -2 -2 -2 -3
7 6 4 4 2 6 7 8 7 10 3 6 5 2 -1 -1 -2 -1 0 1 2 2 3 3 3 3 2 1 -0 -1 -2 -3 -3 -3 -3 -2 -2 -1 -1 -2 -2 -2 -3 -5
5 7 6 6 6 7 8 7 10 9 7 9 6 5 3 1 0 -2 1 1 2 2 3 3 4 4 3 2 1 -0 -2 -3 -3 -3 -3 -2 -2 -2 -2 -2 -2 -3 -5 -9
4 5 7 5 9 8 9 10 9 8 7 7 7 4 0 -0 -0 -1 -1 1 2 2 3 3 4 4 3 2 1 0 -1 -2 -3 -3 -3 -3 -2 -2 -2 -2 -3 -4 -8 -13
4 6 8 7 5 7 8 9 7 7 8 6 5 3 -2 -2 -2 -1 -2 1 2 2 3 3 4 4 3 2 1 0 -0 -1 -2 -3 -3 -3 -3 -2 -3 -3 -4 -7 -11 -17
4 6 9 8 8 9 10 9 6 6 5 7 5 3 -2 -1 -1 -1 -1 1 2 3 3 3 3 3 3 2 1 0 -0 -1 -2 -4 -4 -3 -3 -2 -3 -4 -6 -10 -15 -21
7 7 7 10 8 8 9 8 6 7 7 5 4 1 -0 1 1 -1 -1 0 2 3 2 3 3 3 2 1 1 -0 -1 -2 -3 -4 -4 -4 -3 -3 -4 -5 -8 -14 -21 -27
5 9 8 6 7 7 7 7 7 7 6 5 3 1 -1 -0 0 -0 -1 1 2 3 2 2 3 3 2 1 -0 -1 -2 -3 -3 -5 -4 -3 -2 -3 -4 -7 -13 -21 -27 -26
2 7 6 4 3 5 7 6 6 5 4 4 4 4 -1 -3 -1 -1 -0 1 2 2 2 2 3 3 1 0 -1 -2 -3 -4 -4 -5 -4 -2 -3 -4 -6 -11 -19 -25 -25 -24
4 6 6 5 3 3 5 4 5 5 4 5 6 3 -1 -2 -1 -1 -1 0 1 2 2 2 3 3 1 -0 -1 -3 -4 -4 -5 -5 -3 -3 -3 -6 -9 -18 -24 -24 -24 -21
5 6 6 5 3 7 2 -1 0 2 2 2 1 1 -0 -1 -1 -0 -1 -0 0 1 2 2 3 3 1 -0 -2 -3 -4 -5 -5 -3 -3 -4 -6 -9 -16 -23 -24 -25 -21 -16
3 6 8 7 7 5 4 -1 0 2 2 0 1 1 -0 0 0 1 0 0 1 1 2 2 2 2 1 -0 -2 -3 -5 -5 -4 -3 -4 -7 -11 -16 -21 -24 -25 -22 -15 -15
6 6 9 7 7 8 1 -1 -2 -1 4 -0 -0 -0 1 0 3 2 1 1 1 1 3 3 2 1 0 -1 -2 -3 -4 -4 -3 -4 -7 -8 -14 -21 -24 -26 -22 -15 -15 -17
8 8 9 8 8 6 -0 -2 -2 3 3 -0 -1 0 1 2 1 1 1 0 -0 0 1 1 0 -0 -1 -1 -2 -5 -5 -4 -4 -7 -8 -12 -21 -24 -26 -22 -15 -14 -16 -18
7 9 9 8 9 9 -1 -0 2 2 -0 -1 0 1 1 1 1 0 -0 -1 -2 -3 -1 -1 -1 -2 -2 -3 -4 -5 -4 -4 -6 -7 -11 -20 -24 -26 -21 -15 -14 -15 -17 -18
7 6 7 7 6 1 -0 1 0 1 -0 0 1 1 0 0 -0 -1 -2 -3 -3 -3 -3 -2 -2 -2 -3 -4 -4 -3 -3 -5 -7 -11 -20 -24 -26 -19 -14 -14 -14 -16 -17 -17
3 2 2 2 1 1 0 0 1 1 1 0 0 -0 -1 -1 -1 -2 -3 -3 -4 -4 -3 -4 -3 -3 -3 -3 -3 -3 -4 -6 -10 -20 -25 -25 -19 -14 -14 -14 -16 -17 -16 -15
0 0 1 2 1 0 0 0 1 1 0 -0 -0 -1 -1 -2 -1 -2 -2 -2 -3 -3 -3 -3 -3 -3 -3 -3 -3 -4 -6 -9 -19 -24 -24 -20 -15 -13 -13 -15 -16 -16 -16 -14
0 0 2 3 0 0 0 0 0 0 -0 -1 -1 -1 -1 -3 -1 -1 -1 -1 -2 -2 -2 -2 -3 -4 -4 -3 -3 -6 -8 -19 -23 -23 -21 -16 -13 -13 -14 -16 -17 -18 -18 -15

GFSCGP_850_dewp_018.txt.gz
Dewpoint
2 4 5 4 5 5 5 5 6 5 5 6 7 6 5 5 4 3 3 2 2 1 1 2 1 1 2 3 4 4 4 6 9 12 12 11 11 11 11 11 10 4 -4 -3
3 5 2 2 2 5 5 6 6 4 3 5 6 7 5 4 4 4 3 3 2 1 3 2 1 2 5 4 6 6 4 5 10 11 12 12 11 10 11 10 -1 -4 -3 -3
3 2 1 2 3 5 5 6 5 5 4 3 4 5 6 5 4 4 3 3 2 1 2 3 3 5 6 7 9 8 8 9 11 12 12 11 11 11 9 -2 -4 -3 -3 -3
3 2 2 3 4 4 6 4 4 5 5 6 5 9 6 5 5 3 3 2 2 2 2 3 5 7 8 8 10 10 10 11 12 12 12 11 11 8 -2 -4 -2 -3 -2 -2
4 3 3 3 3 2 4 2 3 4 6 6 5 7 6 5 6 5 3 2 2 2 2 3 5 7 9 9 10 10 10 10 10 10 9 7 4 -3 -4 -2 -3 -3 -2 -1
2 2 2 1 0 2 3 3 3 4 5 8 4 6 5 7 5 4 2 2 2 3 3 4 6 8 10 10 10 11 11 11 9 6 3 -1 -3 -3 -2 -3 -2 -2 -2 -2
5 5 3 3 3 2 2 4 5 5 6 5 3 4 4 5 3 2 2 1 2 3 3 4 6 6 8 10 10 10 9 7 3 1 -1 -3 -3 -2 -2 -2 -2 -2 -2 -2
6 5 4 3 3 4 4 4 5 5 5 4 4 7 7 3 1 1 2 1 2 3 3 4 4 4 5 5 6 5 4 2 2 1 -2 -4 -2 -2 -2 -2 -2 -2 -2 -2
5 4 2 2 1 2 4 6 2 4 5 8 8 8 6 4 1 0 1 2 3 4 4 4 3 3 4 4 3 3 3 2 2 0 -3 -3 -2 -2 -2 -2 -2 -2 -2 -3
3 3 2 3 2 2 3 2 5 5 7 7 9 10 8 4 3 2 2 2 3 4 5 4 4 3 3 2 2 2 1 -0 -1 -3 -3 -2 -2 -2 -2 -2 -2 -2 -2 -3
2 3 4 3 4 3 4 5 4 2 4 10 8 8 5 1 1 3 2 3 4 4 4 4 4 3 2 1 -0 -1 -2 -3 -3 -3 -3 -3 -3 -3 -3 -3 -2 -2 -2 -4
1 4 5 4 1 2 3 3 3 5 5 5 8 7 0 1 1 3 3 3 4 4 4 4 4 3 1 0 -1 -2 -2 -3 -4 -4 -3 -3 -3 -3 -3 -3 -2 -2 -3 -7
3 6 6 6 4 5 6 4 4 4 6 8 9 7 -1 -0 2 3 2 3 4 4 4 4 4 2 1 0 -0 -1 -2 -3 -4 -4 -4 -4 -4 -4 -3 -2 -2 -3 -5 -11
4 6 6 6 8 6 7 5 5 4 5 5 7 6 3 0 0 2 2 3 3 3 4 4 4 3 2 1 0 -0 -1 -3 -4 -5 -5 -5 -5 -4 -3 -2 -3 -4 -9 -18
4 6 6 6 6 7 6 5 6 7 6 7 6 6 2 1 -1 1 3 3 3 4 4 4 4 4 3 2 1 1 -0 -2 -3 -4 -5 -6 -5 -4 -3 -3 -5 -8 -17 -23
4 5 6 8 7 7 8 6 7 6 6 6 5 6 -1 -1 -1 2 3 3 3 3 4 3 3 4 4 3 2 1 -0 -2 -2 -3 -5 -6 -5 -3 -3 -5 -8 -14 -22 -24
5 6 7 9 8 8 10 7 6 6 5 5 7 6 -1 0 -0 1 3 3 3 3 3 3 3 4 4 3 2 1 -0 -2 -2 -4 -6 -6 -4 -4 -6 -8 -12 -21 -24 -16
5 5 6 8 8 7 2 6 6 7 6 6 5 1 -0 -0 1 0 2 3 3 3 3 3 3 3 3 3 2 1 -1 -2 -4 -5 -6 -4 -4 -6 -7 -11 -21 -24 -15 -14
3 5 7 7 7 4 2 0 5 7 6 3 4 1 1 1 1 1 1 2 2 2 3 3 3 3 3 2 1 -0 -2 -4 -5 -6 -5 -4 -6 -6 -10 -22 -23 -14 -13 -15
4 4 6 4 6 7 2 -1 -2 -1 4 -0 1 1 1 0 2 2 1 1 2 3 3 3 3 3 3 1 -0 -2 -3 -4 -5 -5 -4 -5 -6 -10 -22 -22 -13 -13 -14 -16
7 7 6 6 7 5 2 -1 -2 4 2 -0 -1 1 0 -0 -0 2 2 2 2 3 3 3 3 3 1 -0 -2 -3 -4 -5 -5 -4 -5 -6 -10 -22 -22 -13 -12 -13 -14 -16
7 8 8 7 7 6 0 -2 -0 -1 1 1 1 1 1 1 2 2 2 2 2 3 3 2 2 0 -1 -2 -2 -3 -4 -5 -4 -5 -6 -11 -23 -22 -14 -12 -12 -14 -15 -18
7 6 7 6 6 2 0 0 1 -0 1 1 1 1 0 2 2 2 2 2 2 2 2 1 1 -0 -2 -3 -3 -3 -5 -4 -4 -6 -12 -22 -23 -15 -13 -12 -12 -14 -16 -21
4 3 5 5 3 2 0 1 1 0 0 0 1 1 1 1 1 1 1 1 1 0 -1 -1 -2 -2 -3 -5 -6 -5 -3 -4 -6 -11 -22 -23 -17 -14 -13 -12 -13 -16 -20 -23
4 3 3 3 1 0 0 0 1 0 0 0 1 1 1 0 -1 -2 -3 -3 -3 -3 -3 -4 -4 -4 -5 -6 -5 -4 -4 -6 -11 -21 -23 -20 -16 -14 -12 -12 -14 -18 -22 -22
-0 4 5 5 1 0 -0 0 0 0 0 0 0 -0 -1 -3 -4 -4 -5 -5 -5 -5 -5 -5 -4 -4 -5 -5 -4 -4 -6 -11 -21 -23 -21 -18 -16 -14 -12 -13 -16 -21 -23 -23

GFSCGP_850_dewp_021.txt.gz
Dewpoint
2 5 5 4 4 5 5 6 6 4 3 4 5 5 5 4 4 4 4 4 4 3 3 2 2 2 1 2 3 7 10 11 11 13 13 12 11 12 12 12 11 10 9 -2
3 5 2 1 2 3 5 6 6 4 3 4 4 4 3 2 3 4 4 4 4 4 3 2 2 2 2 2 2 4 7 9 10 11 12 12 11 11 11 11 10 9 -4 -3
4 2 1 2 3 4 4 5 4 5 3 3 3 2 -1 -0 2 3 4 4 3 3 3 2 2 2 2 2 3 4 4 5 7 12 12 12 10 10 9 10 9 -3 -3 -3
4 2 1 2 3 3 4 3 3 4 5 5 3 4 2 2 2 3 3 4 4 3 3 2 2 2 2 4 5 6 6 5 10 12 12 12 10 10 10 8 -2 -3 -3 -2
4 4 3 3 3 2 3 2 4 5 5 5 4 6 2 2 2 2 4 3 3 3 3 2 2 2 4 5 7 8 8 8 12 12 12 12 11 11 9 -0 -3 -3 -3 -2
2 2 2 2 1 1 2 3 3 4 5 6 3 5 2 -2 1 3 3 3 3 3 3 2 2 5 6 7 9 10 11 11 12 12 12 11 11 9 2 -3 -3 -3 -2 -2
5 5 3 3 3 1 3 5 6 6 6 4 2 4 2 -2 1 2 2 2 3 3 3 2 4 7 7 8 10 10 11 11 11 11 9 8 7 1 -3 -3 -3 -2 -2 -2
5 5 5 3 3 3 4 5 6 5 4 3 -1 1 1 -0 -2 -3 1 2 2 2 3 3 4 6 7 8 10 11 11 11 10 7 5 1 -3 -3 -2 -3 -2 -2 -2 -2
5 4 3 3 2 3 6 6 3 5 4 6 5 4 5 1 3 2 0 0 1 2 3 3 4 7 8 9 10 10 10 10 7 3 -0 -3 -3 -2 -3 -2 -2 -2 -2 -2
3 3 2 3 2 3 4 2 6 6 6 5 3 6 4 5 4 0 2 2 2 3 4 4 5 6 8 9 9 9 8 6 2 1 -0 -3 -3 -3 -3 -3 -3 -2 -2 -3
3 4 3 4 5 4 5 5 5 3 4 5 6 4 5 4 3 2 1 1 2 3 4 5 6 6 6 7 7 6 5 3 3 2 -2 -3 -3 -3 -3 -3 -2 -2 -2 -3
2 4 4 3 2 1 1 2 3 5 3 2 2 2 -0 1 -0 2 3 3 4 5 5 5 5 5 5 5 4 4 3 2 1 -1 -3 -3 -3 -4 -4 -3 -3 -2 -3 -5
2 5 5 6 3 3 5 3 1 2 4 3 3 -2 -0 1 2 3 4 4 5 5 5 4 4 4 4 4 3 2 1 -0 -2 -3 -3 -4 -4 -4 -4 -3 -3 -3 -4 -7
2 5 5 5 6 4 5 4 3 3 5 3 3 2 2 3 4 3 3 4 5 5 5 4 4 3 3 2 1 -0 -2 -3 -4 -4 -4 -5 -5 -5 -4 -3 -3 -4 -6 -10
4 5 5 5 5 5 6 4 4 5 3 3 1 5 5 3 4 4 3 4 4 4 4 4 4 3 2 1 -0 -1 -2 -4 -4 -5 -5 -5 -5 -5 -4 -4 -4 -6 -9 -15
4 4 5 5 6 6 7 6 4 3 2 2 3 6 2 2 2 2 3 3 4 4 4 4 4 3 2 1 -0 -1 -2 -3 -4 -5 -5 -6 -6 -5 -4 -4 -6 -8 -13 -22
4 5 6 8 7 7 8 7 4 4 3 4 7 4 3 3 3 1 3 3 3 4 4 4 4 3 2 1 0 -0 -1 -2 -3 -4 -5 -7 -7 -5 -4 -6 -7 -12 -23 -18
6 6 7 8 8 9 7 6 3 3 4 4 5 5 4 3 4 1 2 3 3 3 3 3 3 3 3 2 1 1 -0 -2 -3 -4 -6 -7 -6 -5 -6 -7 -12 -23 -17 -12
4 5 8 9 8 5 2 8 7 7 7 6 6 5 3 3 1 1 2 3 3 3 3 3 3 3 3 3 2 1 -1 -2 -4 -5 -7 -6 -5 -5 -7 -13 -23 -17 -12 -12
4 4 7 7 7 7 2 -0 4 5 8 4 4 4 4 3 3 2 1 2 3 3 3 3 3 3 3 3 2 0 -1 -3 -5 -7 -7 -5 -5 -8 -12 -22 -16 -12 -12 -12
6 7 8 6 7 5 2 0 1 6 2 -0 3 4 4 2 3 1 1 2 3 3 3 3 3 3 3 2 1 -1 -3 -5 -6 -6 -5 -6 -8 -11 -22 -17 -12 -12 -12 -13
6 6 7 6 7 5 -0 -1 1 -1 1 1 1 1 1 1 1 1 2 2 3 3 3 3 3 3 2 1 -1 -3 -4 -5 -6 -5 -6 -7 -12 -22 -18 -13 -12 -12 -13 -15
7 4 5 5 4 1 0 0 1 0 1 1 1 1 0 1 1 1 1 2 2 2 2 2 3 1 -1 -2 -3 -3 -4 -5 -5 -6 -7 -13 -23 -19 -14 -13 -12 -12 -14 -19
4 3 5 5 3 3 1 1 1 0 0 1 1 1 1 1 1 1 1 1 2 2 2 1 0 -1 -3 -4 -4 -4 -5 -5 -6 -7 -13 -23 -21 -16 -15 -13 -12 -13 -17 -22
4 3 4 4 2 0 0 0 0 0 0 1 1 1 1 2 1 1 1 1 1 1 0 -0 -1 -2 -3 -5 -6 -5 -4 -5 -6 -12 -22 -22 -18 -16 -15 -12 -12 -15 -21 -23
2 4 5 5 2 1 -0 0 0 0 0 1 1 1 1 1 1 0 -1 -1 -2 -3 -3 -3 -4 -4 -5 -6 -5 -4 -5 -7 -13 -22 -22 -19 -18 -16 -13 -12 -14 -19 -23 -24

GFSCGP_850_dewp_024.txt.gz
Dewpoint
2 5 6 5 4 4 5 6 6 5 3 4 4 4 3 2 3 4 4 4 4 3 4 3 3 3 2 2 1 0 1 4 9 12 13 13 12 11 12 12 12 11 10 9
3 5 3 2 3 4 4 5 5 2 1 4 4 4 2 1 1 2 4 4 4 4 3 3 4 3 2 2 1 0 2 8 11 12 13 13 12 11 12 12 11 10 9 1
4 2 1 2 3 3 3 4 3 3 2 2 3 2 -2 -4 -3 -2 -1 0 1 3 3 2 3 3 2 2 1 1 3 9 11 13 13 13 12 11 11 11 10 7 -0 -3
4 2 2 2 3 2 4 2 3 4 4 4 1 4 -1 -2 -3 -3 -3 -0 1 1 1 3 3 3 2 1 2 3 3 6 11 12 13 13 12 10 10 9 7 5 -3 -3
4 4 4 4 2 2 3 1 3 4 5 5 4 5 1 -2 -0 -1 2 2 2 2 1 2 3 2 3 2 2 4 5 6 6 10 13 12 12 10 8 8 7 -1 -3 -3
2 2 2 2 1 1 2 3 3 4 5 6 3 4 1 -2 -3 -4 -5 -2 -2 -1 2 1 3 3 3 3 4 6 6 6 7 11 12 11 10 9 8 8 2 -3 -3 -2
5 4 3 2 3 2 3 6 6 6 6 4 1 4 2 -3 -4 -4 -4 -2 -2 -1 2 3 3 3 3 4 5 7 8 7 10 12 11 10 10 10 10 7 -2 -3 -3 -2
4 3 4 3 3 3 3 4 5 6 4 2 -0 2 1 -2 -3 -3 -3 -2 0 1 2 3 3 2 3 4 6 8 10 10 11 11 10 11 11 10 6 -2 -3 -3 -2 -2
5 4 3 2 2 1 5 5 3 6 6 6 4 2 -0 0 -2 -0 -1 -3 -2 1 2 3 3 3 3 5 7 9 11 11 11 11 11 9 7 2 -3 -3 -3 -3 -2 -2
2 4 2 2 3 3 5 3 5 5 6 6 2 2 2 1 0 1 1 0 -1 -2 0 2 3 4 6 7 8 10 11 11 11 9 7 4 -1 -3 -3 -3 -3 -3 -3 -2
1 4 3 4 5 4 5 6 6 5 5 3 2 1 0 2 2 3 2 1 0 1 1 2 3 5 7 9 9 10 10 11 9 6 2 -1 -3 -3 -3 -4 -3 -3 -3 -3
1 4 4 2 1 1 2 3 3 4 3 3 2 1 1 3 3 3 3 3 2 2 3 4 5 6 8 9 10 10 10 9 7 2 -0 -3 -3 -3 -4 -4 -3 -3 -3 -3
2 5 5 4 3 3 5 4 2 2 3 3 3 -1 -7 -4 1 4 4 5 5 5 5 5 5 7 8 8 8 8 7 6 3 2 -1 -3 -4 -4 -4 -4 -3 -3 -3 -3
1 5 5 5 4 4 5 4 5 4 5 2 2 0 -2 -2 4 5 4 5 5 5 5 4 5 7 8 8 7 6 5 4 2 -0 -3 -4 -4 -5 -5 -4 -4 -3 -3 -4
3 5 4 5 4 4 5 5 5 5 3 3 -0 -1 -2 3 3 5 4 5 5 5 4 4 4 5 5 5 4 3 2 1 -1 -3 -4 -5 -5 -5 -5 -5 -4 -4 -5 -7
4 5 5 5 4 5 5 6 5 4 3 3 2 2 -1 2 4 5 5 4 5 5 4 4 4 4 4 3 2 1 -0 -2 -4 -5 -5 -6 -6 -6 -5 -5 -4 -5 -8 -12
5 5 6 6 6 6 7 5 5 4 3 2 4 1 -1 0 4 4 3 3 4 4 4 4 4 4 3 2 1 -1 -2 -4 -5 -6 -6 -6 -7 -6 -5 -5 -6 -8 -11 -19
6 5 6 7 8 9 7 6 3 4 3 2 1 2 4 4 3 3 3 2 4 4 4 4 3 3 2 1 -1 -2 -3 -4 -5 -6 -6 -7 -7 -6 -6 -6 -8 -11 -18 -15
3 5 7 8 8 8 4 7 5 5 4 2 2 1 2 3 3 2 2 3 3 3 4 4 4 3 2 1 -0 -1 -2 -4 -5 -5 -6 -7 -7 -6 -6 -8 -11 -19 -15 -12
4 4 7 7 8 8 2 0 4 4 8 5 4 4 4 3 4 2 2 2 3 3 3 4 4 3 3 1 0 -1 -2 -3 -5 -6 -7 -7 -7 -7 -8 -12 -19 -15 -12 -12
7 7 7 8 7 5 2 0 4 7 4 -0 4 4 3 4 2 1 2 3 3 3 3 3 3 3 3 2 1 -1 -2 -4 -5 -7 -7 -7 -8 -9 -11 -19 -15 -13 -12 -12
5 6 7 6 7 5 -0 1 2 0 -0 1 1 3 3 3 1 1 2 3 3 3 3 3 3 3 3 2 1 -1 -3 -5 -7 -8 -7 -8 -8 -11 -20 -16 -13 -13 -12 -13
6 4 5 4 4 0 1 0 1 1 1 1 1 1 3 3 1 1 1 2 2 3 3 3 3 3 2 0 -1 -2 -5 -7 -7 -7 -7 -7 -12 -21 -17 -14 -14 -13 -12 -14
4 3 5 4 3 2 2 1 1 1 1 1 1 1 1 1 1 0 -0 1 2 2 2 2 2 1 -1 -3 -4 -4 -6 -7 -7 -6 -7 -13 -22 -19 -16 -15 -14 -12 -13 -19
3 3 4 4 2 1 1 1 1 0 1 1 1 1 1 1 -0 -0 0 1 1 1 1 1 0 -2 -4 -5 -5 -6 -6 -6 -6 -7 -13 -22 -20 -17 -17 -15 -13 -12 -18 -23
2 4 5 5 2 1 -0 1 0 0 1 1 1 1 0 1 0 0 -0 -0 -0 -1 -2 -2 -3 -3 -5 -5 -6 -6 -6 -6 -7 -14 -22 -21 -18 -18 -17 -13 -12 -17 -23 -25

GFSCGP_850_dewp_027.txt.gz
Dewpoint
3 4 5 5 4 4 5 6 5 4 3 3 3 3 2 1 1 1 1 1 2 1 2 3 4 3 3 3 3 2 2 2 2 3 9 12 13 13 12 12 11 12 11 10
4 5 2 1 3 4 4 5 5 2 1 2 2 3 1 1 1 0 0 0 1 -1 0 1 2 3 4 3 3 2 2 2 2 5 8 12 12 13 12 12 12 11 10 10
4 2 1 3 3 3 4 5 3 2 1 1 2 1 -3 -5 -4 -2 -1 -1 -0 0 -1 -2 0 1 2 3 3 2 2 2 4 6 11 13 13 12 12 12 11 10 8 5
4 2 2 3 3 3 4 2 2 3 4 3 1 3 -3 -4 -5 -5 -5 -4 -2 -2 -2 -4 -3 1 2 2 3 2 2 3 5 9 12 12 12 11 11 11 11 9 7 -2
3 3 4 3 2 2 3 1 2 3 4 4 3 4 0 -2 -1 -2 -3 -4 -5 -4 -2 -3 -5 -1 1 2 3 2 2 4 6 11 13 13 12 11 11 11 9 5 3 -3
2 1 2 2 2 1 1 3 3 4 5 6 3 4 1 -2 -3 -4 -4 -4 -6 -5 -1 2 -0 -1 1 3 3 3 3 4 6 11 13 13 12 11 10 9 7 4 1 -3
3 4 3 2 3 2 2 6 6 6 7 5 1 4 1 -3 -3 -4 -4 -5 -6 -6 -5 -4 -0 2 2 3 3 3 4 5 6 10 12 12 12 11 9 7 6 4 -2 -3
5 3 4 3 3 3 4 4 5 5 5 3 0 4 1 -2 -3 -4 -4 -4 -4 -4 -4 -2 -2 2 2 3 3 3 4 6 7 9 11 12 11 9 8 7 5 -1 -3 -2
5 4 2 3 2 2 5 5 2 4 3 6 3 0 -2 -3 -2 -1 1 2 1 -0 -3 -2 1 3 3 3 3 3 5 7 7 9 11 11 10 9 6 4 -2 -3 -3 -2
2 4 1 2 2 2 4 2 5 5 5 5 4 3 1 -2 -3 3 3 3 3 3 0 -2 2 3 3 4 5 6 7 8 9 10 10 10 9 5 4 -1 -4 -4 -3 -2
2 2 2 4 4 3 5 5 5 4 5 4 2 1 -4 -4 3 4 4 4 4 3 2 -0 -1 2 3 5 7 8 9 10 11 10 9 9 6 3 -3 -4 -4 -3 -3 -2
1 3 3 2 -0 1 1 3 3 6 4 5 2 -0 1 2 3 4 4 4 4 4 3 2 2 3 4 7 9 10 10 11 10 9 8 6 1 -3 -4 -5 -4 -3 -3 -3
2 4 4 3 3 1 4 4 4 4 5 5 4 -0 -5 -3 1 4 4 5 5 5 5 5 5 5 6 8 10 10 10 10 9 6 3 -1 -3 -4 -5 -4 -4 -3 -3 -3
1 4 3 4 4 4 5 5 4 4 5 3 3 0 -3 -4 -3 -1 4 5 5 5 4 5 5 6 7 9 10 10 9 8 6 1 -2 -3 -4 -5 -5 -4 -4 -4 -4 -4
3 5 4 4 3 4 5 5 5 5 4 4 1 -0 -3 -4 -3 4 4 4 4 5 4 4 4 5 7 8 9 8 8 5 2 -1 -3 -4 -5 -5 -5 -5 -5 -4 -5 -6
3 5 5 5 4 4 5 6 5 5 4 3 2 2 -3 1 2 2 2 4 5 5 5 4 3 5 7 7 7 6 5 3 0 -2 -4 -5 -5 -5 -6 -5 -5 -5 -6 -8
5 5 6 6 5 6 8 7 5 5 4 3 5 2 -1 -0 1 1 2 4 4 5 5 4 3 5 6 6 6 5 3 1 -2 -4 -5 -6 -6 -6 -6 -6 -6 -7 -8 -11
4 5 6 6 7 9 8 5 5 4 4 3 2 1 1 2 3 3 3 4 4 4 4 3 3 3 4 4 3 2 -0 -3 -4 -6 -6 -7 -7 -7 -6 -6 -7 -8 -11 -15
3 4 7 8 8 6 4 4 6 4 6 3 2 1 1 2 3 4 2 2 3 4 4 4 4 3 2 2 0 -1 -3 -5 -7 -7 -7 -7 -7 -7 -7 -7 -8 -11 -16 -13
4 4 7 7 8 8 3 2 4 4 7 3 2 1 1 3 5 2 3 3 3 4 4 4 3 3 2 -0 -1 -3 -5 -7 -7 -7 -7 -7 -8 -7 -7 -8 -11 -16 -13 -13
6 6 6 7 8 5 2 1 4 5 3 -0 2 2 3 4 3 1 3 3 3 4 4 4 3 2 1 -1 -2 -4 -5 -6 -7 -7 -7 -8 -8 -7 -8 -12 -17 -14 -13 -13
4 6 7 7 7 5 -0 3 4 -0 1 0 1 3 4 3 1 2 2 3 3 3 4 3 3 2 0 -1 -2 -4 -5 -6 -7 -7 -8 -7 -7 -7 -12 -18 -14 -14 -13 -13
6 3 4 4 3 0 1 -0 1 1 1 1 1 1 3 2 1 1 1 2 2 3 3 3 3 1 -1 -2 -3 -3 -5 -6 -7 -8 -7 -6 -7 -13 -19 -15 -15 -14 -13 -13
3 2 5 4 2 2 2 1 1 1 1 1 1 1 3 3 1 1 2 2 3 3 2 2 2 1 -1 -3 -3 -3 -5 -7 -7 -6 -6 -7 -15 -20 -17 -16 -15 -13 -13 -18
3 3 4 4 3 2 1 1 1 0 1 1 1 1 2 1 0 1 1 2 2 2 1 1 1 0 -2 -4 -5 -6 -7 -7 -6 -6 -8 -15 -21 -18 -17 -16 -14 -12 -17 -24
2 3 4 5 2 1 0 0 1 0 1 1 0 0 0 1 1 2 1 1 1 1 -0 -1 -1 -2 -6 -6 -6 -7 -6 -6 -5 -8 -17 -21 -19 -18 -17 -14 -12 -17 -24 -25

GFSCGP_850_dewp_030.txt.gz
Dewpoint
3 4 4 2 1 1 3 4 4 2 1 2 1 1 -0 -1 -1 -1 -1 -1 -0 1 1 2 3 3 4 1 1 3 2 2 2 5 12 12 12 12 13 12 12 12 11 11
3 4 1 0 1 2 3 4 3 1 0 1 1 1 -1 -2 -2 -2 -3 -3 -3 -3 -2 -1 2 3 4 4 3 3 3 2 2 5 6 11 12 12 13 13 13 12 11 11
3 2 0 2 2 2 2 3 3 3 1 -1 0 1 -3 -6 -6 -6 -4 -4 -3 -4 -4 -3 -2 1 3 4 4 3 3 2 3 5 9 8 11 12 13 13 12 12 11 10
3 0 1 2 3 2 3 -0 1 2 2 4 -0 4 -2 -4 -5 -6 -6 -6 -5 -4 -3 -3 -3 -2 0 2 2 3 3 3 3 4 4 6 9 13 13 12 12 11 10 9
3 3 3 3 2 1 2 0 1 1 2 3 2 5 -1 -3 -3 -4 -6 -6 -6 -6 -5 -4 -3 -3 -1 1 -0 2 3 3 3 3 5 9 12 13 12 11 11 10 9 3
1 1 1 1 0 0 0 2 2 2 3 6 2 4 0 -2 -4 -5 -6 -7 -7 -6 -4 -3 -3 -1 -0 2 0 2 3 3 3 4 7 11 12 13 12 11 10 10 5 -1
2 3 1 1 2 1 2 5 4 6 6 3 -2 1 1 -4 -5 -5 -6 -6 -6 -4 -5 -5 -2 1 2 3 1 3 3 3 3 6 9 12 12 13 11 10 10 9 3 -0
4 5 2 2 2 1 3 3 4 3 2 -0 -2 2 -2 -5 -6 -6 -5 -3 1 1 1 -3 -3 -0 2 2 -0 3 4 4 4 7 10 12 12 12 11 10 10 5 3 -0
5 4 1 1 1 1 4 6 2 5 3 5 1 -3 -5 -6 -6 -6 -3 1 1 2 2 1 -1 1 3 4 2 3 4 5 6 7 10 11 11 12 11 10 7 1 1 -2
2 5 0 0 2 2 3 1 5 5 4 3 -1 -2 -2 -4 -4 0 -0 0 3 3 3 3 1 2 4 6 5 5 6 6 7 8 10 11 10 10 9 6 2 1 -3 -3
1 1 2 2 3 2 4 5 6 3 4 3 2 -2 -7 -7 -7 -2 -0 1 4 4 4 4 2 4 6 7 8 6 7 7 7 8 9 11 10 9 6 5 -0 -4 -4 -3
-0 2 3 3 -2 -1 -2 0 2 6 4 4 4 3 -6 -2 0 1 -2 -0 3 4 4 5 4 6 7 7 7 7 7 7 7 8 10 9 8 8 3 -2 -5 -5 -4 -3
0 4 4 4 3 0 2 1 0 4 4 6 5 1 -6 -4 -1 -3 -2 0 2 4 4 4 5 5 6 6 6 7 7 7 8 9 9 8 7 3 -3 -5 -5 -4 -4 -3
0 2 3 3 4 4 6 4 5 5 6 4 4 2 -2 -4 -4 -6 -6 -3 1 4 4 4 4 5 5 5 5 6 8 9 9 8 8 6 1 -3 -6 -6 -5 -4 -4 -4
1 5 4 4 2 4 5 4 5 5 5 5 2 0 -1 -3 -3 -5 -5 0 1 4 5 4 3 3 4 3 3 8 9 8 7 6 4 0 -4 -6 -6 -5 -5 -5 -5 -5
2 4 5 5 3 3 6 6 6 6 5 5 4 3 -1 -2 -2 -3 0 -0 0 4 4 4 3 2 1 3 6 8 8 6 4 2 -1 -4 -5 -6 -5 -5 -5 -6 -6 -6
3 5 6 6 4 4 8 7 7 6 4 4 6 2 -1 -1 -1 0 0 3 4 4 4 4 2 1 -0 3 7 7 6 3 1 -3 -5 -5 -6 -6 -6 -6 -6 -6 -7 -8
4 5 4 6 5 9 7 5 5 6 5 5 3 2 0 -0 2 3 4 5 5 4 4 3 1 -0 2 4 4 5 3 0 -3 -5 -5 -6 -6 -6 -7 -7 -7 -7 -8 -11
3 4 6 7 8 5 5 5 7 6 7 3 4 3 3 3 3 3 4 3 4 4 4 2 0 4 3 4 3 1 -2 -4 -4 -5 -6 -7 -7 -7 -7 -7 -7 -8 -12 -14
3 4 5 4 8 7 4 4 4 4 7 0 2 3 2 1 7 4 3 4 4 3 2 0 2 3 4 3 2 1 -2 -5 -7 -7 -7 -8 -8 -7 -7 -7 -9 -13 -14 -13
6 6 6 6 7 5 1 1 4 4 3 1 1 2 1 3 3 2 3 4 4 4 3 3 3 2 2 0 -1 -3 -6 -7 -8 -8 -8 -8 -8 -7 -8 -9 -14 -15 -14 -14
5 5 6 6 7 7 0 2 4 2 1 1 1 2 4 2 3 2 3 3 4 4 3 2 2 1 -1 -2 -4 -6 -7 -7 -7 -7 -7 -7 -8 -8 -10 -15 -15 -14 -15 -14
6 3 4 4 3 1 1 1 1 1 1 1 1 1 3 3 4 4 2 2 3 3 2 2 1 -1 -4 -5 -6 -5 -6 -7 -7 -7 -7 -8 -8 -11 -16 -16 -15 -16 -14 -13
3 2 4 4 3 2 2 1 1 1 1 1 1 1 2 2 1 2 2 2 2 2 2 1 -1 -3 -5 -6 -6 -5 -7 -7 -7 -7 -8 -9 -12 -17 -17 -16 -16 -15 -13 -16
3 3 4 4 3 2 1 1 1 1 1 0 1 2 2 1 -0 1 0 1 1 1 1 0 -1 -3 -4 -6 -7 -6 -7 -8 -7 -7 -8 -11 -18 -19 -17 -17 -15 -13 -16 -24
2 3 4 3 2 2 1 1 0 1 0 -0 1 0 -0 -0 -1 -0 -0 -0 0 1 0 -1 -2 -4 -6 -6 -6 -8 -8 -8 -6 -6 -11 -19 -19 -18 -18 -15 -12 -16 -24 -25

GFSCGP_850_dewp_033.txt.gz
Dewpoint
2 3 4 3 3 2 1 2 2 1 -0 1 1 0 -1 -3 -3 -2 -2 -1 -1 -1 -0 0 1 2 1 1 3 3 4 4 6 8 11 12 13 12 13 13 12 11 10 10
4 6 1 -0 -0 1 1 3 2 0 -1 -0 -0 -0 -2 -3 -4 -4 -3 -3 -2 -3 -2 -2 -0 1 2 2 3 3 3 5 6 8 10 12 13 13 13 12 12 12 11 11
4 1 -0 0 1 2 2 2 2 2 0 -1 -0 0 -3 -5 -5 -5 -4 -4 -4 -4 -4 -4 -4 -2 0 2 2 3 4 5 6 9 11 12 13 13 13 12 12 12 12 11
2 -0 0 1 2 1 3 -1 0 1 2 3 -1 3 -2 -5 -6 -6 -6 -6 -6 -5 -5 -4 -4 -5 -3 0 2 3 4 5 8 9 11 10 6 7 9 11 12 12 12 11
3 2 2 2 1 -0 2 -0 1 1 2 3 2 4 -1 -4 -3 -5 -6 -6 -6 -6 -6 -6 -4 -4 -4 -3 1 3 5 6 9 10 10 8 8 8 9 12 12 12 11 11
0 -0 0 1 0 0 0 1 1 1 2 6 2 1 -1 -4 -6 -7 -7 -6 -7 -7 -7 -6 -5 -5 -4 -3 -2 4 5 8 10 10 7 6 8 8 9 12 11 11 11 10
2 1 0 -0 2 0 1 4 4 6 6 4 -4 0 -0 -5 -6 -6 -7 -7 -6 -5 -3 -1 -3 -5 -3 -2 -2 4 6 8 9 8 7 8 10 8 10 11 11 11 10 8
4 6 2 1 2 2 1 2 4 3 2 0 -3 0 -3 -7 -7 -7 -7 -7 -7 -2 -1 1 2 -2 -3 0 1 3 8 8 8 6 9 10 10 9 11 11 11 10 9 7
4 4 -0 1 0 -0 3 5 1 4 1 3 -1 -4 -6 -8 -8 -8 -8 -7 -5 -1 1 2 2 1 -3 -1 3 5 8 8 8 8 9 10 9 11 11 11 10 9 8 1
2 5 0 1 0 0 1 1 5 6 5 3 -1 -2 -3 -6 -7 -8 -7 -2 -1 1 1 2 2 2 -1 0 3 6 7 8 7 9 9 8 9 11 11 11 9 8 3 -0
0 1 2 1 3 2 3 4 4 3 4 4 3 -0 -7 -6 -7 -8 -2 -2 -0 1 1 2 3 2 1 2 4 7 7 7 7 8 6 8 10 10 10 9 7 6 -1 -2
-0 0 3 2 -2 -2 -1 1 2 6 3 5 5 4 -4 -6 -6 -3 -3 -3 -2 0 2 3 4 4 5 5 7 8 7 7 7 5 4 8 10 10 10 6 6 -2 -2 -4
-0 3 4 5 2 -1 1 0 -0 3 5 6 6 3 -5 -5 -5 -5 -3 -4 -5 -1 2 3 4 5 6 7 8 7 6 5 4 3 4 9 8 8 6 4 -0 -2 -4 -4
-1 1 3 4 6 4 6 3 3 5 6 4 4 2 -1 -3 -3 -3 -5 -4 -5 -3 0 4 4 5 5 6 6 6 4 3 2 3 5 7 6 6 5 0 -4 -5 -5 -5
1 6 2 3 2 3 4 4 4 6 6 6 4 4 2 0 -1 -3 -2 -4 -4 -2 1 4 4 4 5 5 5 3 -0 -0 2 5 5 5 4 1 -3 -5 -5 -5 -4 -4
1 5 5 5 1 2 4 2 5 7 7 7 6 6 3 1 -1 -2 -2 -2 -2 -1 -0 4 3 3 4 4 1 -1 -1 1 3 4 4 3 -1 -3 -6 -6 -5 -4 -3 -5
3 5 5 4 3 3 7 7 7 7 6 7 7 4 1 0 -1 -1 2 3 2 2 3 4 3 3 2 -1 -0 -1 0 3 3 3 -2 -2 -3 -6 -3 -4 -5 -5 -5 -6
3 4 4 5 4 8 4 2 4 6 6 5 5 5 4 3 3 3 3 4 4 4 5 4 2 1 -2 -2 -1 -2 -1 1 2 0 -2 -2 -5 -5 -5 -6 -6 -6 -6 -7
2 3 4 5 4 3 3 3 5 7 7 3 4 5 5 5 4 4 3 4 4 3 4 3 0 -2 -3 -3 -3 -2 -1 -1 0 2 2 -2 -2 -3 -6 -7 -6 -6 -8 -10
3 3 4 4 6 6 3 2 1 4 7 2 1 3 3 3 7 4 3 3 3 3 1 -1 -3 -3 -3 -3 -3 -1 1 2 -0 -3 -4 -6 -7 -7 -7 -6 -6 -8 -10 -14
6 6 6 6 6 3 0 1 4 6 4 2 1 4 3 4 3 2 2 2 1 1 -0 -1 -1 -1 -1 -0 2 1 -0 -1 -1 -6 -8 -8 -7 -6 -6 -7 -9 -12 -14 -14
4 5 6 6 7 6 0 1 5 3 2 2 1 3 4 3 1 2 2 0 -1 -3 -4 -3 -4 -5 -6 -6 -7 -9 -8 -8 -8 -8 -8 -7 -7 -7 -8 -9 -13 -15 -15 -15
5 2 4 4 4 1 1 2 2 2 2 1 2 2 6 6 5 1 3 0 -1 -1 -1 -2 -2 -5 -7 -7 -6 -6 -8 -8 -8 -7 -7 -7 -8 -8 -10 -14 -16 -16 -16 -14
2 1 3 4 2 2 2 2 2 1 1 1 2 2 4 2 1 0 -0 -0 -1 -2 -3 -2 -2 -5 -6 -6 -6 -5 -6 -7 -7 -7 -7 -7 -8 -11 -16 -17 -17 -16 -14 -14
3 3 4 4 2 2 1 1 1 1 0 0 1 2 1 0 -1 -1 -2 -2 -2 -2 -4 -5 -4 -5 -6 -7 -6 -6 -7 -7 -7 -7 -7 -8 -12 -17 -18 -17 -16 -13 -13 -20
1 3 4 3 1 2 1 1 1 1 -0 -0 -0 -0 -0 -1 -1 -2 -3 -3 -3 -3 -4 -4 -5 -6 -7 -7 -7 -7 -8 -8 -7 -6 -8 -13 -18 -18 -18 -16 -13 -13 -20 -25

GFSCGP_850_dewp_036.txt.gz
Dewpoint
7 7 8 6 4 4 5 3 2 1 -1 0 1 0 -1 -2 -2 -2 -1 -1 -1 -0 0 0 0 1 -1 -1 1 4 4 4 4 10 12 13 13 13 12 12 11 12 11 10
4 5 2 1 2 4 2 2 2 1 -1 -0 -0 0 -1 -2 -3 -3 -3 -3 -3 -2 -1 -1 -1 0 1 1 0 -0 4 4 4 4 8 12 13 12 12 12 13 12 12 10
4 2 1 2 2 2 2 3 2 2 0 -1 -0 1 -1 -3 -3 -3 -3 -4 -4 -3 -3 -2 -2 -2 -1 1 2 1 1 3 4 4 7 11 13 12 12 12 12 12 12 11
3 0 0 1 2 1 3 0 1 1 2 4 0 4 -1 -3 -5 -6 -6 -6 -4 -4 -4 -4 -4 -4 -3 -1 0 1 2 3 3 4 8 11 12 11 12 12 13 12 12 11
3 2 2 2 1 0 1 0 1 1 2 2 2 3 0 -4 -3 -5 -6 -6 -6 -6 -6 -6 -5 -5 -5 -4 -2 -0 1 3 3 5 8 11 12 11 10 11 12 11 11 11
1 -0 0 1 -0 -0 0 1 1 2 2 5 3 2 0 -4 -5 -5 -6 -6 -6 -7 -7 -6 -6 -5 -4 -4 -4 -2 2 2 4 7 9 11 10 9 10 11 12 12 11 10
2 2 0 -0 2 1 1 3 5 6 6 4 -2 2 -1 -5 -6 -5 -6 -7 -6 -6 -6 -3 -1 -0 -0 -4 -4 -4 -3 4 3 8 10 12 11 10 8 8 8 10 10 10
5 5 2 0 2 3 3 3 5 5 5 3 -1 1 -2 -6 -6 -7 -7 -7 -7 -6 -5 -0 1 2 2 1 -4 -3 -3 5 5 8 11 11 11 9 7 6 8 11 10 10
5 4 0 1 0 1 3 4 1 3 2 3 1 -3 -5 -6 -7 -7 -8 -7 -7 -7 -1 1 1 2 2 2 -3 -2 -2 5 7 10 10 11 9 8 8 7 10 11 10 9
3 4 1 1 -1 -1 1 0 5 5 4 4 1 -0 -1 -4 -6 -7 -7 -3 -3 0 1 1 1 1 0 2 -1 -0 1 4 8 10 10 9 9 9 9 9 11 10 9 7
-0 2 2 2 3 3 2 3 3 3 4 5 4 1 -4 -4 -5 -5 -5 -2 -1 1 1 1 2 1 1 2 0 0 3 6 8 9 9 10 10 10 9 9 9 9 8 6
-0 1 3 3 -1 -0 0 2 1 4 3 4 5 3 -3 -4 -5 -5 -5 -1 -1 -0 -1 1 2 3 2 4 3 3 4 7 8 9 9 10 9 8 9 8 7 6 4 -0
0 2 3 4 1 -1 1 1 1 2 4 5 5 2 -4 -4 -3 -4 -4 -4 -4 -3 -2 1 3 3 4 6 6 6 7 7 8 8 9 9 7 7 6 6 3 -0 1 1
-1 2 3 4 5 5 5 3 2 3 6 4 4 2 0 -1 -1 -0 0 -2 -3 -2 -3 2 3 4 5 6 7 7 7 7 7 8 7 6 6 5 5 2 0 3 2 -4
1 4 3 3 1 2 3 4 3 5 5 6 4 5 3 3 4 2 2 -1 -2 -2 -3 2 4 4 5 6 7 7 6 5 5 3 3 4 4 4 2 2 -2 -3 -5 -4
1 4 3 3 2 2 3 2 3 4 7 7 7 6 4 3 3 1 2 3 2 0 -1 2 4 4 4 6 5 4 4 3 2 1 1 -0 1 1 -1 -3 -3 -1 -3 -4
4 4 5 3 3 3 6 4 6 7 6 7 7 6 4 5 5 5 4 4 3 3 3 4 3 3 5 2 1 1 0 -1 -1 -2 -4 -3 -1 -2 -2 -1 -2 -5 -6 -3
5 5 4 4 4 7 5 4 4 5 5 5 6 4 4 5 4 4 4 4 4 4 3 4 3 3 3 1 1 -0 -3 -5 -5 -6 -5 -3 -3 -3 -1 -4 -3 0 -3 -6
4 5 6 5 5 3 1 3 4 5 6 4 3 3 4 5 4 4 3 3 4 4 4 3 3 2 1 -1 -4 -4 -6 -7 -6 -7 -6 -4 0 1 2 0 -5 -7 -6 -6
4 4 4 5 6 5 3 2 1 4 8 3 3 5 5 5 6 4 3 1 0 2 3 1 0 -2 -4 -5 -5 -4 -5 -4 -1 1 2 1 1 1 -6 -8 -6 -7 -8 -3
6 5 6 6 6 3 -1 2 3 8 5 2 1 5 4 5 3 2 1 1 -2 -3 -4 -5 -5 -5 -4 -4 -3 -3 -1 1 2 2 2 -0 -5 -9 -7 -7 -7 -3 -7 -14
5 6 6 6 7 6 0 2 4 3 2 2 1 4 4 2 2 1 -1 -2 0 -1 -2 -3 -2 -2 -2 -1 1 2 2 1 2 2 -2 -7 -8 -7 -8 -6 -7 -13 -15 -16
4 3 4 3 4 0 1 2 2 2 2 2 2 2 5 4 1 0 -1 -2 -6 -5 -1 0 0 0 1 1 3 3 2 -3 -8 -8 -8 -7 -9 -10 -8 -10 -15 -16 -16 -15
2 1 4 3 2 2 2 1 1 1 1 1 1 2 5 4 1 0 -0 -2 -4 -6 -8 -9 -9 -8 -8 -7 -7 -8 -10 -9 -9 -9 -10 -9 -7 -8 -13 -17 -17 -17 -15 -13
3 3 4 4 3 2 1 1 1 1 0 0 2 3 2 2 -0 -1 -1 -2 -4 -6 -8 -8 -7 -8 -8 -9 -9 -9 -9 -8 -8 -7 -7 -8 -9 -15 -18 -18 -17 -14 -13 -18
2 3 4 5 1 2 2 1 1 1 -0 0 1 1 0 0 -0 -0 -1 -3 -5 -6 -6 -6 -7 -8 -8 -8 -10 -10 -9 -8 -7 -6 -7 -11 -16 -19 -18 -17 -13 -13 -20 -23

GFSCGP_850_dewp_039.txt.gz
Dewpoint
7 7 8 6 6 5 5 6 4 1 -0 -0 1 1 0 -1 -1 -1 -1 -1 -2 -1 0 0 -0 -0 -1 -2 -2 -1 2 6 9 10 11 12 13 12 12 11 12 11 11 11
5 6 5 4 4 5 5 5 3 1 -1 -0 0 0 -2 -2 -2 -2 -3 -2 -2 -2 -2 -1 -1 -0 0 0 -1 -2 -0 4 6 10 10 9 10 11 12 11 11 11 11 11
5 2 1 2 3 4 2 3 3 2 0 -1 -0 1 -1 -2 -3 -3 -3 -3 -3 -3 -3 -3 -2 -2 -1 -1 -0 1 0 1 5 6 9 9 9 11 12 12 11 11 11 11
3 1 1 2 3 1 3 1 1 2 2 3 0 4 1 -2 -4 -5 -4 -3 -3 -4 -4 -4 -4 -3 -3 -2 -2 -1 -0 1 1 4 6 7 9 10 11 9 11 11 11 11
4 2 2 2 2 0 2 1 1 2 2 2 2 2 1 -2 -4 -5 -6 -6 -6 -6 -5 -5 -6 -5 -5 -5 -3 -3 -2 -1 0 3 4 4 5 9 10 10 10 11 10 10
2 -0 0 2 -0 0 -0 0 1 1 2 3 2 2 0 -3 -5 -5 -6 -6 -7 -6 -6 -5 -5 -4 -4 -4 -4 -4 -4 -0 -1 0 4 4 4 5 9 10 9 9 10 10
3 2 0 -0 2 0 2 1 2 4 5 3 0 3 1 -4 -5 -6 -6 -7 -6 -6 -6 -6 -4 -3 -2 -1 0 -1 -5 -5 -1 1 2 5 5 6 7 7 8 8 10 11
3 3 2 0 1 2 3 2 1 4 4 4 -0 2 -1 -4 -5 -6 -7 -7 -7 -7 -6 -5 -2 -0 -0 -2 -2 -0 1 -4 -5 2 3 4 6 8 8 8 8 10 10 10
3 4 1 0 -0 1 3 2 0 2 2 1 1 -2 -5 -6 -6 -7 -6 -6 -7 -7 -0 -0 0 -1 -8 -9 -8 0 1 -2 -4 -3 5 5 7 10 9 9 10 11 11 11
2 4 2 2 0 1 0 0 3 1 2 3 2 1 -1 -4 -5 -5 -5 -5 -3 0 1 1 1 -0 -3 -5 -6 1 1 -2 -3 -1 6 8 8 9 9 10 10 8 9 10
0 2 3 2 2 2 2 2 2 2 3 4 5 2 -4 -4 -4 -4 -4 -4 -1 0 1 1 -0 -1 -3 -6 -4 1 -0 -0 -0 4 7 8 9 8 9 10 8 7 9 10
-0 2 4 2 -0 -0 0 1 1 1 0 2 3 3 -3 -3 -4 -4 -3 -3 -2 -3 -1 -0 1 -0 -3 -3 -3 4 2 2 2 5 8 9 10 10 10 9 8 9 9 8
0 1 1 3 1 -0 2 1 1 1 3 2 4 2 -4 -4 -3 -3 -1 2 2 0 -4 -0 1 -1 -1 -1 -1 6 5 4 5 6 8 9 9 9 9 9 8 8 7 6
-1 2 0 2 3 3 2 3 1 2 5 3 3 2 -0 -1 1 2 3 4 3 2 -0 -0 1 1 1 2 3 7 6 5 5 8 7 8 8 8 8 8 6 4 4 2
0 1 2 2 2 1 1 2 3 4 3 6 3 3 3 3 4 4 4 4 2 2 -1 0 2 2 3 3 6 7 7 7 7 8 8 8 7 6 5 3 2 -0 -3 -4
1 2 1 1 2 2 3 2 2 2 3 4 4 6 3 3 4 4 4 4 4 3 3 4 3 4 3 4 6 6 5 7 7 7 7 6 4 1 0 -3 -3 -2 -2 -2
3 2 1 1 1 2 5 3 2 5 6 6 8 5 4 4 5 5 4 4 5 4 4 3 4 4 3 3 5 3 2 2 3 4 3 1 0 -1 -2 -3 -3 -1 -2 1
3 4 3 3 3 6 4 3 3 5 5 5 5 4 4 5 5 3 3 1 1 2 3 3 4 3 3 3 2 2 1 1 1 -1 -2 -3 -3 -4 -5 -3 0 1 0 -1
3 4 4 5 4 3 2 3 4 6 5 4 4 3 5 5 5 3 2 -2 -0 4 4 4 3 2 1 1 1 1 -1 -2 -4 -5 -6 -5 -5 -1 1 1 1 1 1 -1
4 4 6 5 6 5 2 2 1 4 7 2 2 4 6 4 6 4 1 -3 -1 -0 1 1 -0 -1 -0 -1 -2 -2 -4 -6 -4 -3 -2 -1 0 1 2 2 1 -4 -9 -11
6 6 5 5 6 3 0 -1 3 6 4 2 2 3 5 4 3 0 1 -3 -3 -2 -0 -1 -1 -2 -3 -4 -3 -5 -5 -1 -2 -1 0 1 1 0 -2 -7 -9 -10 -9 -11
5 6 6 6 6 5 -1 2 5 3 2 2 1 3 3 2 2 -1 1 0 -1 -2 -3 -4 -3 -3 -2 -2 -1 -2 -0 -0 1 1 2 -0 -2 -3 -7 -9 -3 -4 -14 -15
5 3 4 3 3 -1 0 2 2 2 1 1 1 2 5 2 0 -3 -2 -0 1 1 0 -1 -1 -2 -1 -0 0 0 1 1 1 0 -2 -7 -10 -11 -7 -7 -13 -16 -16 -15
2 1 3 3 2 1 1 1 1 1 0 0 1 3 5 4 1 -1 -4 -4 -0 1 1 1 1 1 0 0 1 2 1 1 -5 -9 -10 -7 -4 -7 -12 -15 -17 -17 -16 -13
3 3 3 3 3 2 1 1 1 1 -0 0 2 3 4 3 1 0 -3 -6 -7 -4 -1 1 1 1 0 0 -1 -5 -8 -9 -9 -9 -8 -8 -9 -13 -17 -18 -18 -14 -14 -19
2 2 4 4 2 2 2 1 1 1 -0 0 1 2 1 1 -0 -1 -3 -6 -6 -6 -6 -7 -7 -7 -8 -9 -9 -10 -10 -9 -8 -7 -7 -9 -15 -18 -18 -16 -13 -16 -21 -22

GFSCGP_850_dewp_042.txt.gz
Dewpoint
8 8 8 8 6 4 4 5 6 3 -0 -1 0 0 -1 -2 -2 -2 -1 -1 -1 -1 -0 -0 0 -0 -1 -1 -2 -1 -2 -0 8 11 10 11 11 12 12 12 12 12 12 12
8 8 6 5 6 6 6 5 4 1 -1 -0 0 0 -2 -3 -3 -3 -2 -2 -2 -2 -2 -2 -1 -1 -0 -0 -1 -1 -2 -2 -1 7 9 10 9 9 10 11 12 11 11 12
6 4 3 4 5 6 4 3 3 3 1 -1 -0 -1 -2 -3 -3 -3 -4 -3 -3 -3 -4 -6 -5 -3 -2 -2 -1 0 -0 -1 -2 2 7 9 10 9 10 10 11 12 11 11
3 1 3 4 4 1 3 1 1 2 2 3 0 3 0 -2 -3 -5 -6 -6 -4 -4 -4 -5 -5 -4 -4 -3 -2 -1 -1 -0 1 1 8 8 9 9 9 8 9 11 11 11
4 3 2 2 2 1 2 0 1 1 2 1 1 3 0 -2 -3 -5 -6 -7 -7 -6 -6 -6 -5 -5 -4 -4 -4 -4 -3 -2 -2 1 1 7 9 8 8 7 8 9 10 10
1 0 1 1 0 -0 -0 0 1 1 1 2 1 2 0 -3 -5 -6 -7 -7 -7 -8 -7 -6 -5 -4 -4 -5 -5 -5 -4 -4 -3 -3 0 1 3 10 8 8 8 8 9 9
3 2 0 -0 2 0 0 0 2 1 1 2 0 3 1 -2 -4 -6 -6 -6 -7 -6 -6 -5 -4 -4 -4 -4 -3 -4 -4 -4 -4 -4 -4 -0 2 2 8 8 7 7 8 9
4 4 1 -0 1 2 2 0 1 1 4 3 0 3 -1 -4 -5 -7 -6 -6 -7 -7 -6 -3 -3 -3 -3 -3 -4 -4 -5 -5 -5 -5 -5 -3 -0 2 4 7 6 7 6 7
2 2 1 0 0 0 2 2 -0 1 0 0 1 -1 -6 -6 -6 -6 -5 -4 -3 -4 -6 -2 0 0 -1 -6 -8 -9 -9 -8 -5 -3 -4 -4 -3 1 2 5 6 7 7 7
2 4 2 1 0 0 -0 -0 1 -1 0 2 1 0 -2 -4 -4 -5 -4 -3 -3 -2 -1 -0 1 -0 -1 -1 -3 -5 -7 -8 -6 -0 -1 -4 -3 2 3 5 7 7 7 8
0 2 3 3 2 2 3 3 2 1 1 3 4 2 -3 -4 -4 -4 -4 -3 -3 -1 -0 -0 -1 1 0 -3 -5 -5 -8 -7 -1 -1 -3 -3 -2 3 8 7 7 8 8 9
-0 2 1 3 -0 -1 0 1 0 -0 -2 1 2 3 -3 -3 -4 -4 -2 -1 2 2 3 3 2 0 0 -2 -3 -4 -4 -5 -1 1 -2 -0 3 7 9 8 8 9 10 10
-0 0 0 2 1 0 2 1 1 0 3 0 3 2 -4 -4 -3 -2 1 3 4 4 4 3 2 1 1 -2 -3 -3 -4 -2 4 3 3 5 7 9 9 9 9 9 8 7
-1 1 -0 2 -0 0 0 2 1 2 4 2 2 1 -1 -2 -1 1 3 5 4 4 3 2 2 2 3 0 -1 -2 -3 2 6 6 5 6 7 9 9 9 8 8 7 6
-0 1 1 1 1 1 1 2 2 1 2 3 1 2 1 1 1 3 5 4 4 4 3 4 1 4 3 2 1 1 4 6 7 7 7 8 8 8 7 7 6 5 5 3
0 -0 1 1 1 2 2 2 1 1 1 2 2 3 -0 1 3 5 4 4 4 4 4 3 4 4 3 3 2 5 5 4 4 4 5 6 6 6 4 5 4 2 1 -1
2 1 1 2 1 2 4 3 2 2 2 2 5 4 3 4 5 4 3 2 -0 -1 2 4 3 4 3 4 3 3 3 3 3 3 4 5 3 4 3 1 -1 -2 -2 -5
2 2 2 1 1 5 4 1 1 1 2 4 4 4 3 4 5 3 2 -2 -2 0 3 3 3 3 2 2 2 3 2 2 3 3 2 1 0 1 -3 -3 -2 -1 -1 0
2 3 4 3 3 2 2 3 4 5 4 3 4 3 2 5 5 4 1 -3 -2 -3 2 3 2 1 1 1 1 1 1 2 2 -0 -3 -4 -4 -4 -2 -1 0 0 1 0
3 4 4 3 5 5 2 1 2 3 6 3 2 2 4 4 6 4 0 -2 -2 -3 -3 -2 -2 -2 -1 -0 -0 -0 -2 -3 -4 -5 -4 -1 0 0 1 0 0 -0 -0 -1
6 5 4 4 4 3 -0 -1 3 6 5 2 2 2 5 4 4 1 1 -1 -4 -3 -3 -2 -3 -2 -2 -2 -4 -3 -4 -3 -2 -1 -0 -0 -0 0 0 0 -0 -2 -8 -11
5 4 5 4 6 5 -1 3 5 3 2 2 2 2 4 3 2 0 2 1 -1 -2 -3 -3 -3 -4 -3 -3 -4 -3 -1 -0 -0 -0 -0 -0 -0 -0 -2 -9 -10 -8 -11 -14
4 2 4 3 3 -1 -1 2 2 1 1 1 1 1 4 3 1 1 2 2 1 0 -1 -1 -1 -1 -1 -1 -0 0 0 0 -0 -1 -0 -0 -1 -7 -10 -3 -7 -14 -15 -15
2 1 3 3 2 0 1 1 1 1 1 0 0 1 4 4 2 -0 1 2 2 1 1 1 1 1 0 0 1 1 0 0 0 -1 -6 -9 -9 -9 -10 -14 -15 -16 -15 -14
3 2 3 3 2 2 1 1 1 1 1 0 1 2 4 4 2 1 -1 2 2 1 1 1 1 1 1 1 1 1 1 -2 -7 -7 -6 -8 -11 -13 -15 -16 -16 -15 -14 -17
2 2 3 2 1 2 2 1 1 1 1 0 1 2 4 3 2 1 -1 -2 -0 1 1 1 1 1 1 1 -3 -7 -8 -9 -8 -9 -11 -12 -14 -17 -17 -17 -14 -14 -19 -21

GFSCGP_850_dewp_045.txt.gz
Dewpoint
8 8 9 7 5 4 4 5 5 4 1 -0 0 0 -1 -2 -2 -2 -2 -1 1 0 -0 -0 -0 -0 -0 -0 -2 -2 -1 -1 -1 1 10 11 11 11 11 12 11 10 10 11
9 8 7 7 6 7 6 6 5 2 -0 -0 0 0 -2 -2 -3 -3 -3 -2 -2 -1 -1 -1 -1 -1 -1 -0 0 -0 -2 -2 -1 -1 1 8 10 10 10 10 10 10 11 11
6 6 6 6 7 8 6 5 3 3 1 -1 0 -0 -2 -4 -4 -4 -4 -4 -4 -4 -4 -5 -5 -5 -5 -3 -1 -1 -0 -0 -1 -1 -0 5 10 11 10 10 10 11 11 11
3 0 5 5 6 5 4 1 1 1 2 4 0 4 1 -2 -3 -4 -5 -6 -6 -6 -6 -5 -5 -5 -5 -5 -5 -3 -2 -2 -1 0 0 -0 1 7 10 9 9 9 10 9
4 2 4 5 4 1 2 0 1 1 1 1 1 3 1 -4 -4 -6 -7 -7 -7 -7 -7 -7 -7 -6 -5 -5 -4 -4 -4 -3 -2 -2 -1 1 4 5 7 8 9 9 8 9
1 0 0 1 1 0 -0 -0 0 1 0 2 0 1 -1 -4 -5 -6 -7 -6 -7 -7 -7 -7 -6 -6 -6 -6 -6 -5 -5 -4 -4 -3 -3 -2 1 6 8 10 9 9 8 8
3 2 -0 -0 2 0 -0 1 1 0 1 2 1 2 -0 -3 -4 -5 -5 -6 -4 -5 -6 -5 -4 -3 -3 -4 -5 -5 -5 -5 -5 -5 -4 -4 -3 1 3 4 7 9 8 8
5 5 1 -0 1 2 1 1 1 0 2 2 0 3 -1 -4 -6 -6 -4 -3 -4 -3 -2 -3 -2 -0 -0 -1 -2 -3 -4 -4 -4 -4 -4 -4 -4 -4 -2 1 2 5 8 8
2 2 1 0 0 0 2 1 -1 1 -1 0 1 -2 -7 -6 -5 -5 -4 -4 -3 -2 -1 -1 -0 -1 -1 -0 -4 -3 -4 -7 -8 -7 -7 -6 -5 -3 -4 -4 0 2 5 7
1 4 2 1 0 0 0 -0 2 -2 -3 1 -1 -0 -4 -5 -5 -4 -4 -4 -2 0 3 3 3 2 2 -1 0 -2 -4 -5 -6 -7 -7 -7 -6 -3 -2 -4 -3 2 3 6
0 2 4 2 2 3 2 2 1 1 1 2 2 -0 -4 -4 -4 -3 -3 -2 1 3 3 4 4 4 3 2 1 -1 -4 -5 -5 -6 -8 -6 -2 -1 -2 -3 -0 3 7 8
-0 1 5 3 -0 -1 0 1 0 -0 -1 2 2 2 -3 -3 -4 -3 -3 0 3 4 4 4 3 2 2 2 1 0 -2 -3 -4 -4 -5 -2 -0 -1 1 0 5 8 8 10
-1 0 0 1 0 -0 2 1 -0 -0 -1 -1 1 1 -4 -4 -3 -3 -0 2 5 5 4 3 3 2 2 2 2 1 -1 -3 -3 -4 1 5 3 2 5 6 9 9 9 9
-1 -0 -1 1 -1 0 1 2 1 0 1 1 1 1 -2 -2 -2 -1 1 5 5 4 4 4 4 2 2 3 2 2 0 -0 -0 1 6 7 8 7 8 8 8 8 8 8
-1 1 0 1 1 0 1 2 2 0 1 1 0 1 -1 -1 -1 -0 5 4 3 3 3 3 4 4 3 3 3 2 2 4 5 6 7 6 7 7 8 7 7 7 7 7
-1 0 0 0 0 1 2 1 1 2 2 2 2 2 -1 -2 0 5 4 3 2 -0 -0 3 4 4 4 3 3 3 3 4 3 4 5 5 5 6 6 6 5 4 4 4
1 1 0 2 -0 1 3 2 1 1 1 1 2 1 0 3 3 5 3 1 -2 -2 -2 2 3 4 3 3 3 2 2 2 2 3 1 1 1 2 2 2 0 -1 -1 -1
1 1 1 1 0 4 1 0 -0 1 0 1 1 1 2 3 4 4 3 -0 -3 -3 -1 3 3 3 3 2 2 2 2 2 2 2 2 1 1 2 -0 0 0 -1 -1 -1
1 3 4 4 2 0 2 1 3 3 3 1 2 2 3 2 5 4 2 -1 -3 -3 -2 0 1 1 0 0 1 1 2 2 2 1 2 0 0 -1 -2 -2 -2 -1 -1 -0
3 3 4 4 4 5 2 1 2 2 5 2 3 2 2 4 6 5 1 -0 -3 -3 -2 -1 -1 -1 -2 -1 -1 -1 -2 -3 -3 -3 -2 -3 -3 -2 -1 -1 -0 -0 -0 -0
6 6 5 3 3 2 -1 -1 3 6 5 2 2 2 2 4 4 3 2 1 -1 -3 -3 -2 -2 -2 -2 -2 -4 -4 -4 -4 -5 -5 -4 -2 -1 -1 -0 -0 -0 -0 -0 -0
5 5 4 4 4 3 -1 3 5 3 2 1 1 1 2 3 3 1 2 2 0 -2 -3 -3 -3 -3 -2 -2 -5 -2 -1 -2 -2 -1 -1 -1 -0 -0 -1 -1 -2 -2 -7 -12
5 2 3 2 2 -1 -1 -1 0 1 1 1 1 0 1 3 3 1 2 2 1 0 -1 -1 -1 -1 -4 -3 -0 -0 -1 -1 -0 -0 -0 -0 -1 -2 -3 -3 -7 -13 -14 -15
2 1 2 3 2 1 1 2 2 1 1 1 0 0 1 3 3 1 2 2 2 1 1 1 0 0 0 -0 0 1 0 0 0 -0 -3 -7 -8 -6 -8 -12 -15 -15 -15 -14
2 2 3 3 2 1 1 1 1 1 1 1 0 1 1 3 4 1 1 2 2 1 1 1 1 1 1 1 1 1 0 -1 -6 -7 -7 -8 -9 -12 -15 -16 -16 -15 -14 -16
1 2 2 2 1 1 2 3 2 1 2 1 0 1 2 4 4 2 -1 1 1 2 1 1 1 2 1 1 0 -1 -5 -7 -5 -6 -9 -10 -13 -16 -17 -16 -14 -14 -18 -21

GFSCGP_850_dewp_048.txt.gz
Dewpoint
7 8 8 6 5 3 4 4 5 4 1 0 2 1 -1 -2 -2 -2 -2 -2 -1 -0 -0 -0 -0 -1 -1 -0 -1 -2 -2 -1 -0 0 1 6 11 10 10 10 10 11 12 11
8 8 7 5 5 5 5 6 6 2 -0 0 1 0 -1 -2 -2 -2 -2 -2 -2 -1 -1 -2 -3 -2 -2 -1 -1 -1 -0 -1 -1 -1 -0 0 1 3 8 10 10 9 11 11
7 7 6 7 7 7 7 6 5 4 1 -1 0 0 -2 -4 -4 -5 -5 -4 -4 -4 -6 -6 -5 -5 -5 -5 -4 -2 -1 -0 -0 -0 -1 -1 1 1 5 8 9 9 9 10
3 5 7 7 7 7 8 2 2 1 2 4 -0 4 0 -2 -4 -5 -6 -6 -6 -7 -6 -7 -7 -7 -6 -6 -5 -6 -6 -2 -2 -1 -0 -0 -0 1 0 2 5 8 9 9
5 6 7 7 6 4 3 0 1 0 1 1 1 2 -0 -4 -6 -6 -7 -3 -3 -6 -6 -4 -5 -6 -6 -5 -5 -5 -5 -5 -4 -2 -2 -1 0 1 2 3 4 7 9 9
2 0 1 1 1 0 -0 -0 -0 -0 0 2 0 1 -3 -5 -4 -5 -5 -3 -3 -3 -3 -4 -3 -1 -1 -2 -4 -5 -5 -4 -4 -3 -3 -2 -2 -2 0 4 6 6 8 9
3 2 0 -0 1 -0 -0 3 5 -0 1 1 0 1 -2 -3 -4 -4 -5 -3 -2 -1 -1 -1 -2 -1 -0 -0 -0 -1 -1 -2 -4 -4 -4 -4 -4 -3 -2 -0 1 4 6 7
4 6 2 -0 1 2 1 1 2 -1 2 1 0 3 -3 -4 -6 -4 -4 -3 -1 -0 2 2 2 1 -1 -1 -1 -1 -3 -3 -4 -4 -3 -3 -3 -3 -3 -2 -0 1 3 4
2 3 1 0 -0 0 2 1 -1 1 -1 0 -0 -3 -9 -5 -5 -5 -4 -3 -2 1 2 4 4 3 2 1 0 0 -1 -2 -5 -7 -8 -8 -7 -6 -5 -4 -3 -2 0 1
0 4 2 1 -0 0 0 -0 1 -2 -1 0 -3 -2 -6 -5 -4 -3 -3 -3 -2 1 3 4 4 3 3 2 1 2 0 0 -3 -5 -5 -6 -7 -7 -7 -4 -2 -2 -3 -0
-0 2 4 2 2 2 1 2 1 0 0 0 0 -5 -5 -5 -4 -3 -3 -2 -0 3 5 5 4 3 2 1 1 2 2 1 -1 -2 -3 -4 -5 -6 -8 -3 -2 0 -1 -0
-1 2 5 3 -0 -1 0 1 -0 -1 -0 2 2 0 -4 -4 -4 -3 -3 -1 2 5 4 4 4 3 2 2 2 2 2 2 0 -1 -2 -3 -4 -4 -0 0 -1 1 4 5
-1 -0 1 3 1 -0 2 0 -1 -1 -2 -1 1 -1 -4 -4 -4 -3 -2 -0 5 4 3 3 3 3 4 4 4 3 2 2 1 -1 -2 -0 -2 3 5 5 4 5 6 8
-1 -1 -0 1 -0 0 1 2 -0 -1 -0 0 0 -0 -2 -3 -3 -3 -1 4 4 3 1 2 3 4 4 4 3 3 1 1 2 3 5 3 5 7 7 7 7 7 7 7
-1 0 -0 0 0 -0 1 1 1 -1 0 0 -0 1 -1 -2 -2 -2 -0 5 3 1 1 2 2 3 4 3 3 3 2 2 3 3 4 5 5 6 6 6 6 7 6 6
-1 2 0 -0 0 1 2 1 1 1 1 1 1 1 -2 -2 -1 2 5 4 2 -1 -0 1 2 3 3 3 3 3 2 3 3 3 3 4 4 5 5 5 5 5 5 4
1 1 0 0 -0 1 3 2 1 1 1 1 3 0 -2 1 2 4 4 3 -1 -2 -1 2 2 3 3 2 2 2 2 3 2 2 2 2 3 3 3 3 2 1 2 1
1 1 1 1 0 3 -2 -0 -1 -0 -1 -1 -1 -1 -1 -0 2 4 4 1 -1 -2 -1 -1 -0 -0 1 1 1 2 2 2 1 1 0 -0 -0 1 0 -0 -1 -1 -3 -3
-0 2 3 3 2 -0 1 2 1 2 3 0 -0 -0 1 2 4 4 3 1 -1 -2 -2 -2 -2 -2 -1 -0 1 1 1 1 0 0 -0 -0 -0 1 -0 0 -0 -1 -1 -0
3 1 1 3 3 4 0 1 2 2 6 1 2 2 2 3 5 3 2 1 -0 -2 -2 -2 -2 -2 -1 -0 -1 -2 -2 -2 -2 -1 -1 -1 -1 -1 -1 -1 -1 -1 -1 -1
5 5 5 3 3 2 -1 -1 3 6 5 2 2 2 2 3 3 3 2 2 0 -1 -2 -2 -2 -2 -2 -2 -4 -3 -4 -4 -4 -3 -3 -2 -1 -1 -1 -1 -1 -1 -1 -1
3 4 4 4 4 3 -2 3 5 3 2 1 1 1 1 2 3 2 2 2 1 0 -1 -2 -3 -3 -2 -3 -4 -1 -2 -2 -2 -1 -1 -1 -1 -1 -1 -1 -1 -2 -9 -14
4 2 3 1 1 -2 -1 -1 1 1 1 1 1 1 0 1 3 2 2 2 1 2 1 -0 -1 -3 -2 -1 -0 -0 -1 -1 -1 -1 -1 -1 -1 -1 -4 -9 -13 -14 -15 -15
2 1 3 3 1 1 1 1 2 1 1 1 1 1 1 1 3 2 2 3 2 1 2 1 1 1 0 0 0 0 -1 -1 -0 -1 -3 -5 -6 -8 -12 -14 -15 -15 -15 -14
2 1 3 3 1 1 1 1 2 3 2 1 1 1 1 2 3 2 1 3 2 2 1 2 2 1 1 0 0 -0 -1 -1 -4 -6 -7 -8 -11 -14 -15 -16 -16 -15 -15 -18
1 1 2 2 1 2 2 2 2 3 2 2 1 1 0 2 3 3 1 1 2 1 1 2 1 1 1 1 -0 -3 -5 -7 -6 -7 -9 -11 -14 -16 -17 -16 -14 -17 -20 -21

GFSCGP_850_dewp_051.txt.gz
Dewpoint
7 7 7 6 5 3 3 4 5 4 1 1 2 2 0 -1 -1 -1 -1 -1 -1 -1 -1 -1 -1 -1 -1 -0 -0 -1 -1 -1 0 2 3 3 3 6 10 9 9 9 10 11
8 7 5 5 4 4 4 5 5 3 0 0 1 1 -1 -2 -2 -2 -2 -2 -3 -3 -3 -5 -6 -6 -5 -4 -2 -1 -0 -1 -1 -1 -0 0 2 2 3 7 8 9 9 9
6 7 5 5 6 6 6 5 4 4 1 -1 0 1 -2 -3 -5 -5 -5 -6 -6 -5 -6 -6 -7 -7 -5 -5 -5 -4 -2 -1 -1 -0 -1 -1 -0 1 2 3 4 6 8 9
5 6 7 7 7 6 8 5 2 1 3 4 -0 4 0 -3 -6 -6 -3 -3 -3 -4 -3 -2 -3 -4 -5 -5 -5 -5 -5 -5 -2 -1 -1 -0 -0 2 1 -1 -0 -0 2 7
5 8 7 7 7 5 6 1 1 1 1 1 1 2 -2 -5 -4 -5 -4 -2 -2 -1 -0 -1 -1 -0 0 -1 -2 -4 -5 -4 -5 -4 -2 -1 -1 -1 -0 -0 1 2 2 5
2 1 3 5 4 4 -0 -0 -0 -0 1 4 0 1 -4 -4 -4 -4 -4 -2 -1 1 2 1 0 -2 -2 -1 -1 -1 -2 -2 -4 -4 -3 -1 -1 -0 1 1 2 2 2 3
5 3 0 2 4 1 0 3 5 1 3 4 0 2 -1 -4 -4 -4 -4 -3 -1 1 3 3 3 1 -0 -2 -2 -1 -1 -3 -3 -2 -3 -3 -3 -2 -0 0 1 3 2 3
6 6 2 -0 1 3 1 2 5 0 2 -0 0 2 -3 -4 -6 -5 -4 -2 -1 1 3 4 4 4 3 1 0 -0 -2 -1 -2 -3 -5 -3 -1 -1 -2 -3 -3 -3 -1 1
3 5 1 0 -0 0 1 2 -2 1 -1 2 -1 -2 -8 -5 -5 -4 -3 -1 1 1 4 4 4 4 3 2 1 1 -0 -1 -1 -1 -3 -4 -5 -5 -5 -4 -3 -3 -3 -3
1 4 2 1 -0 -0 0 -1 2 1 2 -0 -4 -3 -7 -4 -4 -3 -3 -2 -0 1 5 3 3 3 2 2 1 0 1 1 1 -0 -0 -3 -4 -4 -5 -6 -7 -7 -5 -4
-0 2 4 2 2 2 1 2 1 -0 -0 -1 -4 -7 -6 -6 -3 -3 -3 -2 -1 4 4 3 3 3 3 3 3 2 2 2 2 1 -0 -2 -3 -3 -4 -5 -6 -6 -4 -3
-1 2 5 3 -0 -1 -0 1 -1 1 1 1 1 -2 -5 -5 -4 -4 -3 -2 0 4 3 2 2 3 3 4 3 3 3 2 1 1 -0 -1 -2 -2 -3 -4 -4 -2 -1 1
-1 1 3 4 1 -0 2 0 -1 -2 -1 2 1 -4 -5 -4 -4 -4 -3 -1 3 4 2 2 3 3 3 3 3 3 2 1 1 1 0 1 0 -1 -0 2 5 5 5 6
-2 -1 0 2 0 1 2 1 -0 -0 1 0 1 -1 -3 -4 -3 -2 -2 -0 4 3 1 1 2 2 3 3 3 3 2 2 2 1 2 2 2 2 4 6 6 7 6 6
-1 1 -1 -0 -0 -0 1 2 1 -0 -0 1 -2 -0 -2 -3 -2 -2 -1 4 4 1 0 1 2 2 3 2 2 2 2 3 3 3 3 3 3 4 5 5 5 6 5 5
-1 3 0 0 0 1 2 1 1 0 1 0 0 1 -2 -2 -2 1 4 4 2 -1 -1 0 2 2 2 1 2 2 3 3 3 2 2 2 2 3 3 3 4 4 3 3
1 1 0 0 -0 1 3 2 1 1 0 1 2 0 -2 -1 -0 1 4 3 0 -1 -2 -1 -0 1 0 1 1 2 2 3 3 2 1 0 1 1 1 2 2 2 2 1
0 1 1 2 -0 3 -3 -1 -1 0 -0 -0 -0 -1 -2 -2 -0 3 4 2 -0 -1 -2 -1 -1 -1 -1 0 1 1 1 2 2 2 1 0 0 -0 -0 -0 0 -0 0 -0
-1 1 3 3 2 -1 1 1 0 1 3 -1 -1 -1 -1 2 3 4 3 1 0 -1 -2 -2 -1 -1 -1 -0 -0 -1 -1 -1 0 0 -0 -0 -0 -1 -1 -1 -1 -2 -1 -1
2 0 1 3 2 3 -1 1 0 1 6 1 0 2 2 2 4 4 2 2 1 -1 -2 -2 -2 -2 -1 -1 -3 -3 -3 -3 -2 -2 -1 -1 -1 -1 -1 -1 -1 -2 -1 -2
5 5 3 3 3 1 -2 -2 2 7 5 2 2 1 1 2 2 3 3 2 1 0 -1 -2 -2 -2 -2 -4 -3 -3 -3 -2 -2 -2 -2 -2 -1 -1 -1 -1 -1 -1 -1 -1
2 3 4 4 4 2 -3 3 5 3 1 1 1 1 1 1 2 3 2 2 2 1 0 -1 -2 -2 -2 -2 -1 -2 -2 -2 -2 -1 -1 -1 -1 -1 -1 -1 -1 -5 -10 -14
4 1 2 1 0 -3 -1 -1 1 2 1 1 1 1 1 1 1 2 2 2 2 1 1 -0 -1 -0 -0 -0 -1 -1 -1 -1 -1 -1 -1 -1 -1 -3 -9 -14 -15 -16 -15 -15
2 1 3 3 1 0 1 1 2 2 2 2 1 1 1 1 1 2 2 3 2 2 1 1 1 1 1 1 1 1 -0 -1 -1 -1 -3 -6 -11 -14 -15 -16 -16 -15 -14 -15
1 1 2 3 1 1 1 2 2 2 2 2 2 1 1 1 1 2 2 3 2 2 2 1 1 2 1 1 0 -1 -1 -2 -6 -6 -8 -11 -14 -16 -17 -16 -15 -15 -18 -21
1 1 2 2 0 2 2 2 2 2 2 1 1 1 1 0 2 2 2 2 2 2 1 2 2 2 1 0 -2 -3 -4 -6 -6 -8 -10 -14 -16 -17 -17 -14 -16 -20 -21 -23

GFSCGP_850_dewp_054.txt.gz
Dewpoint
6 8 8 5 2 0 0 2 0 1 1 1 1 2 1 -0 -1 -1 -2 -2 -2 -2 -1 -1 -1 -1 -1 -0 -0 -1 -2 -3 1 11 5 9 11 8 9 9 7 10 10 10
6 8 3 3 3 3 2 1 1 3 1 1 1 2 -0 -1 -1 -2 -2 -2 -2 -3 -3 -4 -5 -4 -4 -3 -2 -1 -1 -0 -1 4 8 1 7 9 9 7 6 8 8 8
7 6 3 3 4 3 3 2 3 3 1 -1 0 1 -1 -3 -5 -4 -5 -5 -5 -5 -2 0 -0 -4 -6 -5 -5 -4 -3 -2 -1 -0 5 10 10 10 4 2 3 4 6 7
5 5 4 4 4 2 5 4 3 3 3 3 -0 -0 -1 -5 -3 -3 -3 -2 -2 -1 0 1 1 1 -1 -1 -3 -4 -4 -4 -3 -1 -1 6 10 11 6 0 -0 1 3 4
6 6 7 5 4 3 5 3 2 1 2 3 1 2 -2 -5 -2 -2 -2 -1 0 1 2 2 2 -1 -0 -1 -1 -1 -2 -4 -4 -4 -4 -0 9 10 10 10 7 5 3 1
5 5 5 5 5 3 -0 1 0 1 2 6 2 1 -4 -4 -3 -2 -2 -1 0 2 3 4 3 2 1 -1 -1 -1 -1 -2 -2 -3 -4 -4 -3 7 10 10 10 9 8 3
5 4 4 4 4 3 1 4 7 6 8 5 -0 1 -4 -5 -4 -2 -1 -1 0 2 3 4 4 3 2 1 0 -1 -2 -2 -2 -3 -3 -1 -2 -0 8 10 11 11 10 6
7 7 4 4 4 4 5 4 6 4 2 -0 -0 -1 -4 -5 -5 -4 -3 -1 -0 1 4 4 4 3 3 2 1 0 -0 -0 -1 -1 -2 -4 -4 -1 -1 -2 5 9 10 9
7 6 0 -0 -0 1 2 5 -1 2 -0 2 -3 -3 -4 -6 -5 -4 -2 0 1 2 5 4 4 4 3 1 1 -0 -0 -0 -0 -0 -0 -1 -2 -4 -5 -4 -4 -3 -3 -2
1 6 2 0 -0 -1 1 -1 4 4 4 2 -4 -5 -6 -3 -3 -4 -1 0 1 3 5 4 3 3 4 3 3 2 2 2 1 1 1 1 0 -2 -3 -4 -4 -4 -5 -4
0 2 4 1 3 2 1 2 1 -0 -1 -3 -8 -7 -7 -3 -4 -3 -2 -1 0 4 4 3 3 2 4 3 3 3 3 2 1 1 1 0 -1 -1 -2 -2 -3 -3 -3 -3
-0 2 5 4 -0 -1 -0 1 -1 3 3 2 0 -5 -5 -6 -4 -4 -2 -0 2 4 3 1 1 2 3 3 3 3 2 2 1 1 1 0 0 -0 -0 -0 -1 -2 -3 -2
-0 2 5 4 2 0 2 0 -1 -1 2 4 -1 -4 -5 -4 -4 -3 -1 -0 3 4 1 1 1 1 2 2 3 2 2 2 2 1 1 1 2 1 0 0 1 0 1 3
-2 0 2 2 3 2 4 2 -0 3 5 1 -1 -3 -3 -4 -4 -2 -1 1 4 2 -0 -0 1 1 2 2 2 2 2 2 2 2 2 2 3 3 3 3 3 5 6 6
-0 5 2 0 0 2 2 2 1 3 2 5 -2 -2 -5 -4 -3 -2 -1 4 3 0 -1 -1 1 0 2 1 1 2 2 3 3 2 2 2 3 3 3 4 4 5 5 5
-1 4 2 3 0 1 2 1 1 1 1 0 0 1 -3 -3 -2 -1 2 4 2 -1 -1 -2 -0 -1 1 1 1 2 2 2 3 2 2 2 2 3 3 2 3 3 3 2
1 2 3 3 1 1 3 1 1 1 -0 0 2 -1 -3 -2 -1 1 3 3 0 -1 -2 -2 -1 -2 -0 0 1 1 2 2 2 2 1 2 1 1 1 1 1 1 -0 -0
1 2 2 3 1 4 -1 -1 -1 -0 -0 -1 -1 -1 -2 -1 1 3 3 2 -0 -1 -2 -1 -0 -1 -1 -0 0 0 0 0 1 1 1 1 1 0 -0 0 -0 -0 -1 -1
-1 1 3 4 3 0 -0 0 1 1 1 -2 -1 -1 -0 2 3 4 3 2 1 0 -1 -1 -1 -1 -1 -1 -1 -2 -2 -1 -0 -0 -0 -0 -0 -1 -1 -1 -1 -1 -1 -1
0 -0 2 3 3 1 2 2 1 -1 7 1 -1 0 2 2 4 5 3 2 1 1 0 -1 -1 -2 -1 -2 -3 -3 -2 -2 -1 -1 -1 -1 -1 -1 -1 -1 -1 -2 -2 -2
3 3 3 2 2 -0 -3 -3 2 8 6 2 2 2 2 2 2 3 3 2 1 1 0 -1 -2 -2 -2 -3 -2 -3 -2 -2 -1 -1 -1 -1 -2 -2 -2 -2 -2 -1 -1 -2
2 3 4 2 2 3 -3 2 4 3 2 2 2 1 2 1 1 2 2 2 1 1 -0 -1 -1 -2 -2 -1 -2 -2 -1 -2 -1 -1 -1 -1 -2 -2 -2 -2 -3 -8 -13 -15
2 0 1 0 -0 -3 -1 -0 0 1 2 2 1 1 1 1 1 2 2 2 2 1 0 -1 -1 -0 -1 -1 -1 -1 -1 -1 -1 -1 -1 -1 -1 -4 -12 -15 -15 -15 -15 -15
2 1 1 2 -0 -1 -1 1 2 2 2 2 2 1 1 1 1 2 2 2 2 1 1 0 0 0 0 0 0 -0 -0 -0 -1 -1 -3 -8 -14 -15 -16 -16 -15 -15 -16 -19
1 1 2 2 1 1 1 2 2 2 2 2 2 1 1 1 1 1 2 2 2 2 1 1 1 1 1 0 -0 -0 -1 -1 -4 -7 -11 -14 -16 -17 -17 -15 -15 -17 -21 -21
1 1 3 2 0 1 1 2 1 1 2 2 2 2 1 1 1 1 2 2 2 2 2 1 1 1 1 -1 -1 -2 -4 -6 -6 -9 -13 -16 -17 -17 -15 -15 -19 -21 -22 -26

GFSCGP_850_dewp_057.txt.gz
Dewpoint
7 8 8 4 0 -2 -3 -1 -4 -3 1 1 -0 -0 -3 -2 -1 -2 -2 -3 -4 -4 -4 -2 -1 -1 -0 -0 1 1 1 1 2 5 10 13 9 2 7 10 12 14 14 13
8 6 5 1 -1 -1 -0 -1 -1 -0 -0 0 -1 0 -1 -2 -2 -3 -3 -3 -3 -3 -3 -3 -3 -3 -3 -3 -2 -0 1 1 1 0 4 9 9 4 3 6 9 10 12 12
5 5 5 6 2 1 -0 1 -1 1 1 -0 0 1 -1 -3 -4 -4 -4 -5 -4 -4 -3 -1 0 0 -1 -0 -3 -4 -2 -0 1 1 2 5 10 11 12 11 10 9 10 12
5 4 6 6 4 1 1 -2 -1 2 2 -1 -0 -4 0 -3 -3 -3 -4 -5 -3 -1 0 1 2 2 2 -0 -2 -3 -4 -5 -4 -1 1 2 6 9 11 11 12 11 8 5
6 5 7 4 3 0 1 2 2 2 3 3 2 1 -1 -4 -2 -2 -3 -2 0 1 2 2 3 3 4 -0 -1 -1 -0 -1 -3 -4 -4 -3 -0 4 9 10 11 11 11 10
5 5 6 5 3 2 3 2 2 2 3 6 3 -0 -1 -3 -3 -2 -2 -1 0 2 3 3 4 4 4 4 1 -1 -1 1 2 -2 -3 -3 -3 0 6 9 10 10 11 11
4 4 5 4 5 2 3 5 8 8 8 6 -0 2 -2 -6 -4 -3 -2 -1 1 2 3 4 4 4 4 4 3 2 2 2 2 1 -1 -2 -3 -2 -2 5 8 9 10 10
8 7 4 4 5 6 6 5 7 6 6 3 -1 0 -3 -5 -3 -2 -1 0 1 2 4 4 4 4 4 4 3 1 1 1 2 3 3 3 3 -1 -1 -0 2 7 9 9
7 7 4 4 4 4 6 6 0 1 -1 1 -2 -3 -4 -5 -4 -4 -1 0 1 2 4 4 3 4 4 4 4 2 2 3 4 3 4 4 5 5 2 2 3 3 4 6
3 7 3 2 3 1 4 0 5 6 5 1 -2 -5 -5 -4 -3 -4 -1 0 1 2 4 3 3 3 4 4 3 3 3 3 3 2 3 3 3 1 -0 -1 -2 -2 -1 -0
1 2 4 1 3 3 2 3 1 1 0 -1 -6 -6 -7 -5 -4 -3 -2 -0 1 3 4 3 2 2 3 3 3 3 2 2 2 1 1 1 1 1 1 1 -1 -1 -2 -2
0 2 5 4 -0 -1 -0 1 0 5 3 1 0 -2 -7 -5 -5 -4 -2 0 1 4 3 1 1 2 3 2 2 2 2 2 2 1 1 1 1 1 1 1 1 1 1 0
-1 3 5 4 2 0 2 1 -1 -1 4 5 -0 -2 -6 -6 -4 -3 -1 0 3 3 2 1 1 1 2 1 2 2 2 2 2 2 2 2 2 2 2 3 3 2 2 3
-2 1 3 3 5 3 4 2 0 4 6 0 -2 -2 -3 -4 -4 -2 -1 0 3 3 1 0 1 2 1 1 1 1 2 2 2 2 2 2 2 3 3 3 3 4 4 4
-1 6 2 0 0 3 3 2 2 5 2 6 -2 -3 -3 -5 -3 -2 -1 2 3 2 0 -0 0 0 0 0 0 1 2 2 2 2 2 2 2 2 3 3 3 4 4 4
-0 5 3 4 0 1 3 1 1 1 1 -0 -1 -1 -4 -3 -2 -0 1 3 3 1 -0 -1 -1 -1 -0 -0 1 1 2 2 2 2 2 1 2 2 2 3 3 2 2 2
1 3 4 4 0 1 3 1 0 0 -0 -0 2 -1 -3 -2 -0 1 2 4 2 0 -1 -1 -2 -2 -1 -0 1 1 1 1 1 1 1 1 1 1 1 1 1 1 1 1
1 1 2 3 1 5 2 -1 -2 -1 -1 -1 -2 -2 -2 -1 0 2 4 3 1 -0 -1 -1 -2 -2 -1 -1 -1 -0 -0 -0 -0 0 1 0 0 -0 -0 -0 -1 -1 -1 -1
-2 -0 2 4 3 1 -2 -1 0 1 1 -2 -1 -2 -1 1 2 2 3 1 -0 -1 -1 -1 -2 -1 -1 -1 -1 -1 -1 -1 -0 -0 -0 -1 -1 -1 -1 -1 -1 -1 -1 -1
-0 -1 2 2 4 3 3 1 -1 -1 5 -1 -2 -1 1 2 4 5 3 2 1 1 0 -1 -1 -1 -1 -1 -2 -2 -2 -1 -1 -1 -1 -1 -1 -2 -2 -2 -2 -1 -2 -2
2 2 3 2 2 -0 -3 1 2 7 7 2 2 2 2 2 2 3 2 2 2 1 -0 -1 -1 -1 -1 -2 -2 -2 -2 -1 -1 -1 -1 -2 -2 -2 -2 -2 -2 -2 -2 -4
2 2 2 1 3 3 -3 -1 4 3 2 2 2 2 2 2 2 2 1 1 2 1 -0 -1 -0 -1 -1 -1 -2 -1 -1 -1 -1 -1 -1 -2 -2 -2 -2 -2 -6 -13 -15 -15
1 -1 0 -0 0 -2 0 1 2 2 2 2 2 2 2 1 1 2 2 2 2 2 0 -0 -0 -1 -1 -1 -1 -1 -1 -1 -1 -1 -1 -1 -2 -8 -15 -15 -15 -15 -15 -16
-1 -2 0 2 -1 -2 -0 0 2 2 2 2 2 2 2 1 1 2 2 2 2 2 1 -0 -0 -0 -1 -1 -1 -1 -1 -1 -1 -1 -2 -7 -14 -16 -16 -16 -15 -15 -18 -20
-1 0 1 0 -1 1 1 1 2 2 2 2 2 1 1 1 1 2 2 2 2 2 1 0 0 0 0 -0 -0 -0 -1 -1 -2 -4 -10 -15 -16 -17 -16 -15 -16 -19 -21 -22
-1 -0 1 1 -1 -1 1 2 2 1 1 1 1 1 1 1 1 2 2 2 2 2 2 1 1 1 1 0 -0 -1 -1 -3 -6 -9 -13 -16 -17 -17 -15 -15 -20 -21 -23 -28

GFSCGP_850_dewp_063.txt.gz
Dewpoint
5 6 6 5 5 3 5 4 3 2 0 2 2 2 1 -1 -2 -2 -2 -2 -2 -3 -3 -3 -3 -3 -3 -3 -3 -2 0 2 2 4 4 9 10 10 9 11 10 10 10 10
7 6 4 3 4 4 2 4 4 0 0 1 2 3 1 -0 -2 -2 -2 -2 -2 -3 -3 -3 -2 -2 -2 -2 -1 -1 -0 0 1 1 1 2 4 6 9 9 9 11 10 9
6 4 3 4 4 5 3 1 1 2 1 -0 0 1 0 -2 -2 -2 -2 -2 -2 -3 -3 -2 -2 -2 -2 -2 -3 -3 -2 -2 -1 0 1 1 1 2 4 6 9 10 10 8
5 4 4 5 4 3 5 -1 -0 2 2 4 -0 2 -1 -1 -2 -3 -3 -3 -3 -3 -1 0 1 -0 -1 -1 -1 -2 -3 -3 -2 -1 0 1 1 1 2 5 11 11 10 8
7 5 6 6 5 4 2 -1 2 2 2 2 2 2 -0 -1 -1 -2 -4 -5 -5 -0 0 1 1 2 2 1 -1 -1 -1 -1 -2 -2 -4 -4 -3 -1 1 2 4 6 10 11
5 4 5 5 5 6 5 2 2 2 4 6 4 2 -0 -0 -1 -2 -2 0 1 2 3 3 4 4 4 3 2 1 -1 -1 -0 -0 -1 -1 -3 -3 -3 -3 -2 0 4 9
5 5 4 5 5 5 5 3 5 6 5 5 0 3 1 -3 -3 -2 -1 0 1 3 3 4 4 4 3 2 2 2 1 1 1 1 2 2 2 1 0 -2 -2 -3 1 7
4 7 5 4 5 7 6 2 4 5 6 5 -1 4 0 -4 -3 -2 -1 0 2 3 4 4 4 3 3 2 2 2 1 1 1 2 2 2 2 3 3 3 1 1 1 2
5 5 4 4 5 5 7 5 1 2 -0 2 1 -2 -3 -1 -0 -0 1 1 1 3 4 4 3 3 3 2 2 2 2 2 1 1 2 3 3 4 4 4 3 3 2 0
4 5 4 5 5 4 5 3 4 2 1 4 1 -0 -0 0 -0 -1 -0 0 1 3 4 4 3 3 2 2 3 2 2 2 2 2 1 1 1 2 2 2 1 1 0 -0
3 4 6 5 6 7 5 6 4 2 1 2 1 -1 -6 -1 -2 -2 -0 0 2 2 4 3 3 2 2 3 2 2 2 2 2 1 1 1 1 1 1 1 1 1 1 0
1 4 6 6 4 4 4 5 3 4 4 0 -0 0 -6 -4 -4 -3 0 1 1 3 4 4 2 1 2 3 2 2 2 2 2 1 1 1 1 1 1 1 2 2 2 2
0 3 4 4 2 2 5 4 4 1 3 2 1 -0 -6 -3 -2 -1 -0 -0 1 3 4 3 1 1 2 2 1 2 2 1 1 2 1 2 2 2 2 2 2 2 2 3
-1 2 2 3 2 2 3 3 1 2 3 2 1 -2 -2 -2 -3 -3 -1 0 3 3 3 2 1 1 2 2 1 1 1 1 2 2 2 2 2 1 2 2 3 2 2 2
1 1 0 2 3 2 3 2 2 1 1 1 -0 -2 -3 -3 -3 -3 -1 2 3 3 2 1 0 1 1 1 1 1 1 1 2 2 2 1 1 1 2 2 3 2 2 2
1 2 1 2 1 1 1 1 2 1 1 1 1 0 -5 -5 -3 -1 -0 3 3 3 1 0 -0 0 0 0 0 1 1 1 1 1 1 1 1 1 2 2 2 1 1 1
2 1 1 2 0 1 1 1 1 2 1 0 2 -1 -2 -2 -0 0 1 3 3 2 1 0 -0 -1 -1 -0 0 1 1 1 1 1 1 1 1 1 0 0 0 0 -0 -1
1 1 1 1 1 3 -3 -2 -1 1 0 -0 -0 -2 -2 -1 0 1 2 3 3 1 1 0 -1 -1 -1 -1 -0 -0 0 0 0 0 0 0 0 -0 -1 -1 -1 -1 -1 -1
-1 1 2 3 1 -1 2 -1 -0 1 1 -1 -1 -2 -2 1 2 2 3 4 2 1 1 0 -1 -1 -1 -1 -0 -0 -0 -1 -0 0 0 -1 -1 -1 -1 -1 -1 -2 -2 -2
-1 -1 1 2 3 5 3 -1 -2 -0 4 -1 -2 -2 -2 2 4 4 3 3 1 1 1 0 -0 -0 -1 -1 -1 -1 -1 -1 -0 -0 -1 -1 -2 -2 -1 -2 -2 -2 -3 -5
2 1 2 2 3 1 1 0 -0 6 4 -0 -2 -2 2 3 3 4 3 3 2 2 2 1 0 -0 -0 -1 -1 -1 -1 -1 -0 -1 -1 -2 -2 -2 -2 -2 -4 -14 -15 -15
2 3 3 3 4 3 1 -0 4 3 2 2 2 2 2 2 2 2 2 1 1 2 2 1 -0 -0 -0 -1 -1 -1 -1 -1 -1 -1 -2 -2 -2 -2 -3 -11 -16 -15 -16 -18
1 -1 -0 1 1 -2 -2 1 2 2 2 2 2 1 1 1 2 1 2 2 1 1 2 1 0 -0 -1 -1 -1 -1 -1 -1 -1 -2 -2 -2 -2 -8 -15 -16 -15 -16 -18 -19
-1 -2 -0 -0 -0 -1 1 2 2 2 2 2 2 2 2 2 2 2 2 2 2 1 2 2 1 -0 -1 -1 -1 -1 -1 -1 -1 -2 -1 -3 -12 -16 -16 -16 -16 -17 -19 -21
-1 -1 -0 0 -1 -0 1 1 1 2 2 2 2 2 2 1 1 1 1 2 2 2 1 2 2 0 -0 -1 -1 -1 -1 -1 -1 -2 -4 -10 -15 -17 -17 -16 -16 -18 -21 -23
-1 0 2 2 0 -0 1 0 2 2 1 1 1 1 1 1 1 1 1 2 2 2 2 2 2 1 -0 -0 -1 -1 -1 -1 -2 -3 -8 -14 -16 -17 -17 -16 -16 -19 -22 -23

GFSCGP_850_dewp_066.txt.gz
Dewpoint
7 7 6 5 5 4 5 4 5 3 1 3 3 3 1 -0 -2 -1 -2 -1 -1 -2 -3 -3 -3 -3 -3 -3 -3 -1 2 3 3 4 6 7 10 11 12 12 12 12 12 12
7 6 3 4 4 4 5 4 4 1 1 2 2 3 1 0 -1 -2 -1 -1 -1 -2 -3 -3 -3 -3 -3 -3 -3 -3 -2 -0 1 1 3 4 3 4 5 7 10 11 11 10
6 4 3 4 5 6 4 5 3 2 1 -0 2 3 2 0 -1 -1 -2 -2 -2 -2 -3 -3 -2 -2 -2 -2 -2 -1 -1 -1 -0 0 1 1 1 2 2 3 4 7 9 11
6 3 4 5 5 4 5 0 1 2 3 5 0 5 -1 0 -1 -2 -2 -2 -2 -3 -3 -2 -2 -2 -2 -2 -3 -3 -3 -3 -3 -2 -2 -1 0 1 2 2 2 2 3 6
6 5 5 6 5 2 3 -1 1 2 3 2 2 2 -0 -2 0 -1 -3 -3 -3 -2 -1 -0 0 0 -1 -1 -2 -2 -2 -2 -2 -3 -3 -3 -2 -1 0 1 1 2 4 8
5 4 5 5 5 5 4 2 2 3 3 5 3 2 1 -0 -1 -2 -3 -4 -5 1 2 2 2 1 1 1 0 -1 -1 -1 -1 -1 -1 -1 -2 -3 -3 -4 -4 -3 -2 1
6 5 4 5 5 4 4 3 6 7 8 5 2 3 1 -3 -3 -3 -1 -0 1 2 3 3 3 3 2 2 2 1 1 1 1 1 1 1 0 -0 -0 -1 -1 -3 -2 -2
6 7 5 4 5 6 6 2 4 5 6 4 -0 5 2 -3 -3 -3 -1 1 2 3 3 3 3 3 3 2 2 2 1 1 1 1 1 2 2 2 2 2 2 1 0 -0
4 5 4 4 4 5 7 6 1 0 -0 2 1 -0 -3 -1 -1 -1 -0 1 3 3 3 4 4 3 3 2 2 2 1 1 1 1 1 2 2 3 3 4 4 4 3 3
3 5 4 4 4 5 6 3 4 1 2 4 2 -0 1 1 1 1 1 2 3 3 4 4 4 3 3 2 2 2 2 2 2 2 1 1 1 1 1 1 2 2 1 1
2 2 5 5 6 7 6 6 3 2 0 2 2 0 -5 -0 -0 1 1 1 1 3 4 4 3 3 2 2 2 2 2 2 2 2 1 1 1 1 1 1 1 1 1 1
3 3 6 5 4 4 4 5 2 4 2 -1 -1 -1 -6 -3 -2 -1 -0 0 1 2 4 4 3 2 2 2 2 2 1 1 2 2 1 1 1 1 1 1 1 1 2 1
1 3 3 5 3 4 6 5 4 1 0 -0 0 -3 -4 -4 -3 -1 -0 1 1 2 4 3 3 2 1 2 2 2 1 2 1 1 1 1 2 2 2 2 2 2 2 2
-0 2 1 2 2 2 4 5 3 3 2 3 2 -1 -3 -2 -1 -0 0 1 1 3 3 3 3 1 1 1 2 2 1 1 1 1 2 2 2 2 1 1 2 2 2 2
-1 0 0 2 3 1 2 4 3 2 4 4 2 -1 -3 -2 -2 -2 -1 -0 2 3 3 3 2 1 1 1 1 1 1 1 1 1 2 1 1 1 1 2 2 2 2 2
0 2 -1 1 2 0 1 2 2 1 0 1 1 1 -3 -4 -4 -3 -2 0 3 3 3 2 1 0 0 1 1 0 1 1 1 1 1 1 1 1 1 2 2 2 2 2
1 1 0 1 0 0 1 1 1 2 0 0 1 -1 -3 -3 -1 -1 -0 1 2 3 2 1 1 0 0 0 0 0 1 1 1 1 1 1 1 1 1 0 1 1 0 -0
1 0 1 1 -0 1 -4 -2 -1 1 1 -0 -1 -2 -2 -2 -2 -1 -0 1 3 3 2 1 1 0 -0 -1 -1 -0 0 0 1 0 0 1 0 -0 -0 -0 -0 -0 -1 -1
-1 1 2 2 1 -1 -0 -0 -0 1 0 -1 -1 -1 -2 -1 1 2 2 2 3 3 2 1 1 -0 -1 -1 -0 -0 -0 -0 -0 -0 0 0 -1 -1 -1 -1 -1 -2 -2 -2
-1 -1 0 1 3 4 1 -0 -2 -1 2 -1 -1 -1 -0 2 3 2 2 3 3 2 1 1 1 -0 -1 -1 -1 -0 -1 -1 -0 -0 -0 -1 -1 -1 -1 -2 -2 -2 -3 -8
2 2 2 2 1 1 -2 0 -0 4 2 1 -1 -2 -0 2 2 3 3 3 2 2 2 2 1 0 -0 -0 -1 -1 -1 -1 -1 -1 -1 -1 -1 -2 -2 -2 -6 -15 -16 -17
2 3 3 2 3 2 0 1 3 2 2 0 -1 -1 2 2 2 3 3 3 2 2 2 2 1 -0 -0 -1 -1 -1 -1 -0 -0 -1 -1 -1 -2 -2 -2 -11 -16 -16 -18 -20
1 -1 0 0 1 -3 -0 -1 1 2 2 2 2 2 2 1 2 2 2 2 1 1 1 2 1 -0 -0 -1 -1 -1 -1 -0 -1 -1 -2 -2 -2 -4 -12 -16 -16 -17 -19 -21
-1 -2 -0 -0 -1 -2 -0 1 2 2 2 2 2 2 2 2 2 2 2 2 2 2 1 2 2 1 -0 -1 -1 -1 -1 -1 -1 -2 -2 -2 -3 -11 -16 -16 -16 -17 -19 -21
-1 -1 -1 -0 -1 -1 -0 1 1 2 2 2 2 2 2 2 2 2 2 2 2 2 2 1 2 2 0 -0 -1 -1 -1 -1 -1 -2 -2 -2 -11 -16 -16 -16 -16 -16 -18 -21
-1 -0 1 1 -1 -1 -1 -1 1 2 2 2 2 1 1 1 1 1 1 1 2 2 2 2 1 2 1 -0 -0 -1 -1 -1 -1 -1 -2 -6 -13 -16 -17 -17 -16 -17 -19 -22

GFSCGP_850_dewp_069.txt.gz
Dewpoint
6 6 4 5 5 4 4 4 5 3 2 4 4 3 1 -0 -1 -1 -1 -1 -0 -1 -1 -2 -2 -3 -3 -3 -2 -2 1 9 9 12 13 12 13 13 13 13 13 13 13 13
7 5 2 3 4 4 4 4 5 2 2 3 3 3 1 1 0 -1 -2 -1 -1 -1 -2 -3 -3 -3 -3 -3 -3 -3 -2 1 2 3 4 5 7 8 9 10 11 12 13 13
6 5 3 4 5 5 5 4 4 3 1 0 2 3 2 1 0 0 -1 -2 -2 -1 -2 -3 -3 -3 -3 -2 -2 -2 -2 -1 -0 -0 0 1 3 5 5 4 4 6 8 9
6 3 4 5 6 4 5 2 2 2 3 5 1 6 1 1 1 -1 -0 -1 -2 -2 -2 -2 -3 -3 -2 -2 -2 -2 -2 -2 -2 -2 -1 -0 0 1 1 2 2 2 2 2
6 5 5 5 5 2 3 1 1 2 3 2 2 4 2 -2 2 0 -1 -1 -2 -2 -3 -2 -2 -2 -2 -2 -2 -2 -3 -3 -2 -2 -2 -2 -2 -2 -2 -1 -0 0 1 1
5 4 4 5 4 3 3 2 2 3 3 5 3 3 3 -1 -2 -2 -2 -2 -2 -3 -2 -1 -0 -0 -0 -0 -0 -1 -2 -2 -1 -0 0 0 -0 -1 -2 -3 -3 -3 -3 -3
6 5 5 4 5 4 3 3 6 6 7 6 2 3 2 -2 -4 -3 -3 -3 -3 -1 0 1 1 1 1 1 1 1 1 0 0 -0 -0 -0 -0 -0 -0 -0 -1 -1 -1 -1
7 7 5 4 4 4 3 2 4 6 6 5 1 4 2 -2 -3 -3 -4 -3 -4 1 2 1 2 3 3 3 2 1 1 1 1 1 1 1 1 1 2 2 2 2 2 1
5 6 4 5 4 4 5 6 -0 1 -0 2 2 -0 -3 -2 -2 -3 -1 -1 -0 2 3 3 3 3 3 2 2 1 1 1 1 1 1 1 2 2 2 3 3 3 3 3
2 6 4 5 4 4 5 3 4 0 2 4 2 1 -0 -1 -1 -1 1 3 3 3 3 4 4 3 3 2 2 2 2 1 1 1 1 1 1 1 1 1 1 1 1 1
1 2 5 5 6 5 7 6 3 2 -0 2 2 0 -4 -4 -2 -0 1 2 3 3 3 4 4 3 3 2 2 2 2 2 1 2 2 1 1 1 1 1 1 1 1 1
1 2 5 6 3 4 5 5 2 3 2 -1 -1 -0 -6 -5 -2 -0 1 1 2 3 3 3 4 3 3 2 2 2 2 2 1 2 2 1 1 1 1 1 1 1 2 2
2 3 5 5 4 4 6 5 3 1 -1 -0 1 -0 -5 -4 -2 0 0 1 2 2 3 4 3 3 3 2 2 2 2 1 2 2 1 1 1 1 1 1 2 2 2 2
-0 1 1 2 1 3 6 6 4 2 2 2 0 -1 -4 -3 -2 -1 0 1 1 2 2 3 3 3 2 2 2 2 1 1 1 1 1 1 1 1 1 1 1 2 2 2
-1 2 0 2 2 1 2 4 5 2 3 3 2 1 -2 -4 -2 -1 -1 -0 2 2 3 3 3 3 2 1 1 1 1 1 1 1 1 1 1 1 1 1 1 2 2 2
-1 1 -1 1 1 0 1 2 4 4 3 3 2 1 -4 -4 -3 -1 -0 1 1 2 2 2 3 2 1 1 1 1 1 1 1 1 1 1 1 1 1 1 1 2 2 2
-0 1 -1 -1 0 -0 -0 -0 2 3 0 1 3 2 -3 -4 -3 -2 -2 -1 -0 0 2 2 2 2 1 0 1 1 0 0 1 1 1 1 1 1 1 1 1 1 1 0
-0 -1 -0 1 -1 0 -3 -2 -2 1 1 -0 -1 -2 -3 -4 -4 -3 -3 -4 -2 1 2 2 2 1 1 0 0 0 -0 0 0 0 1 1 1 1 0 0 0 -0 -0 -1
-1 0 2 2 0 -1 -1 -0 -0 0 -0 -1 -0 -1 -3 -2 -1 -0 -1 -1 -0 1 2 2 1 1 0 -0 -1 -1 -0 -0 -0 0 -0 0 0 -0 -1 -1 -1 -1 -2 -2
-1 -1 0 1 3 3 -1 -0 -2 -2 2 -0 -1 -1 -2 1 3 1 1 1 2 3 2 1 1 1 -0 -0 -1 -1 -0 -0 -0 -0 -0 0 -0 -1 -1 -1 -2 -2 -2 -10
2 2 1 2 1 0 -2 -1 -1 2 0 2 -1 -1 -1 2 0 -1 1 2 3 2 2 1 2 1 0 -0 -0 -0 -0 -1 -1 -1 -1 -0 -1 -1 -2 -2 -2 -9 -15 -18
1 3 3 1 2 1 -1 0 2 0 2 1 -1 -1 -1 1 2 3 3 2 2 2 2 2 2 1 0 -0 -0 -1 -1 -1 -1 -1 -1 -1 -1 -2 -2 -3 -14 -16 -18 -20
1 -1 1 0 0 -4 -2 0 -0 2 2 2 1 -0 -1 2 2 2 2 2 1 1 1 1 1 2 0 -0 -1 -1 -1 -1 -0 -1 -1 -1 -1 -2 -3 -14 -15 -16 -18 -20
-1 -2 -1 -1 -2 -2 -2 -1 -0 2 2 2 2 2 2 1 2 2 2 2 2 2 2 1 1 2 1 -0 -1 -1 -1 -1 -0 -1 -1 -1 -2 -3 -10 -15 -15 -16 -18 -20
-1 -2 -1 -1 -2 -1 -1 -1 0 2 2 2 2 2 2 2 3 4 4 5 4 3 2 2 1 1 2 1 -0 -1 -1 -1 -1 -1 -2 -2 -2 -6 -14 -16 -16 -16 -17 -19
-1 -0 0 0 -2 -2 -2 -1 -0 1 2 2 2 2 2 1 1 1 1 1 1 1 2 2 2 1 1 1 1 -0 -1 -1 -1 -1 -2 -2 -3 -11 -16 -16 -17 -16 -17 -19

GFSCGP_850_dewp_072.txt.gz
Dewpoint
3 5 5 5 4 3 4 4 5 3 4 5 6 6 2 7 5 5 4 1 -1 -1 -1 -2 -2 -2 -1 0 2 5 7 10 12 13 12 13 13 13 13 13 13 12 12 13
6 5 3 4 4 3 4 4 4 3 3 4 4 5 4 3 3 2 0 -0 -1 -1 -1 -1 -2 -2 -3 -3 -3 -2 -1 0 4 10 10 12 12 11 10 10 11 12 12 12
5 5 3 4 5 5 4 4 4 4 3 1 4 6 6 4 4 1 -0 -1 -2 -2 -1 -2 -3 -3 -3 -3 -3 -3 -2 -2 0 2 2 3 3 4 6 8 9 10 10 9
6 4 4 5 6 4 6 2 2 3 4 7 2 7 4 3 2 0 0 -0 -0 -2 -2 -2 -3 -3 -3 -2 -2 -2 -2 -2 -2 -1 -1 -1 -1 0 1 2 3 3 3 3
6 5 6 6 5 2 4 1 2 2 2 2 2 5 3 -2 2 1 -0 -0 -1 -1 -2 -2 -2 -3 -3 -2 -2 -2 -2 -2 -2 -2 -2 -2 -2 -2 -2 -1 -1 -1 -0 0
4 3 4 4 3 3 1 2 2 3 3 6 3 4 4 0 -2 -3 -2 -1 -1 -1 -2 -2 -1 -1 -2 -1 -1 -1 -2 -2 -2 -2 -2 -2 -1 -1 -1 -2 -2 -3 -3 -3
6 6 5 3 5 4 1 3 5 6 5 6 1 3 3 -1 -4 -4 -4 -4 -2 -1 -2 -2 -1 -0 -0 0 0 -0 -0 -0 -0 -0 -0 -0 -0 -0 0 0 0 -0 -0 -0
7 7 5 4 3 4 3 2 3 5 6 5 1 5 2 -2 -3 -3 -4 -4 -4 -2 -2 -1 0 1 1 1 1 1 1 1 0 0 0 1 1 1 1 2 2 2 2 2
5 6 4 5 4 3 5 6 -1 0 -0 1 2 0 -3 -4 -3 -3 -3 -2 -3 -3 -1 1 2 2 2 2 2 1 1 1 1 1 0 0 1 1 1 2 2 2 2 2
2 6 4 4 4 4 4 1 4 0 2 4 2 1 0 -3 -3 -3 -1 1 -1 -0 3 3 3 3 3 2 2 2 1 1 1 1 1 1 1 1 1 1 1 1 1 1
1 3 6 4 5 5 6 5 3 1 0 3 3 0 -4 -4 -6 -4 -2 1 1 1 3 3 3 3 3 3 2 2 2 2 2 1 1 1 1 1 1 1 0 0 0 1
1 2 5 5 3 3 4 5 2 2 2 -1 -1 0 -6 -5 -5 -3 -0 1 2 3 3 3 4 3 3 3 2 2 2 2 2 1 1 1 1 1 1 1 1 1 1 2
1 2 5 5 3 3 5 5 3 0 -0 -1 2 2 -6 -4 -2 -0 0 1 3 3 4 4 4 3 3 3 2 2 2 2 2 1 2 1 1 1 1 1 1 1 2 2
-0 1 1 2 1 3 5 5 5 3 6 3 1 -0 -2 -4 -3 -1 0 1 2 3 4 3 3 3 3 3 2 2 2 1 1 1 1 1 1 1 1 1 1 1 1 2
-1 2 0 0 2 1 3 4 5 6 4 5 3 1 -1 -3 -4 -3 -1 -0 1 2 3 3 3 3 3 2 2 1 1 1 1 1 1 1 1 1 1 1 1 1 2 2
-1 1 -0 1 1 1 2 2 4 4 4 4 3 3 -2 -3 -4 -3 -3 0 1 1 1 2 3 3 2 2 1 1 1 1 1 1 1 1 1 1 1 1 1 2 2 2
-1 0 -0 0 0 -0 0 0 1 3 3 4 5 3 -2 -3 -3 -3 -2 -1 -0 0 1 1 2 2 2 2 1 1 1 1 0 1 1 1 1 1 1 1 0 0 1 1
-1 -1 -1 0 -1 1 -3 -3 -2 1 2 1 1 -1 -1 -2 -3 -4 -3 -2 0 0 -0 0 2 2 2 1 1 0 0 0 0 0 0 0 1 1 1 -0 -0 -0 -0 -1
-2 -0 1 1 -0 -1 -2 -1 -0 -0 -0 -1 0 -0 -2 -3 -2 -2 -4 -2 -3 -3 -1 1 2 2 1 1 0 -0 -0 -0 -0 -0 0 0 0 0 -0 -1 -0 -0 -1 -2
-1 -1 -0 1 2 2 -4 0 -2 -2 2 -2 -1 -1 -1 0 1 -1 -2 -3 -2 -0 1 2 2 1 1 0 -0 -1 -1 -0 -0 -0 -0 -0 -0 -1 -1 -1 -1 -1 -2 -6
2 2 3 2 2 1 -3 -3 -1 2 -0 1 1 -1 -1 1 -1 -1 1 1 1 2 2 2 1 1 1 0 -0 -0 -0 -0 -1 -1 -1 -1 -1 -1 -1 -1 -2 -2 -8 -18
2 2 3 1 3 2 -4 0 1 -1 2 2 0 -1 -1 0 1 2 2 2 2 2 2 1 1 1 1 0 -0 -0 -0 -1 -1 -1 -1 -2 -2 -2 -2 -2 -2 -11 -16 -20
1 -1 1 0 0 -4 -3 0 -1 -0 2 2 1 -1 -1 1 2 2 2 2 2 2 1 1 1 1 1 0 -0 -1 -1 -1 -1 -0 -1 -1 -2 -2 -2 -2 -12 -16 -18 -20
-1 -3 -1 -1 -3 -3 -3 -3 -1 -0 2 2 2 2 2 2 2 2 2 2 2 3 2 2 1 1 1 1 -0 -1 -1 -1 -1 -0 -0 -1 -2 -2 -2 -6 -16 -16 -18 -19
-1 -2 -1 -1 -2 -2 -2 -2 -1 1 2 2 2 2 2 3 3 3 4 4 5 4 4 4 3 2 1 1 1 -0 -1 -1 -1 -1 -1 -1 -1 -2 -2 -12 -16 -16 -16 -18
-1 -1 -0 0 -2 -2 -2 -2 -1 1 2 2 2 2 2 2 2 2 2 1 1 2 2 2 2 2 2 1 1 1 0 -0 -1 -1 -1 -1 -2 -2 -4 -12 -16 -16 -16 -17

GFSCGP_850_dewp_075.txt.gz
Dewpoint
3 5 6 5 4 3 4 5 5 6 6 6 7 6 5 6 6 4 5 5 3 2 -0 -1 -1 7 9 7 7 10 10 11 12 12 12 12 12 12 13 13 13 13 13 13
4 5 3 4 4 3 4 5 5 3 5 5 6 6 4 6 5 6 6 5 3 2 1 -1 -2 -2 -1 1 -1 0 2 4 6 7 9 11 11 10 11 12 12 12 12 12
4 5 3 4 5 4 4 4 4 4 5 3 4 5 6 4 4 4 6 5 3 2 -1 -1 -1 -2 -3 -3 -3 -3 -2 -2 -2 0 3 8 7 7 9 8 9 9 10 10
5 5 4 5 5 3 5 2 3 4 6 7 4 7 6 5 5 5 4 4 3 2 -1 -2 -1 -2 -2 -2 -3 -2 -2 -2 -2 -1 1 1 1 0 0 1 2 4 5 5
6 5 5 5 5 3 4 1 2 2 3 3 3 6 4 3 5 4 5 2 2 1 0 -1 -2 -2 -2 -2 -2 -2 -2 -2 -2 -2 -2 -2 -2 -2 -2 -2 -2 -1 -0 -0
4 4 5 4 4 2 1 2 3 3 4 8 4 5 5 1 3 3 2 1 1 0 -0 -1 -2 -2 -2 -2 -2 -2 -2 -2 -2 -2 -2 -3 -3 -2 -2 -2 -2 -2 -2 -2
6 6 5 4 5 3 1 3 7 7 7 6 2 4 3 -0 -3 -3 -3 -2 -1 -1 -1 -1 -2 -2 -2 -1 -1 -1 -1 -1 -1 -1 -1 -1 -1 -1 -1 -1 -1 -0 -0 -0
6 7 6 3 4 4 2 2 4 6 6 5 1 4 2 -2 -3 -3 -3 -4 -4 -4 -2 -1 -2 -2 -1 0 0 -0 -0 -0 -0 -0 0 0 0 0 1 1 1 1 1 1
6 6 5 5 4 3 4 5 -1 1 -0 3 2 0 -3 -4 -4 -4 -3 -3 -3 -4 -2 -2 -1 0 1 1 1 1 1 0 0 0 0 0 0 0 1 1 1 1 1 1
3 7 4 4 3 4 3 1 4 2 4 4 1 1 -1 -3 -4 -5 -5 -3 -2 -3 -2 -1 2 2 2 2 2 1 1 1 1 1 1 1 1 1 1 1 1 1 1 1
1 4 6 4 5 5 5 4 2 1 0 3 3 0 -4 -4 -6 -5 -5 -4 -2 -2 -0 3 3 3 3 3 2 2 1 1 1 1 1 1 1 1 1 1 1 0 -0 -0
0 3 6 6 3 3 4 4 1 4 3 -1 -0 1 -6 -6 -5 -4 -2 -1 0 -1 2 3 4 3 3 3 2 2 2 2 2 2 1 1 1 1 1 1 1 1 1 1
1 2 5 5 3 2 5 5 1 -0 -0 1 3 2 -7 -5 -3 -1 -0 1 1 1 3 3 3 3 3 3 3 3 2 2 2 1 1 1 1 1 1 1 1 1 1 1
-1 1 1 2 1 2 5 5 3 3 5 3 2 1 -1 -3 -3 -4 -1 -1 2 2 3 3 3 3 3 3 3 2 2 2 1 1 1 1 1 1 1 1 1 1 1 1
-1 1 -1 -0 0 2 3 4 4 4 4 4 2 2 -0 -1 -2 -4 -4 -2 1 3 3 3 3 3 3 3 3 2 2 2 1 1 1 1 1 1 1 1 1 1 1 1
-2 1 0 1 2 1 2 2 3 4 4 3 2 3 -1 -1 -1 -3 -3 -3 -0 1 3 3 3 3 3 3 2 2 2 1 1 1 1 1 1 1 1 1 1 1 1 2
-1 -0 0 1 0 -0 1 0 1 3 3 3 5 2 0 0 0 -0 -1 -2 -2 -1 1 1 2 2 2 2 2 2 1 1 1 1 1 1 1 1 1 1 1 0 0 0
-1 -2 -1 -0 -1 2 -2 -3 -2 -0 0 2 2 2 -0 -0 -0 -0 -1 -4 -3 -0 1 0 1 2 2 2 2 1 1 1 1 0 0 1 0 0 1 -0 -1 -1 -1 -0
-3 -1 1 1 0 -1 -2 -1 -1 0 -0 -1 2 1 1 0 -2 -2 -3 -3 -4 -1 -0 1 0 1 2 2 1 1 0 0 0 0 -0 0 0 0 -0 -1 -1 -1 -1 -1
-2 -2 -0 1 2 1 -6 -0 -2 -2 2 -2 -1 -0 -0 -1 1 -0 -2 -2 -3 -1 -2 -2 0 2 2 1 1 0 -0 -0 -0 -0 -0 -0 -0 -1 -1 -1 -1 -1 -1 -2
1 2 3 2 3 1 -3 -4 -2 2 -0 -0 1 -0 -1 0 -1 -1 -0 -0 -0 -0 1 1 2 2 1 1 0 -0 -0 -0 -0 -0 -0 -1 -1 -1 -2 -2 -1 -1 -2 -12
1 2 2 2 4 3 -4 -0 2 -2 0 2 2 -0 -1 -1 1 1 1 2 2 2 2 2 2 1 1 1 0 -0 -0 -1 -1 -1 -1 -1 -1 -1 -2 -1 -2 -2 -6 -18
1 -1 1 -0 0 -4 -4 -0 -1 -0 0 2 2 -0 -1 1 2 2 2 2 2 2 2 1 1 1 1 2 1 -0 -1 -1 -1 -1 -0 -1 -1 -2 -2 -2 -2 -4 -14 -17
-1 -3 -1 -1 -3 -3 -3 -4 -3 -3 0 2 2 1 1 1 2 2 2 1 2 2 2 2 2 1 1 1 1 -0 -1 -1 -1 -1 -0 -1 -1 -2 -2 -2 -2 -12 -15 -18
-1 -2 -1 -1 -2 -3 -3 -2 -2 -1 0 2 2 2 2 2 3 3 3 4 4 4 4 4 4 3 3 2 1 1 0 -1 -1 -1 -1 -1 -1 -2 -2 -2 -4 -15 -15 -17
-1 -1 -0 0 -2 -2 -3 -2 -1 -1 1 2 2 2 2 2 3 3 3 2 2 2 2 2 2 2 3 3 2 1 1 1 -0 -1 -1 -1 -1 -1 -2 -2 -7 -16 -15 -16

GFSCGP_850_dewp_078.txt.gz
Dewpoint
4 5 6 3 0 -1 2 3 4 4 6 6 6 5 4 3 3 3 2 2 3 4 3 0 3 10 11 10 10 10 10 11 12 13 13 13 12 12 12 12 13 13 13 13
5 6 4 2 1 1 2 3 3 3 4 5 5 5 3 2 3 3 2 1 3 4 3 1 1 -2 10 10 7 8 10 10 10 11 12 11 11 12 12 11 12 13 12 12
5 5 3 3 3 2 2 2 3 3 5 4 4 5 4 2 3 3 3 3 3 4 4 2 -0 -0 -2 3 5 2 4 5 6 6 5 7 7 8 10 9 10 10 9 8
4 4 4 4 2 1 4 1 2 4 5 4 3 3 2 2 3 3 2 2 4 4 4 1 -2 -1 -1 -3 -2 -1 -1 -0 1 1 2 3 5 6 4 3 2 2 2 3
6 5 5 4 2 1 1 2 2 2 2 3 4 5 0 2 3 2 2 2 3 4 4 1 0 -0 -1 -2 -2 -2 -2 -2 -1 -1 -1 -1 -0 -1 -1 -1 -1 -1 -1 -1
5 4 4 2 3 2 1 2 2 3 4 6 2 3 1 1 1 1 0 1 3 4 3 2 1 -0 -1 -2 -2 -2 -2 -2 -2 -2 -2 -2 -2 -2 -2 -3 -2 -2 -2 -2
6 5 5 4 4 1 2 3 7 7 7 4 2 4 1 -1 -1 -2 -0 1 1 2 3 1 -0 -1 -1 -2 -2 -1 -1 -1 -1 -2 -2 -2 -2 -3 -2 -2 -1 -1 -1 -1
7 7 5 4 4 4 3 1 4 4 4 2 2 4 0 -2 -3 -3 -3 -3 -1 1 2 1 0 -1 -1 -2 -1 -1 -1 -1 -1 -1 -1 -1 -1 -1 -0 -0 0 1 1 1
6 6 5 4 4 3 4 5 -1 3 1 3 1 0 -3 -5 -4 -4 -4 -3 -2 -3 -3 -1 -0 1 -1 -1 0 1 0 -0 -1 -1 -0 -0 -0 -0 -0 0 0 0 1 1
4 7 5 4 4 3 3 -0 4 5 6 3 0 -0 -4 -4 -5 -6 -6 -6 -4 -1 -3 -3 1 3 2 2 2 1 1 1 0 0 0 0 0 0 0 0 0 0 0 0
2 4 6 4 5 4 4 4 3 1 1 1 -0 -3 -5 -5 -5 -4 -3 -2 -2 -0 0 2 3 3 3 2 2 2 1 1 1 1 1 1 1 1 1 1 1 1 1 0
1 3 7 7 3 3 3 3 2 4 4 2 1 -2 -6 -6 -5 -3 -2 0 2 1 2 3 3 3 3 3 2 2 2 1 1 1 2 1 1 1 1 1 1 1 1 1
0 3 6 6 3 2 4 4 2 1 3 5 3 -2 -6 -6 -3 -1 -1 0 2 -0 3 4 4 3 3 3 2 2 2 2 2 2 2 1 1 1 1 1 1 1 1 1
-1 1 2 4 3 2 4 3 3 4 7 3 2 -1 -3 -4 -3 -3 -3 -1 1 2 3 4 4 3 3 3 3 3 2 2 2 2 1 1 1 1 1 1 1 1 1 1
0 5 1 -0 -1 3 4 4 4 6 4 5 1 -1 -2 -4 -4 -3 -3 -3 -0 2 3 4 4 4 3 3 3 3 3 2 2 1 1 1 1 1 1 1 1 1 1 1
-1 4 3 4 2 2 3 2 2 3 3 3 2 2 -2 -2 -2 -1 -1 -1 -1 1 3 3 3 3 3 3 3 3 2 2 2 1 1 1 1 1 1 1 0 1 1 1
0 2 2 3 0 1 2 1 1 1 2 2 4 1 -1 -1 -1 0 0 0 -0 -1 1 3 3 2 3 3 3 2 2 2 1 1 1 1 1 1 1 1 1 1 1 1
-0 0 0 2 0 3 -2 -3 -3 -1 -1 -1 1 0 -1 -0 0 0 0 0 -0 -0 -1 1 3 2 2 3 2 2 2 1 1 1 1 1 0 1 0 1 0 0 -0 0
-3 -1 2 2 1 -1 -3 -1 -1 -1 -2 -2 -2 -1 -1 -0 0 -0 -0 -1 -2 -2 -0 1 1 1 2 2 2 2 2 1 1 1 0 0 0 0 0 -0 -0 -1 -1 -1
-2 -2 0 2 3 1 -4 -0 -2 -2 1 -1 0 1 0 -0 1 -1 -1 -1 -1 -2 -2 -0 0 1 1 2 2 2 1 0 0 0 0 -0 0 -0 -0 -0 -1 -1 -1 -1
2 2 3 2 2 -1 -3 -3 -2 1 -0 -0 2 1 -0 -0 -1 -1 -1 0 -1 -2 -1 -0 -0 0 1 2 2 1 0 -0 -0 -0 -0 -0 -0 -1 -1 -1 -1 -2 -2 -1
1 2 2 2 3 2 -3 -1 0 -2 -0 1 2 2 -0 -1 -0 1 1 2 1 1 1 1 2 2 2 1 1 1 -0 -0 -0 -0 -1 -1 -0 -1 -1 -1 -2 -2 -2 -3
1 -1 -0 -0 -1 -3 -3 -1 -1 -1 0 1 2 2 -1 -0 1 2 1 1 2 2 2 2 1 1 1 1 1 1 -0 -0 -1 -1 -1 -1 -0 -1 -1 -2 -2 -1 -2 -8
-1 -2 -1 -1 -3 -3 -3 -3 -4 -3 -3 -1 1 2 1 1 2 2 2 2 1 1 1 1 1 1 1 1 1 1 0 -0 -1 -1 -1 -1 -1 -1 -1 -2 -2 -2 -3 -13
-1 -2 -1 -1 -2 -3 -3 -3 -2 -2 -2 -1 2 2 2 2 2 2 2 2 3 4 4 4 4 3 3 2 1 2 2 1 -0 -1 -1 -1 -1 -1 -1 -1 -2 -2 -5 -14
-1 -1 0 0 -2 -2 -3 -3 -2 -1 -1 1 2 2 2 2 3 3 3 4 3 3 3 3 3 3 4 4 4 4 3 2 1 -0 -1 -1 -1 -1 -2 -2 -2 -2 -9 -14

GFSCGP_850_dewp_081.txt.gz
Dewpoint
3 5 6 3 -1 -4 -3 -1 -1 -1 2 5 5 5 3 3 3 3 3 2 2 3 4 2 3 8 10 14 14 15 14 14 15 14 14 15 14 15 14 14 14 14 14 14
5 6 5 0 -2 1 -0 3 3 3 3 4 3 3 1 1 2 2 1 1 2 2 3 2 1 3 7 10 10 13 14 13 14 14 14 14 14 14 14 14 13 14 13 13
6 5 3 2 1 3 1 1 2 3 3 3 2 3 2 1 1 1 2 1 1 2 2 3 1 1 -0 7 9 10 12 14 12 13 13 12 11 11 11 12 12 11 9 11
3 4 4 3 0 -2 1 -2 0 3 5 5 2 1 -0 1 1 0 1 2 2 1 2 4 3 -0 1 -0 6 8 6 8 8 8 9 9 10 11 12 10 9 4 5 4
6 5 5 3 0 -2 -1 -1 0 2 3 -0 3 3 -1 -1 0 0 0 1 1 1 2 4 3 -1 -1 0 -2 -2 1 0 1 3 5 6 6 4 2 1 -0 -1 -1 -1
5 4 4 3 0 0 1 1 1 0 1 5 1 2 -2 -1 -1 -2 -2 -1 0 1 2 3 2 0 0 -0 -1 -2 -2 -2 -1 -0 0 -0 -1 -1 -2 -2 -2 -2 -2 -3
5 5 4 4 3 2 0 2 6 6 6 4 -0 1 -1 -2 -3 -2 -3 -2 -1 0 2 4 2 0 0 -1 -1 -2 -1 -1 -1 -1 -1 -2 -2 -2 -2 -2 -2 -1 -1 -1
7 7 6 3 3 4 1 0 3 3 3 1 1 2 -1 -3 -3 -3 -3 -2 -2 -0 2 4 2 1 1 -1 -1 -2 -1 -1 -0 -1 -1 -2 -2 -2 -2 -2 -1 -1 0 0
5 7 4 4 3 3 3 4 -0 3 1 2 1 -2 -3 -6 -5 -5 -4 -3 -2 -2 -0 1 3 1 3 1 -1 -1 -0 -1 -1 -1 -1 -2 -2 -2 -1 -1 -0 -0 0 0
3 7 5 3 4 2 3 -0 2 5 5 1 -0 -2 -3 -5 -5 -5 -5 -6 -5 -3 -2 -2 -1 1 3 2 2 1 1 1 0 -0 -1 -1 -1 -0 -0 0 0 0 0 0
2 3 6 3 7 5 4 4 2 1 2 1 -2 -4 -6 -4 -3 -3 -3 -2 -2 -3 -1 -1 1 3 4 3 2 2 1 1 0 -0 -0 0 0 1 1 1 1 1 1 1
1 3 7 5 3 2 3 2 1 5 3 1 1 -1 -6 -5 -4 -2 -2 0 0 0 1 1 3 4 4 3 2 2 1 1 0 1 1 1 1 1 1 1 1 1 1 1
0 4 7 6 4 2 3 2 2 1 4 6 2 -2 -6 -6 -5 -2 -2 -2 0 1 2 2 3 4 3 3 2 2 1 1 1 1 1 1 1 1 1 1 1 1 1 1
-0 2 3 5 4 2 4 2 2 4 8 3 2 -1 -4 -5 -3 -3 -3 -3 -2 1 3 3 3 4 3 3 3 2 2 2 2 2 2 2 1 1 1 1 1 1 1 1
1 5 3 1 -1 4 4 3 2 5 4 5 1 -1 -3 -5 -5 -5 -4 -3 -2 0 2 3 4 4 4 3 3 3 2 2 2 2 2 1 1 1 1 1 1 1 0 1
-0 5 3 4 1 1 3 1 1 2 2 3 2 1 -3 -3 -3 -3 -3 -2 -2 -2 1 3 4 4 4 3 3 3 3 3 2 2 2 1 1 1 1 1 1 1 0 0
1 2 3 3 -0 -0 2 0 1 0 0 1 3 1 -2 -2 -2 -2 -2 -1 -0 -0 -1 2 3 3 4 4 3 3 3 3 2 2 2 1 1 1 1 1 1 1 1 1
0 1 1 3 0 3 -2 -4 -3 -2 -2 -2 -2 -2 -2 -2 -2 -1 -1 -1 0 0 0 -0 1 3 3 4 3 3 3 2 2 2 1 1 1 1 1 1 0 0 0 0
-2 -1 1 2 1 -2 -4 -4 -2 -2 -3 -4 -3 -3 -1 -0 -0 -1 -1 -0 -0 -1 -2 -2 -1 2 3 3 3 3 2 2 2 2 1 1 1 0 0 0 0 0 -0 -0
-1 -1 1 1 2 1 -3 -1 -2 -2 -0 -1 -0 0 0 -0 1 -1 0 -0 -0 -1 -1 1 1 3 3 3 2 2 2 2 2 1 1 0 0 0 0 0 -0 -0 -0 -1
2 1 2 2 2 -1 -5 -2 -2 1 1 -1 0 1 1 0 -1 0 1 1 1 0 -0 1 2 2 2 2 2 2 2 2 1 0 0 0 -0 -0 -0 -0 -1 -1 -1 -1
-0 1 1 0 2 2 -2 -2 -2 -2 -1 -1 -0 1 2 -0 -1 1 1 1 1 1 -0 1 1 1 1 1 2 2 1 1 0 -0 -0 -0 -0 -1 -1 -1 -1 -1 -2 -2
0 -3 -2 -2 -1 -3 -3 -4 -2 -2 -1 -1 0 1 2 -0 1 2 2 1 1 1 1 1 2 2 2 2 1 1 1 0 -0 -0 -1 -1 -1 -1 -0 -0 -1 -2 -2 -2
-2 -3 -1 -1 -4 -4 -4 -4 -4 -3 -2 -1 -1 1 2 1 2 2 2 1 1 1 1 1 1 1 1 1 1 1 1 1 0 1 0 -1 -1 -0 -0 -1 -1 -2 -2 -2
-1 -2 -1 -1 -2 -3 -3 -3 -3 -3 -2 -1 0 1 2 2 2 2 2 2 2 3 3 3 3 2 2 2 1 1 1 1 1 1 -0 -1 -1 -1 -0 -1 -1 -2 -1 -2
-1 -1 -0 0 -3 -2 -3 -2 -1 -1 -1 -1 1 2 2 2 2 2 3 3 3 4 4 4 4 4 4 4 4 3 3 3 2 2 2 0 -1 -1 -1 -1 -1 -2 -2 -2

GFSCGP_850_dewp_084.txt.gz
Dewpoint
3 4 5 5 3 1 3 2 4 3 5 6 7 6 5 5 4 4 4 4 3 3 4 4 5 8 11 13 13 12 13 14 14 14 14 13 13 13 13 13 13 13 13 13
4 5 4 4 2 -0 0 2 4 6 5 5 5 5 4 3 4 4 4 4 3 2 4 3 3 4 9 11 11 11 12 13 13 14 14 13 13 13 14 13 13 14 14 13
6 5 4 4 4 3 -1 -0 6 7 5 3 3 4 2 0 0 2 2 3 3 2 3 3 2 2 6 9 10 11 11 13 11 12 13 13 13 12 13 13 13 13 13 12
5 3 5 5 4 3 4 -0 2 3 4 6 2 4 1 0 2 1 1 1 1 2 1 3 3 3 3 4 9 10 11 11 10 10 8 7 9 10 12 12 11 7 6 6
5 5 5 4 3 1 3 2 2 3 5 4 4 5 -0 -0 2 1 0 0 1 1 2 2 3 3 1 2 2 8 9 10 10 10 9 9 11 11 11 12 10 6 1 -1
5 3 4 5 2 1 2 3 1 1 2 5 3 3 0 1 -0 -1 -1 -0 0 1 1 1 2 3 3 1 -1 -1 2 4 3 4 5 7 7 6 5 1 -1 -2 -2 -2
5 5 3 4 4 2 1 3 6 6 5 5 0 2 2 -2 -2 -3 -3 -2 -1 -0 0 1 3 3 1 -0 -0 -1 -1 -2 -2 -1 0 1 1 -1 -2 -2 -2 -2 -2 -2
6 6 5 4 5 4 2 2 6 4 5 3 0 2 -1 -3 -3 -3 -3 -2 -2 -1 -0 1 3 3 1 -0 -0 -1 -1 -1 -1 -1 -1 -1 -1 -2 -2 -2 -2 -2 -1 -1
6 6 4 4 5 4 3 4 -0 5 0 4 3 -0 -3 -4 -5 -3 -3 -3 -2 -3 -0 1 3 3 3 0 -0 -1 -1 -1 -0 -1 -1 -1 -1 -2 -2 -2 -2 -1 -0 -0
2 6 4 5 5 3 4 1 3 5 4 1 2 -1 -1 -4 -4 -5 -6 -5 -4 -3 -2 -1 3 2 2 1 1 -0 -0 0 0 0 -0 -1 -1 -2 -2 -1 -1 -0 -0 -0
2 3 6 5 5 5 4 4 3 2 2 4 2 -1 -4 -3 -3 -2 -1 -1 -2 -4 -3 -1 -2 1 2 2 2 1 1 0 1 0 -0 -0 -1 -1 -0 -0 -0 0 0 0
1 4 6 5 3 2 3 5 2 5 4 2 2 1 -4 -3 -2 -2 -0 0 -0 -0 -0 -0 0 2 3 3 3 3 2 1 0 0 -0 -0 0 0 0 0 1 0 1 1
1 5 7 5 3 2 4 3 3 3 4 4 3 -0 -5 -5 -5 -2 -2 -2 -1 -1 1 1 2 3 4 4 3 3 3 3 2 3 2 1 0 1 1 1 0 1 1 1
1 2 3 5 4 4 4 2 2 4 5 4 4 2 -4 -5 -4 -3 -2 -3 -3 -0 1 2 3 3 3 3 3 3 3 2 1 1 1 1 1 1 1 1 1 1 1 1
1 4 1 2 -1 4 4 3 2 3 3 4 2 1 -2 -4 -4 -4 -4 -3 -2 -2 1 2 3 3 3 3 3 3 2 2 1 2 2 2 2 1 1 1 1 1 1 1
0 5 3 3 1 1 3 2 1 2 2 3 3 3 -0 -1 -2 -2 -2 -2 -2 -2 -2 0 3 4 4 3 3 3 2 2 2 2 2 2 2 1 1 1 1 1 1 0
2 3 3 3 -0 -0 2 1 1 1 0 1 3 2 -0 -1 -2 -1 -2 -2 -1 -1 -1 -0 1 3 4 4 3 3 2 2 2 2 2 2 2 1 1 1 1 1 1 1
1 1 2 3 1 3 -1 -4 -3 -2 -2 -1 -0 -0 -1 -2 -2 -1 -1 -1 -1 -1 0 0 0 2 3 4 4 3 3 2 2 2 2 2 2 1 1 1 1 0 0 0
-2 0 2 3 2 -0 -2 -2 -2 -2 -2 -5 -4 -3 -1 -0 -1 -0 0 -0 -1 -1 -0 -1 -1 -1 2 3 4 4 3 2 2 2 2 2 1 1 1 0 0 0 0 -0
-1 -1 1 2 3 2 1 -1 -2 -2 0 -0 -0 -0 0 0 2 0 -0 -1 -1 -1 -1 -1 -2 -2 1 3 4 4 3 2 2 2 2 1 1 0 0 0 0 0 -0 -1
2 1 2 2 4 2 -2 -2 -2 1 1 -1 -0 1 1 1 0 -1 -1 1 0 0 0 -0 2 2 3 3 3 3 3 2 2 2 1 1 0 0 0 -0 -0 -1 -1 -1
1 2 2 2 3 4 -3 -2 -1 -1 -1 -1 -0 -0 1 2 0 -0 1 1 1 1 -0 1 2 2 3 3 3 2 2 2 2 1 0 0 -0 -0 -0 -1 -1 -0 -1 -1
0 -2 0 -1 0 -3 -3 -3 -3 -3 -1 -1 -0 -1 1 2 0 2 2 1 1 1 1 1 1 1 2 2 2 2 2 1 1 0 -0 -0 -1 -1 -1 -1 -0 -0 -1 -1
-2 -3 -1 -1 -3 -3 -3 -3 -3 -3 -4 -4 -3 -2 -1 2 1 2 2 1 1 1 1 1 1 1 1 1 1 1 1 1 1 0 -0 -0 0 -0 -1 -1 -0 -1 -1 -2
1 -1 -1 -0 -2 0 -0 -1 -2 -2 -2 -2 -2 -1 0 2 2 2 2 1 2 3 3 2 2 2 2 1 1 1 1 1 1 1 1 1 1 0 -1 -1 -1 -1 -2 -2
-1 -0 2 4 0 0 1 -1 -1 -1 -1 -1 -0 -1 1 2 2 2 2 2 3 3 4 4 4 4 4 4 4 4 3 3 2 2 2 2 2 1 0 -0 -1 -1 -2 -2

GFSCGP_850_dewp_087.txt.gz
Dewpoint
2 4 5 4 4 5 4 5 5 5 6 8 8 7 6 5 5 4 4 3 4 5 5 4 8 12 13 13 13 12 13 13 11 13 12 12 12 12 11 12 13 13 13 12
4 5 4 3 3 4 4 5 5 5 5 5 6 7 5 4 4 3 3 3 3 3 4 4 4 6 11 12 14 13 13 13 13 12 12 12 12 12 12 12 12 13 13 13
4 5 4 5 4 3 4 4 6 5 7 7 6 6 5 3 4 3 2 2 2 2 3 4 3 3 6 10 11 12 13 12 11 13 13 13 12 12 12 12 12 12 13 13
4 4 5 5 4 3 4 3 6 6 6 8 5 7 4 3 2 3 3 3 3 3 3 3 3 3 3 6 10 11 11 11 11 12 12 11 10 10 10 8 8 9 11 11
6 5 6 6 5 3 4 4 5 7 5 6 4 5 2 1 2 1 1 2 2 1 2 2 3 3 3 3 6 9 11 10 10 10 9 10 9 9 9 9 8 9 8 6
4 4 4 5 4 4 5 4 4 4 4 4 4 4 2 2 1 1 1 1 1 1 1 1 2 3 3 3 3 5 9 11 10 10 9 9 8 9 10 9 7 9 7 -0
3 4 3 4 3 4 6 3 6 6 4 5 1 3 2 -2 -2 -2 -1 -0 0 0 0 1 1 2 2 2 2 2 4 9 9 9 11 10 9 9 9 8 6 0 -2 -2
3 2 5 4 5 5 5 2 4 5 5 3 0 3 -0 -3 -3 -3 -3 -2 -2 -2 -0 1 1 2 3 2 1 0 0 -0 -0 1 1 2 3 3 1 -1 -2 -2 -2 -2
4 5 4 4 5 4 3 3 -0 3 1 3 2 0 -3 -3 -3 -3 -3 -4 -4 -2 -1 0 1 1 3 3 1 -0 -1 -0 -0 -1 -1 -1 -1 -1 -1 -2 -2 -2 -2 -1
3 6 4 5 4 3 3 2 2 2 3 2 3 1 -1 -4 -5 -5 -5 -5 -4 -2 -2 0 2 2 2 3 1 -0 -0 -1 0 0 0 -1 -0 -1 -1 -1 -2 -2 -1 -0
2 2 5 4 5 5 4 4 3 2 2 4 2 -1 -4 -3 -2 -1 -1 -1 -2 -5 -4 -2 -0 3 2 2 2 1 -0 -0 -0 -0 0 -0 -0 -0 -1 -1 -0 -0 0 0
1 3 5 4 3 3 3 5 4 3 3 1 1 0 -4 -3 -2 -1 -0 -1 -2 -3 -3 -2 -1 -1 2 2 2 2 1 0 -0 -0 -0 -1 -1 -1 -1 0 0 1 0 0
1 3 3 4 3 2 4 3 4 3 2 3 3 -0 -5 -3 -2 -1 -1 -1 -1 -2 -2 -2 -1 0 2 2 3 3 3 2 2 2 0 1 3 4 5 3 3 1 1 1
0 2 1 2 2 3 4 3 3 3 3 4 3 1 -2 -5 -5 -4 -2 -2 -2 -1 -1 -1 1 1 2 3 3 4 4 4 3 2 3 5 5 3 2 1 1 0 1 1
1 3 -0 1 0 3 4 3 3 2 3 3 2 2 -0 -2 -4 -3 -2 -3 -3 -2 1 0 0 0 1 3 3 4 3 3 3 2 2 1 1 1 1 1 1 1 1 1
0 3 1 1 1 1 2 2 2 2 2 3 2 3 -1 -1 -1 -1 -2 -2 -2 -2 -2 -1 -1 -1 0 2 2 3 3 3 2 2 1 2 2 2 2 1 1 1 1 1
2 2 1 2 -0 -1 0 -0 1 1 0 1 4 2 -0 -0 -0 -1 -2 -2 -2 -1 -1 -1 -0 1 0 2 3 3 2 2 2 2 2 2 2 2 2 1 1 1 1 1
1 2 2 2 0 1 -2 -4 -3 0 -0 -1 -0 -0 -1 -1 -1 -1 -1 -1 -1 -0 -1 -1 0 0 2 2 3 3 3 2 2 2 2 2 2 2 2 1 1 0 0 0
-2 0 2 2 1 -0 -2 -2 -2 -2 -1 -2 -4 -0 0 -0 -0 -1 -0 -0 -1 -1 -2 -1 -0 -0 0 3 3 4 3 3 3 2 2 2 2 2 1 1 0 0 0 0
-1 -1 1 1 3 3 -1 -2 -2 -3 -1 -1 -0 0 1 1 2 0 -1 -1 -1 -1 -1 -0 -1 -1 -1 1 3 3 3 3 3 3 2 2 2 2 1 0 0 0 0 -0
1 1 1 2 2 2 -1 -2 -2 -1 -3 -1 -0 0 1 1 1 1 -0 -1 1 1 0 0 0 -1 -2 -2 3 4 4 3 3 2 2 2 2 1 0 0 -0 -0 -0 -0
1 1 2 1 2 2 -2 -3 -3 -4 -1 -1 -1 -0 -0 1 1 1 0 1 1 1 1 0 2 3 3 3 4 4 4 3 3 2 2 2 1 0 0 -0 -1 -1 -0 -0
-1 -2 -1 -0 1 -3 -3 -4 -3 -3 -3 -3 -1 -3 -1 -1 -1 1 1 1 2 1 1 1 1 2 3 3 3 3 3 3 2 2 1 1 0 -0 -0 -1 -1 -1 -0 -0
-0 -1 -1 -1 -3 -0 0 0 -0 -0 0 -0 -1 -2 -2 -2 -2 1 2 2 1 1 1 1 1 1 1 2 2 2 2 2 1 1 1 0 -0 -0 -0 -0 -1 -0 -0 -1
0 -1 -0 -0 -0 0 1 -0 -0 -0 1 1 1 -0 1 -0 -0 2 2 2 1 2 2 2 3 2 2 1 1 1 1 1 1 1 1 0 0 1 1 -0 -0 -1 -0 -1
-1 1 2 3 1 1 1 1 1 1 1 2 2 1 1 1 1 2 2 2 2 3 3 3 3 3 4 3 3 3 2 2 1 1 1 1 1 2 2 1 1 1 -0 -1

GFSCGP_850_dewp_090.txt.gz
Dewpoint
3 4 5 4 5 5 4 4 6 7 7 6 7 7 6 7 6 7 5 5 6 6 5 6 12 12 13 13 13 13 13 13 14 14 13 13 13 12 12 12 12 11 11 11
4 4 3 3 4 4 3 5 5 6 5 6 7 7 6 8 7 7 5 4 4 4 5 4 7 9 11 12 13 13 13 13 13 13 13 14 13 13 12 11 12 13 13 13
5 5 3 4 5 5 5 5 5 7 7 6 6 6 5 5 6 6 4 3 3 3 3 4 4 6 8 10 10 12 12 12 13 11 12 13 12 12 12 12 12 11 12 12
5 4 4 5 5 3 5 3 3 7 8 9 7 8 5 3 3 3 4 3 3 3 3 3 3 4 5 6 10 11 11 12 12 12 12 12 11 12 12 11 10 11 12 12
5 6 5 6 5 3 4 4 5 6 7 7 8 7 3 0 3 2 3 3 3 2 2 2 3 3 3 4 5 9 10 11 12 11 11 12 11 11 11 10 9 10 9 7
5 4 5 5 5 4 4 5 6 6 7 8 5 6 2 2 3 2 0 2 3 2 1 2 2 2 2 3 4 6 7 10 10 10 11 11 10 10 10 9 9 8 8 9
4 4 4 4 5 4 4 5 8 8 7 5 3 5 3 -1 -2 -0 -0 -0 -0 -0 1 1 1 1 2 2 2 4 7 8 9 9 10 10 10 10 9 9 8 9 9 8
3 5 4 3 6 6 6 5 5 7 5 3 2 5 1 -3 -3 -2 -2 -2 -1 0 1 0 0 1 1 2 2 2 4 6 8 8 8 9 9 9 8 8 8 8 8 1
3 4 3 4 4 5 5 3 -0 2 1 2 1 -0 -3 -3 -3 -3 -3 -3 -3 -2 -2 -1 -1 0 1 2 2 2 1 1 2 6 7 8 8 8 7 7 5 1 -1 -1
2 4 3 4 3 3 2 1 2 2 2 3 2 2 -1 -3 -2 -4 -5 -5 -4 -3 -2 -2 0 0 1 2 2 2 1 1 0 0 1 1 2 2 0 -0 -0 -1 -1 -1
2 2 4 3 4 5 4 3 3 1 1 2 2 1 -5 -4 -4 -2 -2 -2 -3 -4 -5 -2 -1 2 2 2 2 2 1 1 0 1 0 0 1 1 1 0 -1 -1 -1 -1
2 2 3 4 2 3 3 5 2 2 2 0 1 -1 -4 -4 -2 -1 -1 -2 -3 -3 -3 -4 -3 -2 2 2 2 2 1 1 1 1 1 2 4 3 3 4 4 1 -0 -0
1 2 4 3 1 1 3 3 4 2 1 2 2 -1 -5 -3 -1 -1 -1 -1 -1 -2 -3 -3 -3 -3 -2 1 3 3 3 2 2 2 2 1 1 0 -0 2 3 3 4 4
0 2 -0 1 1 2 4 3 3 3 2 3 3 1 -2 -4 -4 -5 -3 -2 -2 -1 -2 -2 -3 -2 -2 -1 1 2 3 3 3 3 3 2 1 1 2 5 4 4 2 1
1 2 -1 1 1 2 3 3 3 2 3 3 2 2 0 -2 -3 -2 -1 -1 -2 -2 -2 -2 -2 -3 -4 -2 -1 0 3 4 4 4 3 2 1 4 4 3 2 1 1 1
0 2 0 1 0 1 2 1 1 2 2 3 2 3 -1 -1 -1 -0 -1 -2 -2 -2 -2 -1 0 -0 -1 -2 -2 -0 2 3 3 4 4 3 3 1 1 1 1 1 1 1
1 1 1 2 0 -1 1 -1 0 1 0 1 3 0 -1 -0 -0 -0 -1 -2 -2 -2 -2 -2 -1 -1 -0 1 1 1 1 2 3 3 2 2 1 2 2 2 2 1 1 1
1 2 1 1 -1 1 -2 -4 -3 -0 -0 -1 -0 -1 -1 -1 -1 -1 -1 -1 -1 -1 -1 -1 -1 -1 -0 0 2 2 3 2 3 3 2 2 2 2 2 2 2 1 1 0
-2 1 2 2 1 -1 -2 -2 -2 -3 -3 -1 -1 0 0 0 -0 -1 -1 -0 -1 -1 -2 -2 -2 -2 -1 -0 0 3 3 3 3 3 2 2 2 2 2 2 1 1 0 0
-1 -1 0 1 3 3 -3 -2 -2 -4 -0 -3 -0 0 1 1 0 -1 -0 0 -1 -1 0 -0 -1 -1 -1 -1 -1 3 3 3 3 3 2 2 2 2 2 2 1 0 0 0
1 1 1 2 2 1 -2 -2 -3 -1 -3 -2 -1 -0 0 1 -0 -0 0 0 -1 1 1 1 -1 -0 -0 -1 -1 1 3 3 3 3 3 3 2 2 2 1 1 0 -0 -0
1 1 2 1 2 2 -3 -3 -2 -5 -2 -2 -2 -2 -1 -0 -1 -1 -1 -0 0 0 1 1 -0 1 2 1 1 -0 1 3 3 3 3 2 2 2 1 1 0 -0 -1 -1
-1 -1 -1 0 0 -1 -1 -2 -0 0 0 0 1 0 -0 -1 -1 -1 -1 -0 1 1 2 1 1 2 3 3 4 3 3 4 3 3 3 2 2 1 1 0 -0 -1 -1 -1
-0 -1 -1 -1 -2 0 -0 1 -1 1 1 1 1 1 1 1 1 1 0 1 2 1 1 1 1 1 2 3 3 3 3 3 3 2 2 2 1 1 0 -0 -0 -0 -0 -0
-1 -1 0 -0 -0 -1 1 -3 -1 1 2 1 1 2 2 2 2 1 1 0 2 2 1 1 2 1 1 1 1 2 2 2 2 1 1 1 1 0 0 0 1 -0 0 -0
-1 0 0 0 0 1 0 -1 -0 1 -0 -1 1 1 1 2 2 2 2 2 2 2 2 2 3 3 3 2 3 2 2 2 1 1 1 1 0 0 1 1 1 1 1 0

GFSCGP_850_dewp_093.txt.gz
Dewpoint
2 4 4 4 5 4 3 5 7 6 6 6 6 7 7 6 6 6 6 6 7 7 9 9 11 12 13 12 12 12 11 11 11 11 11 11 11 7 12 12 12 12 12 11
3 4 2 3 3 4 4 5 5 6 7 6 7 7 7 7 7 6 6 6 5 7 5 5 8 11 11 11 12 12 12 12 11 12 10 9 8 10 12 12 12 12 12 12
4 3 2 3 4 6 5 5 6 7 7 5 6 7 6 6 7 5 5 5 5 5 5 4 5 9 11 11 11 12 12 12 12 12 11 12 13 12 12 12 12 11 12 12
5 4 3 4 6 4 6 4 6 7 8 10 7 8 6 5 5 4 4 4 5 4 4 3 4 4 4 8 9 9 9 10 11 11 11 12 12 12 13 12 11 12 12 11
5 5 5 6 6 4 5 4 6 6 7 7 8 6 5 2 4 2 2 2 2 3 3 3 3 3 3 4 5 9 10 10 10 11 11 11 10 11 12 11 11 11 11 11
5 4 5 5 5 4 4 5 6 6 7 7 8 7 5 2 2 1 -0 0 1 2 2 2 2 2 2 3 3 4 8 8 9 9 10 11 10 10 11 11 11 11 11 9
5 5 4 4 5 4 5 5 8 7 7 7 5 7 4 1 -0 -2 0 -0 -1 1 1 2 2 1 2 2 2 2 3 5 6 7 9 9 10 10 10 10 10 11 10 9
5 3 5 4 5 6 5 4 6 7 6 4 4 6 3 -4 -3 -2 -1 -1 -1 -1 0 0 0 1 1 1 2 2 3 3 4 7 8 8 9 9 9 10 10 11 10 9
3 6 3 4 4 5 4 5 0 2 1 2 3 -0 -3 -3 -3 -3 -3 -3 -2 -2 -1 -1 -1 -1 -0 0 1 2 2 2 5 7 7 7 8 9 9 9 8 7 7 8
2 5 3 4 3 4 3 -0 3 3 5 1 2 2 -1 -2 -2 -3 -4 -4 -5 -3 -2 -2 -3 -2 -1 0 1 2 2 2 3 2 2 4 7 8 10 8 8 6 5 2
1 1 3 2 4 5 4 3 2 1 1 1 3 1 -4 -4 -4 -4 -3 -2 -3 -4 -5 -4 -3 -2 2 1 1 2 2 2 2 1 1 2 4 6 5 4 4 3 1 2
2 2 2 5 2 2 3 4 1 1 2 0 0 -0 -5 -4 -4 -2 -2 -1 -2 -2 -3 -3 -4 -4 -4 2 2 2 2 2 2 2 2 2 2 3 2 2 2 1 3 3
0 1 0 1 -0 1 3 3 2 1 1 1 1 -2 -5 -2 -2 -1 -1 -1 -2 -2 -2 -3 -4 -4 -4 -4 0 2 2 2 2 2 2 3 3 1 1 3 4 4 4 2
0 1 -0 1 0 1 4 3 3 2 1 3 2 0 -2 -3 -3 -5 -3 -2 -1 -2 -2 -3 -3 -3 -3 -4 -4 -2 1 3 3 2 2 3 3 2 3 3 3 1 1 3
0 2 -1 1 1 2 3 3 3 1 3 3 2 2 -0 -1 -2 -4 -3 -2 -1 -1 -2 -3 -3 -2 -2 -3 -3 -2 -1 2 3 3 3 3 3 3 1 1 2 4 4 2
0 2 -1 1 0 1 2 1 1 2 2 2 2 3 -0 -1 -1 -1 -1 -1 -1 -2 -2 -2 -2 -1 -0 -0 -1 -1 -1 1 3 4 4 4 3 3 1 2 3 2 1 1
1 1 1 2 0 -1 -0 -1 -0 0 0 1 2 -0 -1 -1 -1 -1 -1 -1 -1 -2 -2 -2 -2 -2 -1 -1 -1 0 0 1 2 3 4 4 3 2 2 2 1 1 1 1
1 1 1 1 -1 -1 -3 -4 -3 -1 -2 -1 -1 -2 -3 -1 -1 -1 -1 -1 -1 -1 -1 -1 -2 -2 -2 -2 -1 -0 1 2 3 3 3 3 3 3 2 1 2 2 1 1
-1 0 2 2 1 -1 -2 -3 -2 -2 -2 -2 -0 -0 0 1 -0 -2 -2 -2 -1 -1 -1 -2 -1 -1 -2 -3 -3 -1 0 2 3 3 3 3 2 2 2 2 2 2 1 1
-1 -1 0 1 2 2 -4 -2 -2 -4 -0 -5 -1 -0 0 1 1 -2 -2 -0 0 -0 -1 -0 0 0 -0 -1 -1 -1 -0 2 3 3 2 3 2 2 2 2 2 2 1 1
1 0 1 2 1 1 -2 -2 -3 0 -3 -2 -1 -1 -1 0 0 -0 -0 -0 -0 -0 -0 0 1 1 -0 -1 -0 -0 -1 2 3 3 3 3 2 2 2 2 2 2 1 0
0 1 1 1 2 2 -2 -3 -2 -2 -0 -0 -0 0 1 1 1 0 0 0 -0 -1 -0 1 1 1 0 0 2 0 -0 -1 3 3 3 3 3 2 2 2 2 1 0 -0
0 -1 -0 -0 -0 -1 -0 -2 -0 0 1 1 1 1 2 1 2 2 1 0 1 0 1 1 1 1 1 2 3 3 2 0 2 3 3 3 3 3 2 2 1 1 0 -0
-1 -1 -1 -1 -2 -0 -2 0 -2 -2 -2 -0 0 -1 -1 1 1 -0 0 2 2 2 1 1 1 1 1 2 3 3 3 3 3 3 3 3 3 3 2 2 1 0 -0 -0
-1 -1 -0 -1 -1 -2 0 -2 -3 -5 -4 -3 -3 -2 -1 -1 -0 1 1 1 2 2 2 2 1 1 1 1 2 2 3 3 3 4 4 3 2 2 1 1 0 0 1 0
-1 -1 -1 -1 -1 -0 -1 -4 -5 -4 -3 -3 -3 -2 -2 -2 -2 -1 -1 1 1 1 2 2 1 1 2 2 1 1 2 2 2 2 2 2 2 2 1 0 0 1 1 1

GFSCGP_850_dewp_096.txt.gz
Dewpoint
2 3 3 2 2 2 3 5 6 6 6 6 6 6 5 6 6 6 6 6 8 10 10 9 10 10 11 11 10 10 8 8 8 9 9 5 5 7 12 12 12 12 12 12
3 4 2 2 3 4 3 5 6 7 6 6 6 6 5 5 6 6 6 6 5 8 10 10 9 9 10 11 11 11 9 9 9 8 8 9 7 8 12 12 12 12 12 11
3 3 2 4 4 5 4 5 7 7 6 6 6 7 6 5 5 6 5 5 5 5 6 5 8 9 10 10 11 11 11 11 11 9 9 8 9 10 11 11 10 12 12 12
4 2 2 4 5 4 6 4 6 7 8 9 6 7 7 6 5 4 4 4 4 5 5 4 4 5 8 9 9 11 11 11 11 11 11 11 11 11 11 9 10 12 12 12
5 5 4 5 6 4 5 5 5 6 7 7 8 8 6 5 5 3 2 3 4 4 4 4 3 3 3 4 7 9 10 10 10 11 11 10 11 11 11 11 11 12 12 11
4 2 3 5 5 5 4 4 5 6 6 6 8 6 5 3 2 2 1 1 3 3 4 3 3 3 3 3 3 3 4 8 9 9 10 10 10 10 10 10 10 11 11 12
5 5 4 4 5 5 4 3 6 6 7 6 6 6 3 1 -1 -1 -2 -2 -1 1 2 2 2 2 2 2 1 2 3 3 7 7 8 8 9 9 10 10 10 10 11 12
1 5 5 4 6 7 5 3 4 7 7 4 5 6 2 -3 -3 -2 -1 -1 -0 -0 -1 0 1 1 2 1 1 2 2 2 2 5 6 7 8 9 9 9 9 10 10 11
3 6 3 4 4 4 5 3 -0 2 1 4 4 1 -4 -4 -3 -3 -4 -4 -3 -2 -1 -1 -1 -0 0 1 1 1 1 2 2 3 4 6 8 8 8 8 8 10 10 10
2 6 3 4 3 3 2 -0 2 2 3 1 1 1 0 -3 -2 -4 -3 -3 -4 -4 -3 -2 -2 -2 -2 -2 -1 0 1 1 2 3 5 5 3 3 5 7 10 9 8 7
0 1 3 2 4 5 3 3 2 1 1 2 2 -1 -4 -3 -4 -4 -2 -1 -2 -3 -4 -4 -4 -4 -1 1 0 1 1 2 2 2 2 2 1 2 4 9 10 8 7 6
1 1 4 5 2 2 3 4 0 2 2 -0 -0 -1 -6 -2 -2 -2 -1 -1 -1 -2 -2 -3 -3 -4 -4 -3 2 2 2 2 2 2 2 2 1 2 4 6 5 4 3 2
0 1 0 1 -0 0 3 3 1 0 -0 1 -1 -2 -4 -2 -2 -2 -2 -2 -2 -2 -2 -3 -3 -3 -3 -4 -3 1 3 3 2 2 2 2 2 2 3 3 2 1 2 3
-0 0 -1 0 1 1 3 3 3 1 1 2 1 -1 -2 -2 -3 -4 -4 -2 -2 -2 -2 -2 -3 -3 -3 -3 -3 -3 -2 0 2 3 3 2 2 3 3 2 1 3 4 4
-0 2 -1 1 1 1 3 3 3 1 2 2 1 1 -0 -1 -1 -1 -2 -2 -2 -1 -2 -2 -2 -2 -3 -2 -2 -3 -2 -2 -1 1 2 3 3 3 3 2 2 3 3 2
-0 2 -1 1 -0 0 1 0 1 2 2 2 2 2 -0 -1 -1 -1 -1 -1 -1 -1 -1 -2 -2 -2 -2 -2 -1 -1 -1 -1 -0 0 1 3 4 4 3 3 2 1 2 4
1 0 0 1 -0 -1 -1 -1 -1 0 0 1 1 -1 -2 -3 -2 -2 -2 -1 -1 -1 -1 -2 -2 -2 -2 -2 -2 -1 -1 -0 0 1 2 3 4 4 4 3 1 1 2 1
1 1 1 1 -2 -3 -4 -5 -3 -1 -2 -1 -1 -2 -1 -1 0 -0 -2 -0 -1 -1 -1 -1 -2 -2 -2 -2 -2 -2 -2 -1 -0 1 2 3 4 4 4 3 2 2 1 1
-1 -0 1 1 1 -3 -2 -2 -2 -2 -2 -3 0 -0 -1 -1 -0 -2 -2 -1 -1 0 1 1 -0 -1 -1 -1 -1 -1 -3 -3 -0 0 2 3 3 4 4 3 3 1 2 2
-2 -2 -0 0 2 1 -5 -2 -2 -5 -1 -2 -1 -0 -0 -0 1 -0 0 0 -0 -0 -0 -1 -1 -0 -0 -0 0 -1 -1 -2 -1 -0 2 3 3 3 3 2 2 2 2 2
1 0 1 1 1 0 -3 -2 -3 0 -3 -1 -0 0 1 0 1 1 1 -0 -1 -1 -0 0 -1 -0 1 1 1 -0 -1 -0 -1 0 3 3 3 3 2 2 2 2 2 2
0 0 1 0 2 1 -1 -3 -1 -1 -0 -1 0 1 1 1 -0 -1 -1 -2 -2 -2 -1 -1 0 0 1 1 1 1 1 1 0 0 3 3 3 3 2 2 2 2 2 2
-0 -2 -0 -1 -1 -2 -1 -1 -1 -1 -3 -1 -1 -3 -3 -3 -1 -1 -1 -1 1 0 0 -1 -0 2 1 1 1 1 2 3 2 1 3 3 3 3 2 2 2 2 2 1
-1 -2 -1 -2 -3 -0 -1 0 -2 -5 -4 -5 -6 -4 -3 -2 -3 -2 -2 -2 -2 -1 -1 0 1 1 2 1 1 1 3 3 3 2 2 3 3 3 2 2 2 2 2 1
-2 -2 -1 -1 -2 -2 -0 -1 -4 -6 -6 -7 -5 -3 -3 -2 -2 -2 -2 -1 -1 -0 -0 -0 1 1 2 1 1 1 2 3 3 3 3 3 3 3 3 2 2 2 1 0
-2 -1 -1 -1 -2 -2 -2 -3 -6 -8 -7 -3 -2 -2 -3 -3 -2 -2 -2 -1 -1 -0 0 0 0 1 2 2 2 1 2 2 3 3 3 3 3 3 3 2 2 2 1 0

GFSCGP_850_dewp_099.txt.gz
Dewpoint
2 2 3 1 1 1 4 1 2 4 6 5 5 5 4 4 5 5 7 7 10 10 9 8 9 11 11 10 9 7 8 8 6 7 9 7 7 10 10 10 10 12 12 12
2 4 3 -0 -0 2 3 2 5 5 5 5 6 6 5 5 5 5 6 7 9 10 10 9 7 9 11 9 9 9 9 9 7 7 8 8 9 7 10 10 10 12 12 12
3 3 3 3 2 3 2 4 6 5 6 5 6 7 6 5 6 5 5 6 6 8 9 9 10 11 10 10 10 11 10 10 8 9 9 9 9 9 10 9 8 10 11 11
3 3 4 3 3 4 5 3 4 6 7 9 7 7 6 6 6 5 3 4 5 5 5 7 9 10 10 9 9 8 10 11 11 10 10 10 9 9 8 8 9 10 11 10
5 5 4 5 4 4 4 4 5 6 7 7 7 7 6 5 7 5 2 3 4 4 5 5 5 5 6 9 9 9 9 10 11 11 11 11 11 11 10 9 8 11 11 11
3 3 3 5 5 4 4 5 5 5 5 7 7 4 3 5 5 3 0 1 3 4 4 4 3 3 3 3 4 6 8 9 10 10 10 10 10 11 10 10 10 11 10 10
5 5 5 4 6 5 3 3 6 5 6 6 3 5 3 1 2 1 -0 -2 -2 4 3 3 3 3 3 2 2 3 3 4 4 9 9 9 10 10 10 10 10 10 10 10
5 7 5 4 6 6 5 2 4 6 7 5 5 5 2 -3 -2 -2 -1 -1 -1 -1 2 2 2 2 2 2 2 1 2 2 3 3 7 6 7 8 9 9 9 10 10 10
5 6 4 5 5 5 4 3 -0 2 1 5 3 1 -4 -3 -3 -4 -4 -3 -2 -1 -1 -1 -0 -0 0 1 1 0 1 1 2 2 2 5 5 7 8 9 9 9 10 10
2 7 4 3 4 4 2 -0 2 3 3 3 1 1 0 -2 -3 -3 -1 -2 -3 -3 -2 -3 -3 -2 -1 -1 -1 -0 0 1 1 2 3 4 6 6 5 4 5 7 10 11
-0 2 4 2 4 6 4 3 1 1 0 2 1 0 -4 -2 -3 -3 -1 -1 -1 -2 -3 -3 -4 -5 -4 1 0 -1 -1 1 1 2 2 3 3 2 2 2 4 9 10 10
1 1 5 5 2 2 3 4 -0 2 2 -0 -0 0 -5 -2 -1 -1 -1 -2 -2 -2 -2 -3 -3 -3 -4 -5 -0 2 2 2 2 2 2 2 2 2 1 2 7 10 9 8
0 1 1 1 -1 -0 3 3 1 -0 -0 1 0 -0 -4 -2 -2 -4 -3 -2 -2 -3 -2 -2 -3 -3 -3 -3 -4 -4 1 2 2 2 2 2 2 1 1 2 6 7 5 3
-1 0 -1 0 0 1 3 3 2 1 2 2 0 -1 -2 -1 -1 -1 -1 -2 -2 -2 -1 -2 -2 -2 -2 -2 -3 -3 -4 -3 -1 2 2 2 2 2 2 3 4 4 3 2
-1 2 -1 0 1 1 2 3 3 1 1 2 1 1 0 0 -0 -1 -2 -2 -1 -2 -1 -1 -2 -2 -2 -2 -1 -1 -2 -2 -2 -2 -1 0 3 3 3 3 3 3 2 3
-1 2 -2 1 -1 -0 1 0 1 2 2 2 2 2 -1 -2 -1 -1 -1 -1 -1 -1 -1 -1 -1 -1 -2 -2 -2 -1 -1 1 0 -0 -1 1 2 3 3 3 3 2 2 3
0 0 -0 2 -0 -2 -1 -1 -0 0 0 1 1 -1 -1 -0 0 0 -1 -0 -0 -0 0 -0 -1 -1 -2 -1 -1 -2 -2 -2 -1 0 2 2 2 3 4 4 3 3 3 2
0 0 0 1 -4 -5 -4 -5 -4 -2 -2 -2 -1 0 -0 -0 -1 -1 -1 -0 -1 -1 -1 -1 -1 -1 -2 -3 -2 -1 -0 -1 -2 -2 0 3 3 4 4 4 3 3 2 2
-2 -1 1 1 -0 -5 -2 -2 -2 -2 -1 -1 -0 -0 -0 0 -1 -2 -1 -1 -1 -1 -1 -1 -1 -1 -1 -2 -2 -0 -1 0 -1 -1 -2 0 3 3 4 4 4 3 2 2
-2 -2 -0 0 1 -3 -6 -2 -2 -5 -1 -1 -1 -0 0 0 0 -1 -2 -6 -7 -7 -5 -3 -3 -2 -1 -1 -1 -0 0 0 0 -1 -1 -1 2 4 4 4 4 3 2 2
0 -0 1 1 1 -0 -3 -3 -3 0 -4 -1 -1 -0 0 0 -1 -2 -4 -7 -9 -6 -5 -4 -1 -2 -3 -1 0 -0 0 0 0 -0 -0 0 1 3 4 4 3 3 2 2
0 0 1 0 2 -1 -2 -3 -1 -2 -1 -2 -1 -4 -3 -4 -5 -5 -5 -4 -3 -3 -2 -2 -2 -2 -3 -3 -1 1 1 1 1 1 2 0 1 3 4 4 3 2 2 2
-0 -3 -1 -1 -1 -3 -1 -1 -1 -3 -5 -3 -5 -7 -4 -3 -3 -2 -3 -2 -2 -3 -3 -2 -2 -1 -1 0 0 1 1 1 1 2 3 2 2 3 3 3 2 2 2 2
-2 -3 -2 -2 -3 -1 -1 -0 -2 -5 -7 -8 -8 -4 -3 -2 -2 -3 -3 -3 -2 -2 -1 -1 -0 -0 -1 -1 0 1 2 1 1 3 3 2 2 3 3 3 2 2 2 2
-3 -2 -2 -2 -3 -2 -1 -0 -3 -6 -9 -10 -8 -6 -3 -2 -3 -3 -3 -3 -3 -2 -2 -1 -0 -1 -0 -0 0 1 2 1 1 3 3 2 3 3 3 3 2 2 2 2
-2 -1 -1 -1 -3 -3 -2 -1 -5 -10 -11 -10 -8 -7 -6 -4 -3 -3 -3 -3 -3 -3 -2 -1 -1 -1 -1 -0 0 1 2 1 2 3 3 3 3 3 3 3 2 2 2 2

GFSCGP_850_dewp_102.txt.gz
Dewpoint
-2 3 3 3 1 -0 2 -2 -2 -1 -2 2 2 4 3 4 4 4 4 5 8 9 10 10 10 12 11 10 8 8 10 9 8 7 7 10 12 11 11 10 10 11 12 12
2 3 1 -0 -0 -0 4 2 -0 2 2 1 4 5 4 4 4 4 4 6 7 10 11 11 10 9 12 11 11 11 10 9 8 10 9 8 10 10 10 10 11 11 11 11
3 2 2 3 -0 1 3 2 0 4 4 4 4 6 6 4 5 4 5 5 7 9 11 10 8 6 9 11 11 10 9 9 8 7 10 10 9 9 10 8 9 10 9 9
4 2 3 3 1 1 2 -1 1 4 5 7 6 7 5 6 5 5 5 6 7 8 9 10 10 10 8 8 8 9 8 8 8 7 9 10 11 10 9 9 8 9 10 10
5 3 3 3 2 1 0 -0 4 4 5 5 5 5 6 5 7 6 5 5 6 6 7 9 10 10 10 10 9 8 9 7 9 11 10 10 10 10 10 9 7 8 9 8
3 3 4 4 1 2 3 4 5 4 5 7 5 5 7 7 7 7 4 4 4 6 6 5 5 5 6 9 10 10 10 9 10 11 9 10 9 10 10 10 10 9 8 8
5 5 4 4 4 4 4 7 8 6 7 6 4 4 5 3 3 4 3 2 -1 4 3 4 3 3 3 3 4 7 9 10 10 10 10 10 10 10 10 11 10 10 9 10
7 7 6 5 5 4 4 2 5 5 4 5 4 8 5 -1 -3 -0 1 -0 0 -1 1 2 3 2 2 2 2 2 3 3 6 8 9 9 9 10 10 10 9 9 10 10
5 7 5 4 4 4 3 4 -0 3 3 4 3 0 -1 -3 -3 -3 -2 -1 -0 -0 -0 -0 -0 -0 -0 0 1 2 1 1 2 3 3 5 8 7 8 8 9 9 9 10
2 8 5 4 3 3 2 -0 3 4 4 4 1 0 1 -1 -2 -2 -2 -2 -1 -1 -2 -3 -3 -3 -1 -1 -0 0 0 1 1 2 2 3 3 6 6 7 8 8 9 10
0 3 6 3 5 5 4 2 1 -0 0 -1 -0 1 -3 -2 -3 -1 -1 -1 -1 -1 -1 -3 -3 -3 -4 -1 1 -1 -1 -0 1 1 2 3 5 6 5 4 3 3 6 10
0 2 6 5 2 1 2 3 0 3 1 1 -1 1 -2 -1 -1 -2 -1 -1 -1 -1 -2 -2 -3 -3 -3 -4 -3 2 1 1 2 2 2 3 3 3 2 2 2 3 7 10
-1 1 5 3 1 0 3 3 1 0 2 3 1 2 -3 -2 -2 -1 -1 -2 -2 -1 -1 -1 -2 -2 -2 -2 -2 -2 1 3 2 3 3 3 2 2 2 2 2 5 9 10
-1 0 1 2 3 2 3 2 2 2 7 0 0 1 -0 -1 -2 -3 -2 -2 -1 -1 -1 -1 -1 -1 -2 -2 -2 -1 -2 -1 1 3 3 3 3 2 2 2 3 7 10 9
-0 3 2 1 1 2 2 2 2 4 1 3 1 1 -1 -2 -1 -1 -1 -0 -1 -0 -0 0 0 -0 -1 -2 -2 -2 -1 -0 -1 0 1 2 3 3 3 2 3 5 6 6
-1 3 1 2 -1 -0 1 -0 0 1 2 2 2 2 -1 -1 -1 -2 -1 -0 -0 -0 -0 0 -0 -1 -2 -1 -2 -2 -3 -2 -2 0 0 1 2 3 3 3 4 4 4 4
1 1 1 3 -1 -2 -0 -1 -1 -0 -0 0 -0 1 -1 -1 -1 -1 0 -0 -0 -0 0 -0 -0 0 -0 -2 -3 -3 -2 -2 -2 -3 -2 -0 1 2 3 4 4 4 4 3
0 1 1 2 -3 -1 -2 -4 -4 -2 -1 -1 0 0 -0 0 -0 -0 0 -0 -2 -2 -2 -2 -1 -0 -0 -1 -1 -1 -2 -3 -2 -1 -1 -3 -2 1 3 4 4 4 3 3
-1 -1 1 -1 -2 -3 -2 -2 -2 -2 -0 -0 0 -0 -1 -1 -1 -1 -1 -2 -4 -4 -3 -3 -2 -2 -1 -0 -0 0 -0 -0 -0 -1 -1 -1 -2 -2 2 3 4 4 4 3
-2 -2 -2 1 -1 -6 -3 -2 -2 -4 -1 -0 -1 -2 -2 -3 -2 -4 -5 -5 -5 -4 -3 -3 -3 -2 -1 -3 -1 -0 -0 -1 1 0 1 1 -1 -1 -1 3 4 4 4 3
1 1 1 0 1 -2 -4 -3 -3 -0 -4 -1 -1 -2 -3 -6 -7 -6 -4 -4 -4 -3 -3 -3 -3 -2 -2 -2 -1 -0 0 0 -1 1 1 1 1 -0 -1 0 4 4 4 3
-1 0 1 1 2 -1 -3 -2 -1 -2 -1 -2 -2 -4 -5 -5 -5 -4 -3 -3 -3 -2 -2 -1 -1 -1 -1 -0 -0 0 0 1 0 1 1 1 1 2 1 1 3 4 4 3
-0 -2 -2 -1 -3 -3 -1 -2 -1 -2 -4 -2 -5 -6 -5 -3 -3 -3 -3 -3 -4 -3 -3 -3 -2 -2 -1 -1 0 0 -0 1 1 1 2 1 2 3 2 1 3 4 4 3
-2 -3 -2 -2 -3 -2 -1 -0 -2 -3 -5 -8 -11 -8 -5 -3 -3 -3 -3 -3 -3 -2 -2 -2 -2 -2 -1 -1 -1 -1 -1 0 0 1 2 1 2 3 2 2 4 4 3 3
-3 -2 -2 -2 -3 -2 -1 -0 -1 -3 -7 -11 -10 -8 -4 -4 -4 -3 -3 -3 -3 -3 -3 -3 -3 -2 -2 -2 -1 -1 -1 -1 0 1 1 2 2 3 3 3 4 4 3 3
-2 -2 -2 -3 -3 -3 -2 -1 -1 -4 -11 -11 -9 -7 -8 -8 -5 -4 -3 -3 -4 -4 -4 -4 -3 -3 -3 -2 -2 -0 0 0 1 1 1 2 3 2 2 3 3 3 3 2

GFSCGP_850_dewp_105.txt.gz
Dewpoint
-2 2 1 -0 -0 2 1 -1 -3 -4 -10 -1 -2 1 0 1 3 3 3 4 5 7 9 9 10 11 11 10 11 10 10 9 11 11 12 11 9 9 8 6 5 9 9 11
2 2 -2 3 2 4 4 0 -1 -4 -4 -2 -2 1 -1 0 1 2 3 3 5 7 10 9 10 11 11 11 10 12 11 10 11 11 10 12 12 12 11 9 7 7 8 10
3 2 2 3 2 1 1 1 -0 5 -1 -2 -2 2 3 3 3 3 3 3 5 7 11 10 10 10 9 9 11 11 10 10 10 10 11 11 11 11 12 12 11 11 11 11
4 2 3 4 2 -1 -1 -4 2 4 2 5 1 5 5 5 5 3 2 4 6 8 10 10 9 8 8 8 11 10 9 8 10 10 10 10 10 10 10 10 10 10 10 10
5 3 3 4 0 -3 1 -1 -0 3 3 6 7 9 6 5 7 5 6 4 7 8 10 9 9 9 9 8 11 11 9 9 9 10 10 9 10 10 10 10 10 10 10 10
3 2 3 2 1 -1 0 2 5 6 6 5 5 6 8 6 7 7 4 6 7 8 8 8 8 8 9 9 9 8 9 8 8 7 8 9 8 7 8 8 11 11 10 10
5 5 3 3 3 3 4 7 8 8 8 6 5 5 8 4 3 5 5 1 6 7 8 8 9 8 8 9 9 10 9 8 9 9 8 8 6 7 7 7 7 9 9 9
7 6 5 3 5 7 5 5 7 9 8 6 4 7 7 3 3 4 3 0 3 4 4 4 4 4 3 3 6 8 8 9 9 10 10 10 10 10 10 10 10 9 10 10
7 7 4 3 3 4 3 3 0 3 1 4 6 5 4 -1 1 4 3 0 1 2 3 1 1 2 1 1 2 2 3 4 4 6 8 10 10 9 9 10 10 10 10 9
4 7 4 3 3 2 1 -1 4 5 4 4 5 7 6 1 -1 1 0 -1 -1 -0 -0 0 -1 -0 2 2 1 1 2 2 2 3 3 4 4 6 8 8 8 8 8 8
2 5 6 3 4 5 3 2 0 0 -0 -0 2 2 -2 -2 -1 -1 -1 -1 -1 -1 -1 -0 -0 0 -0 1 3 1 1 1 1 2 2 3 3 3 6 7 7 7 8 8
-0 3 6 4 1 -0 2 2 0 5 -0 -0 -0 2 -2 -2 -2 -2 -2 -2 -1 -1 -1 -1 -1 -2 -2 -2 -2 1 2 2 2 2 2 4 5 6 7 6 5 4 4 4
-1 1 6 4 2 0 1 0 -0 0 4 3 2 2 -3 -2 -2 -2 -2 -1 -1 -1 -1 -0 -1 -1 -1 -1 -2 -1 -1 -0 3 3 4 4 5 5 4 3 3 3 3 4
0 1 2 5 4 3 2 1 -0 4 7 1 1 2 -1 -2 -2 -2 -2 -2 -1 -0 -0 0 0 -0 -0 -1 -1 -2 -2 -1 -1 -1 2 3 3 3 3 3 3 3 4 8
-0 3 3 1 0 2 1 1 1 4 1 3 1 1 -0 -1 -2 -2 -1 -1 -1 -1 -1 -1 -0 -1 -1 -1 -1 -1 -3 -3 -3 -2 -1 -0 1 3 3 3 3 4 7 10
-1 3 1 1 -1 -1 -1 -1 -1 0 0 0 0 1 -2 -2 -2 -2 -1 -1 -1 -1 -1 -1 -1 -1 -1 -0 0 -2 -1 -1 -3 -3 -3 -3 -1 -0 1 2 3 3 5 9
-0 1 2 3 -2 -2 -1 -1 -1 -1 -1 -0 0 1 -2 -1 -1 -1 -0 -1 -3 -3 -4 -4 -3 -2 -1 -2 -1 -2 -1 -1 -2 -2 -2 -2 -2 -3 -1 0 2 3 4 5
-1 -0 0 1 -2 1 -1 -4 -4 -2 -1 -1 -0 -0 -1 -1 -2 -2 0 -1 -4 -7 -7 -6 -5 -5 -4 -4 -3 -2 -2 -1 -1 -1 -2 -2 -1 -0 -1 -2 1 2 3 4
-2 -2 -1 -0 -4 -4 -2 -3 -2 -2 -2 -1 -1 -1 -1 -2 -3 -3 -1 -4 -7 -7 -6 -4 -4 -3 -3 -3 -2 -2 -2 -2 -2 -1 0 1 0 1 1 -0 -1 2 3 3
-1 -2 -2 -1 -2 -7 -3 -2 -3 -4 -2 -1 -1 -2 -2 -3 -4 -6 -7 -8 -6 -4 -3 -3 -2 -2 -2 -2 -2 -2 -2 -1 -1 -1 -2 -2 -1 1 2 1 1 -0 3 3
-1 -1 -0 -3 -1 -5 -3 -2 -3 -1 -0 -1 -2 -2 -4 -5 -7 -8 -8 -7 -5 -3 -3 -4 -3 -3 -2 -2 -1 -1 -1 -1 -1 -0 -0 -1 -0 -0 0 1 2 1 2 4
-2 -2 -1 -1 0 -0 -4 -2 -2 -1 -2 -2 -2 -4 -5 -7 -8 -6 -5 -4 -4 -4 -4 -3 -3 -2 -2 -2 -2 -2 -1 -1 -0 -0 -1 -0 -0 1 2 1 2 3 2 3
-2 -3 -3 -3 -3 -3 -3 -2 -1 -2 -2 -2 -4 -6 -7 -6 -6 -5 -4 -4 -4 -3 -3 -2 -3 -3 -3 -3 -2 -2 -2 -2 -2 -1 -1 -1 0 1 2 2 1 3 2 3
-3 -3 -3 -2 -5 -4 -2 -1 -1 -2 -3 -3 -7 -10 -6 -5 -5 -5 -5 -4 -4 -3 -3 -3 -3 -3 -3 -3 -2 -3 -3 -2 -1 -1 -1 -0 0 1 1 2 2 2 2 2
-4 -3 -3 -3 -4 -3 -2 -1 -1 -2 -3 -6 -11 -11 -7 -5 -6 -6 -5 -5 -4 -3 -3 -4 -4 -4 -4 -4 -3 -3 -2 -2 -1 -0 -0 -0 -0 0 1 1 2 2 2 2
-4 -4 -3 -5 -5 -4 -3 -2 -1 -1 -3 -8 -10 -6 -6 -6 -6 -6 -6 -5 -5 -5 -4 -4 -4 -4 -4 -4 -4 -4 -3 -2 -2 -1 -1 -0 0 1 1 1 1 1 1 1

GFSCGP_850_dewp_108.txt.gz
Dewpoint
-2 2 2 1 -0 -1 -1 2 1 -1 -5 -4 -6 1 1 2 3 3 3 3 4 4 5 6 7 8 10 11 11 10 10 10 7 8 8 10 11 12 12 13 12 12 12 11
2 3 -1 -2 -0 1 3 3 2 -0 -2 -3 -1 1 -1 -1 1 2 3 3 3 4 6 10 8 9 11 11 11 11 11 9 8 7 6 6 8 9 10 10 10 11 11 11
4 2 1 2 2 2 3 2 1 3 3 -2 1 3 1 -1 -1 -0 1 2 3 4 8 10 9 10 10 9 10 11 11 10 9 8 9 8 9 11 12 10 9 8 8 8
4 1 3 3 2 1 2 -1 0 3 4 6 3 4 2 3 5 4 2 3 4 7 10 9 8 8 9 9 9 10 11 10 10 10 9 10 10 9 10 10 11 11 11 11
4 4 1 1 1 -1 -1 -0 6 3 6 4 3 6 7 6 6 5 4 4 7 7 10 9 8 8 7 8 9 11 11 10 10 10 10 10 10 10 10 10 10 10 10 11
3 2 3 2 2 1 1 4 5 4 6 8 7 8 8 7 5 6 4 6 8 9 10 9 8 6 6 8 9 11 10 10 9 8 9 8 9 9 10 9 10 10 10 10
5 4 3 3 5 3 4 5 7 8 8 9 7 7 7 6 4 5 4 5 8 9 10 8 7 6 8 9 7 7 7 7 6 8 8 7 8 7 8 9 8 9 9 9
6 4 5 4 5 5 6 7 8 9 9 9 4 7 7 5 5 5 4 5 8 9 9 9 9 9 8 8 9 9 9 9 8 7 7 8 6 9 9 8 9 8 8 7
8 6 3 4 4 4 5 6 3 8 3 7 8 7 5 4 4 3 4 6 7 6 5 3 3 4 4 4 4 6 9 10 10 10 10 9 10 9 9 8 10 9 9 8
3 6 3 3 3 4 4 1 5 7 8 8 8 7 7 5 5 3 2 2 4 2 1 1 2 3 3 3 2 2 3 4 4 6 8 9 10 9 10 9 9 9 9 9
2 5 4 3 4 4 4 3 2 1 1 2 6 7 3 4 4 3 0 -0 -1 -1 -0 -0 0 1 0 2 3 2 1 1 2 2 4 6 8 9 8 7 9 9 8 7
-0 3 6 4 1 -1 2 1 0 5 5 3 4 6 -2 -1 -1 -1 -1 -0 -0 -0 -0 -0 -0 -1 -1 -1 -1 -1 -0 2 2 2 2 4 5 6 7 9 9 8 8 7
1 2 5 4 2 1 1 0 1 1 5 2 4 6 -2 -2 -2 -1 -1 -0 0 0 0 -0 -0 -0 -1 -1 -1 -1 -2 -1 -1 0 2 3 3 4 6 7 7 6 6 6
1 2 3 4 4 3 3 1 1 4 4 3 4 1 -1 -1 -0 -1 -1 -1 -1 -1 -1 -1 -1 -1 -1 -1 -1 -1 -3 -2 -3 -2 -1 -0 2 3 3 3 3 3 3 3
1 3 1 0 1 1 -0 1 1 2 1 3 1 2 0 -2 -1 -1 -1 -1 -1 -2 -2 -2 -2 -1 -1 -1 -1 -1 -1 -1 -1 -3 -4 -3 -3 -1 0 2 3 3 3 3
-1 3 1 1 -2 -2 -1 -1 0 1 1 1 1 2 -1 -2 -2 -1 -1 -2 -3 -4 -6 -6 -6 -6 -5 -4 -4 -4 -3 -2 -1 -0 -0 -1 -1 -1 -2 -2 0 2 3 3
-0 1 2 3 -0 -2 1 -1 -1 -1 -1 0 2 0 -2 -1 -1 -1 -1 -2 -4 -5 -7 -12 -11 -11 -10 -9 -8 -8 -6 -6 -5 -4 -2 -2 -1 0 1 0 0 1 1 2
-0 -0 1 2 -2 1 -1 -3 -4 -2 -1 -0 0 -0 -1 -1 -1 -2 -0 -1 -3 -5 -9 -9 -7 -7 -8 -9 -9 -10 -10 -9 -7 -6 -5 -4 -1 -1 -0 1 1 1 2 4
-2 -1 -1 2 -2 -4 -2 -2 -2 -2 -0 -2 -0 -1 -1 -2 -3 -0 -1 -6 -7 -7 -5 -5 -6 -7 -7 -4 -4 -6 -8 -6 -4 -2 -2 -2 -2 -1 1 1 0 1 2 3
-1 -2 -1 -1 0 -3 -2 -3 -3 -4 -0 -1 -1 -2 -2 -4 -3 -4 -8 -8 -5 -4 -3 -3 -4 -4 -4 -4 -4 -4 -3 -3 -3 -4 -3 -1 -1 -1 -1 -1 2 2 1 1
-0 -0 0 1 0 -2 -2 -2 -3 0 0 -1 -2 -2 -3 -4 -6 -7 -11 -6 -5 -4 -4 -3 -2 -2 -3 -2 -3 -3 -2 -2 -2 -2 -2 -2 -1 -1 -0 -1 -1 -0 2 2
-2 -1 0 -1 0 -0 -2 -2 -1 -1 -1 -1 -2 -3 -5 -7 -11 -10 -7 -7 -5 -5 -4 -4 -5 -6 -5 -4 -3 -3 -3 -2 -3 -2 -2 -2 -1 -1 -1 -1 -0 1 1 3
-1 -2 -1 -2 -0 -3 -3 -2 -2 -2 -2 -2 -2 -4 -7 -12 -11 -7 -6 -6 -5 -5 -4 -5 -6 -6 -5 -4 -4 -4 -3 -4 -3 -3 -2 -1 -1 -1 -1 -1 -0 1 1 2
-3 -3 -2 -3 -4 -3 -3 -2 -2 -2 -2 -2 -4 -7 -13 -14 -10 -6 -6 -6 -6 -6 -8 -9 -9 -7 -5 -4 -4 -4 -4 -4 -4 -4 -3 -3 -1 -1 -1 -1 -0 0 1 2
-4 -3 -2 -3 -4 -4 -4 -2 -1 -2 -3 -3 -4 -10 -13 -10 -8 -7 -6 -7 -7 -7 -10 -10 -8 -6 -4 -5 -5 -4 -4 -4 -4 -4 -4 -3 -2 -1 -1 -0 0 0 -0 1
-3 -3 -3 -2 -5 -3 -3 -4 -1 -1 -2 -3 -6 -11 -11 -8 -9 -8 -6 -7 -7 -8 -10 -9 -7 -5 -5 -5 -5 -5 -4 -5 -5 -5 -4 -4 -3 -2 -2 -0 0 0 1 1

GFSCGP_850_dewp_111.txt.gz
Dewpoint
-0 1 1 0 0 -1 -0 1 1 -1 -0 0 -1 -2 -4 -6 -2 -0 1 -5 1 2 3 4 4 4 7 9 10 9 11 10 13 12 12 11 10 9 9 9 10 10 8 7
1 2 -0 -1 -1 -0 3 3 2 0 -1 -0 1 -1 -3 -3 -0 1 3 1 3 3 3 4 4 6 8 9 9 10 11 10 11 12 12 11 11 11 11 11 10 9 10 11
2 1 1 2 3 3 2 2 2 1 1 0 -0 1 -2 -4 -0 -0 1 1 3 3 3 5 9 10 10 9 8 10 11 11 9 10 10 11 11 10 10 11 12 12 12 11
2 1 2 3 3 2 3 -0 2 4 3 2 1 4 1 0 -0 0 1 3 3 3 5 8 9 8 8 8 9 9 8 10 9 8 7 7 6 8 8 9 10 10 10 11
3 3 4 1 0 0 1 -1 2 4 5 4 2 5 6 6 5 5 4 3 2 5 6 8 9 8 7 8 9 9 9 10 8 8 9 9 8 9 7 7 8 8 9 10
3 2 3 2 1 2 2 3 4 5 5 6 5 5 7 6 6 4 5 5 5 6 8 9 9 6 9 8 9 9 10 11 10 10 9 9 9 9 9 10 9 10 11 10
5 4 3 2 5 4 4 5 6 6 6 8 6 6 6 5 5 5 5 4 7 9 10 9 8 8 8 8 8 10 10 10 10 11 10 10 10 9 9 9 9 9 10 10
5 1 4 4 4 5 5 6 7 8 8 8 6 7 6 5 4 5 5 7 8 8 9 9 9 9 9 9 9 9 9 10 9 9 9 9 9 9 9 8 8 8 8 8
5 4 3 4 4 5 6 7 5 7 7 6 7 6 5 3 4 5 6 6 5 5 5 5 5 4 4 5 5 8 10 9 9 9 9 7 6 7 7 7 7 9 8 8
4 6 3 3 4 4 6 3 5 6 8 8 7 7 6 4 5 4 5 4 4 3 3 3 4 4 5 4 3 3 3 6 9 9 9 8 8 9 9 9 9 9 8 9
2 5 3 2 3 4 4 4 2 2 3 7 7 7 3 4 4 3 4 4 2 0 0 -0 -0 -0 0 1 3 4 3 3 3 3 4 6 7 8 8 8 9 9 9 9
0 3 3 4 1 -1 1 2 1 4 4 3 5 6 2 4 3 0 0 0 0 -0 -0 -0 -0 -0 -0 -1 -1 -1 -1 0 3 4 4 5 7 7 7 7 5 4 4 7
0 2 2 2 0 -0 3 0 1 2 2 3 4 7 -1 -1 -1 -0 0 -0 -0 -1 -1 -1 -0 -0 -0 -0 -1 -1 -2 -2 -2 -2 -1 1 3 4 5 6 7 7 8 7
1 1 2 3 2 2 2 1 1 2 2 4 3 2 0 0 0 -1 -1 -1 -1 -2 -3 -3 -3 -2 -1 -1 -1 -2 -3 -3 -3 -3 -3 -3 -2 -1 -1 1 3 4 4 4
0 2 -0 0 1 0 -1 1 1 1 1 1 2 2 -0 -1 -1 -1 -1 -2 -4 -6 -7 -9 -10 -9 -10 -11 -11 -12 -11 -8 -5 -4 -3 -3 -3 -2 -2 -1 0 1 2 3
-1 1 1 1 -2 -2 -1 -1 -0 1 1 1 1 2 -2 -2 -1 -1 -2 -3 -5 -6 -7 -9 -15 -14 -10 -9 -9 -10 -11 -11 -11 -12 -11 -10 -8 -4 -2 -2 -1 0 1 2
-1 1 1 3 -0 -2 0 -2 -1 -1 -0 1 2 0 -1 -1 -1 -1 -1 -2 -4 -5 -7 -10 -7 -6 -7 -7 -7 -6 -4 -5 -6 -6 -6 -6 -7 -7 -7 -5 -2 -1 -0 1
-0 -1 0 0 -3 -2 -1 -4 -3 -1 -0 0 0 -0 -1 -1 -1 -2 -2 -3 -2 -4 -11 -10 -8 -6 -6 -8 -9 -9 -9 -8 -8 -7 -5 -4 -3 -2 -3 -4 -4 -3 -1 -0
-2 -1 -1 0 -1 -5 -2 -3 -2 -1 -1 -1 0 -1 -1 -2 -3 -4 -4 -3 -2 -6 -18 -14 -10 -10 -12 -13 -13 -14 -14 -10 -9 -7 -5 -3 -2 -3 -3 -2 -2 -3 -1 1
-2 -2 -1 -1 -1 -3 -5 -3 -4 -4 -1 -2 -1 -1 -2 -3 0 -1 -5 -4 -10 -12 -9 -9 -13 -13 -10 -9 -9 -9 -9 -10 -11 -11 -10 -7 -5 -3 -3 -1 -1 -1 -1 -2
-1 -1 -0 0 -1 -2 -3 -3 -4 -1 -5 -2 -1 -2 -3 -4 -5 -6 -7 -10 -8 -6 -7 -9 -6 -5 -5 -6 -7 -6 -5 -6 -5 -6 -5 -5 -5 -4 -3 -3 -1 -1 -1 -1
-2 -1 -0 -1 -0 -1 -2 -2 -4 -5 -1 -2 -2 -2 -3 -4 -6 -11 -8 -7 -6 -5 -6 -5 -4 -5 -5 -4 -4 -3 -4 -4 -4 -4 -4 -4 -4 -4 -3 -2 -2 -1 -1 -1
-2 -3 -3 -2 -2 -4 -3 -4 -4 -3 -2 -2 -2 -3 -4 -7 -12 -11 -8 -6 -6 -6 -8 -8 -8 -7 -7 -5 -4 -5 -5 -5 -5 -4 -4 -4 -4 -4 -3 -3 -1 -1 -1 -1
-4 -4 -3 -4 -6 -3 -3 -3 -3 -3 -3 -3 -3 -3 -5 -12 -14 -9 -7 -7 -8 -9 -9 -8 -7 -7 -7 -7 -5 -5 -6 -6 -5 -5 -5 -5 -4 -4 -4 -3 -2 -1 -1 -0
-5 -3 -3 -3 -4 -4 -3 -3 -3 -2 -2 -2 -3 -4 -9 -14 -12 -9 -8 -9 -9 -9 -8 -8 -7 -8 -7 -9 -7 -6 -7 -7 -6 -5 -5 -6 -5 -5 -5 -4 -3 -3 -1 -1
-3 -3 -3 -3 -5 -4 -4 -5 -3 -3 -3 -3 -3 -4 -10 -13 -10 -9 -10 -10 -10 -9 -8 -8 -9 -9 -9 -11 -7 -7 -7 -7 -7 -6 -6 -6 -6 -6 -5 -5 -4 -3 -3 -1

GFSCGP_850_dewp_114.txt.gz
Dewpoint
0 0 0 -1 0 -2 -1 0 1 -1 -2 -1 0 0 -1 -2 -3 -6 -6 -6 -4 -4 -5 -4 3 3 4 3 3 6 10 9 10 10 11 11 9 12 12 10 11 11 11 11
-0 1 -1 -1 -1 0 1 2 1 -0 -1 -1 0 1 -1 -2 -3 -4 -3 -4 -4 -4 -3 4 3 3 2 2 4 8 10 9 10 9 11 11 12 11 10 11 11 11 10 11
1 -1 1 1 1 2 1 1 1 2 0 1 1 1 0 -3 -3 -3 -4 -1 1 2 2 3 2 3 3 7 8 8 10 9 9 9 12 12 12 11 10 9 10 11 11 11
2 0 1 2 2 1 2 -0 1 2 4 2 -2 2 1 4 3 -2 -3 -6 -3 -0 3 3 3 6 8 10 10 9 9 8 6 9 11 12 11 11 10 10 10 10 10 10
2 3 3 3 1 0 1 -0 1 3 6 5 2 1 4 5 5 4 3 4 2 -0 3 3 4 7 8 8 8 9 10 9 6 8 11 11 11 11 11 11 10 9 10 9
3 2 2 2 0 -0 1 5 4 5 5 5 4 3 7 6 5 4 3 5 6 3 4 5 7 8 8 8 9 9 10 9 7 10 10 10 10 8 9 9 9 10 10 10
3 3 2 2 4 4 5 5 6 5 5 5 7 6 6 4 4 5 5 5 7 7 6 8 9 9 8 7 9 9 10 9 9 9 10 9 9 8 9 8 8 9 8 8
4 2 4 3 5 5 5 5 7 8 7 7 7 6 5 4 6 6 6 6 6 6 8 8 8 8 7 8 9 9 10 10 10 10 9 10 10 10 9 10 9 9 9 9
4 3 1 3 4 5 6 7 5 7 7 5 7 6 4 4 4 5 5 4 5 6 6 6 6 6 5 5 5 8 9 9 9 9 9 9 10 9 8 8 9 9 8 8
3 5 3 3 4 4 5 4 6 6 8 6 5 6 5 4 3 4 4 5 5 4 3 4 4 5 5 5 5 4 4 8 9 9 9 10 9 9 8 8 8 8 8 8
2 4 4 2 2 3 3 4 2 2 6 7 7 7 4 3 3 4 4 3 3 2 2 1 0 0 0 0 1 3 4 5 5 5 4 8 9 9 9 9 9 10 9 9
0 2 3 2 1 -0 1 2 1 3 3 4 5 6 3 4 3 3 0 -0 -0 -0 -0 -0 -0 -0 -0 -0 -1 -1 -1 -1 -0 2 4 5 6 6 7 7 8 8 7 7
0 2 2 -2 -3 -1 2 1 1 1 1 4 4 6 -0 2 -0 -0 -0 -1 -2 -2 -2 -2 -2 -2 -2 -2 -2 -2 -2 -1 -2 -2 -2 -1 0 2 4 4 5 6 7 8
0 1 1 -1 1 1 2 1 1 0 1 3 3 3 1 0 0 -1 -1 -4 -6 -8 -10 -12 -13 -12 -13 -13 -13 -13 -12 -9 -7 -6 -5 -4 -3 -2 -2 -1 0 2 4 4
-1 1 -1 0 0 0 -1 0 1 1 1 1 2 1 0 -0 -1 -1 -2 -5 -6 -6 -7 -10 -10 -10 -9 -10 -10 -11 -10 -11 -13 -16 -18 -17 -14 -10 -6 -4 -3 -2 -1 0
-1 0 1 1 -2 -2 -2 -2 -0 0 1 1 1 1 -2 -2 -1 -2 -3 -4 -5 -6 -7 -8 -9 -9 -9 -10 -10 -11 -12 -14 -12 -11 -11 -11 -11 -11 -11 -13 -14 -9 -4 -2
-1 0 1 2 -2 -2 -0 -2 -1 -1 0 1 2 -1 -2 -1 -1 -1 -1 -2 -4 -5 -9 -12 -10 -10 -9 -10 -10 -8 -9 -8 -7 -7 -7 -7 -8 -9 -9 -8 -8 -8 -9 -11
-1 -1 -0 -0 -4 -3 -4 -4 -4 -2 -0 -0 -0 -1 -1 -1 -1 -2 -1 -2 -4 -7 -10 -10 -9 -7 -7 -8 -8 -9 -10 -9 -9 -9 -9 -9 -7 -6 -5 -4 -4 -5 -6 -6
-2 -2 -1 -2 -1 -6 -3 -3 -1 -3 -4 -1 -0 -1 -1 -2 -2 -5 -6 -6 -7 -9 -10 -10 -11 -12 -13 -12 -11 -12 -14 -13 -12 -11 -9 -7 -6 -5 -4 -3 -3 -3 -2 -3
-2 -3 -2 -1 -3 -3 -10 -4 -4 -6 -4 -2 -1 -1 -2 -3 -7 -5 -6 -5 -7 -10 -18 -19 -18 -17 -17 -18 -17 -17 -17 -17 -15 -14 -11 -8 -8 -7 -6 -5 -4 -3 -3 -2
-1 -1 -1 -1 -0 -2 -6 -3 -4 -6 -12 -2 -1 -2 -2 -4 -5 -6 -6 -5 -5 -13 -17 -14 -15 -16 -15 -15 -16 -15 -14 -12 -10 -10 -11 -10 -9 -8 -7 -7 -5 -4 -3 -3
-3 -1 -0 -1 -0 -2 -3 -3 -3 -7 -2 -2 -1 -2 -3 -4 -5 -6 -11 -15 -13 -14 -14 -15 -17 -17 -16 -14 -13 -14 -11 -8 -8 -8 -8 -9 -9 -8 -8 -6 -6 -5 -4 -3
-1 -3 -3 -3 -2 -6 -3 -5 -5 -3 -3 -2 -2 -2 -3 -4 -5 -11 -14 -13 -12 -11 -10 -10 -11 -10 -9 -7 -6 -5 -6 -5 -6 -6 -6 -6 -6 -6 -7 -6 -6 -4 -4 -3
-4 -4 -2 -4 -7 -5 -4 -4 -4 -4 -5 -5 -4 -4 -4 -4 -7 -15 -15 -14 -13 -12 -11 -9 -8 -8 -8 -7 -7 -5 -6 -6 -6 -6 -6 -6 -6 -6 -6 -6 -5 -5 -4 -5
-5 -4 -3 -3 -4 -5 -5 -4 -4 -4 -4 -4 -4 -3 -3 -5 -12 -13 -11 -10 -10 -9 -8 -6 -7 -8 -10 -8 -9 -7 -6 -6 -6 -6 -7 -7 -7 -6 -6 -6 -6 -6 -5 -5
-3 -3 -3 -4 -6 -5 -7 -6 -4 -3 -3 -3 -3 -3 -4 -8 -13 -14 -14 -13 -12 -10 -9 -8 -7 -9 -10 -9 -9 -8 -5 -6 -7 -7 -7 -7 -7 -7 -7 -7 -6 -6 -6 -5

GFSCGP_850_dewp_117.txt.gz
Dewpoint
0 -1 0 -2 -1 -2 -1 -0 0 -1 -2 -1 -0 0 -1 -2 -2 -2 -2 -3 -5 -5 -6 -8 -9 -7 -2 4 3 1 1 2 5 8 9 9 9 8 8 9 9 12 12 12
-1 1 -1 -1 -1 -0 0 1 0 -1 -1 -1 -1 0 -1 -1 -1 -2 -2 -3 -5 -6 -7 -8 -7 -5 2 4 2 1 -0 1 7 9 10 11 10 10 10 10 9 11 12 12
2 -1 0 1 1 2 1 1 1 1 -0 0 1 1 -1 1 -1 -3 -3 -4 -5 -5 -4 0 -2 4 3 1 -0 -1 -2 5 8 10 10 10 11 11 11 11 9 12 12 12
2 -0 1 2 2 1 1 -1 0 2 3 4 -1 4 -0 3 4 1 2 3 -1 -3 -2 1 4 4 2 1 5 5 8 8 9 9 7 11 11 12 11 11 11 12 12 11
-0 2 2 3 2 1 1 -1 2 4 5 6 3 4 0 4 3 3 2 3 4 2 -0 1 3 3 3 7 8 8 8 9 9 9 9 10 11 11 11 11 12 11 11 11
3 1 2 2 1 -0 -1 2 4 5 5 4 3 3 4 5 4 4 3 4 6 3 2 3 5 6 8 8 9 9 8 8 9 9 10 10 10 11 11 11 10 9 10 9
3 3 2 2 4 4 4 5 4 3 2 4 6 5 6 4 4 5 5 6 7 7 6 7 7 8 8 9 9 9 9 9 9 10 10 10 10 10 10 11 11 11 10 10
4 2 3 3 4 5 5 5 7 7 7 5 6 6 6 4 4 5 6 6 6 6 7 7 7 7 7 7 7 9 9 10 10 10 10 9 9 9 9 9 8 10 10 10
4 3 0 2 4 4 6 7 5 7 7 4 6 5 5 3 3 4 4 5 5 6 5 5 6 6 6 6 6 8 9 9 10 10 9 10 10 10 9 9 9 8 8 8
2 5 2 2 3 4 5 4 7 5 7 6 5 6 5 4 2 2 3 3 4 4 3 3 3 2 2 4 5 6 7 7 8 9 9 9 9 9 9 8 9 8 8 8
2 3 2 1 2 2 3 3 4 3 5 6 6 6 5 4 3 3 2 3 2 1 1 -0 -0 -0 -0 -0 0 0 2 3 5 6 7 9 9 9 10 10 9 9 9 10
0 2 3 2 -0 -0 0 2 1 3 3 4 4 6 3 3 3 3 0 -1 -2 -2 -4 -3 -3 -4 -5 -6 -5 -4 -3 -2 -2 -1 2 5 6 7 8 9 9 9 9 9
0 1 1 -3 -4 -2 1 0 0 1 1 3 4 5 -0 1 3 -0 -2 -5 -7 -10 -12 -13 -13 -12 -12 -12 -13 -13 -13 -12 -11 -8 -5 -3 -2 0 2 3 4 4 5 6
0 0 -0 -1 -1 0 1 -0 0 0 0 3 3 3 1 1 0 -1 -4 -7 -7 -7 -10 -13 -14 -13 -12 -14 -16 -18 -17 -16 -17 -15 -14 -15 -14 -11 -8 -5 -3 -2 -1 0
-1 0 -1 -1 0 -0 -1 -1 0 -0 0 0 1 2 1 0 -1 -1 -3 -6 -6 -6 -9 -14 -14 -12 -12 -13 -14 -14 -15 -15 -16 -15 -15 -15 -14 -14 -12 -12 -12 -12 -12 -8
-2 -0 0 1 -1 -2 -1 -2 -1 -0 1 1 1 1 -2 -1 -1 -1 -3 -4 -5 -5 -8 -11 -11 -10 -11 -11 -12 -11 -12 -14 -14 -13 -13 -13 -14 -14 -13 -13 -12 -12 -11 -11
-1 -0 0 1 -2 -3 -3 -2 -2 -1 -0 0 2 -1 -2 -1 -1 -1 -2 -2 -4 -4 -7 -11 -11 -10 -9 -8 -9 -11 -12 -12 -12 -11 -11 -11 -11 -11 -12 -12 -11 -12 -11 -10
-1 -1 -0 0 -5 -9 -9 -4 -4 -2 -2 -1 -0 -1 -2 -1 -1 -1 -1 -1 -3 -5 -9 -10 -9 -8 -8 -9 -11 -12 -13 -14 -13 -12 -12 -12 -11 -10 -9 -9 -9 -8 -8 -8
-2 -2 -1 -3 -3 -7 -7 -3 -2 -1 -4 -2 -0 -1 -1 -1 -2 -3 -4 -4 -5 -6 -10 -9 -8 -9 -11 -13 -14 -15 -16 -15 -14 -15 -14 -13 -13 -12 -11 -11 -10 -9 -8 -6
-2 -3 -2 -2 -3 -8 -13 -5 -4 -7 -6 -6 -1 -1 -1 -2 -2 -7 -6 -5 -6 -9 -10 -10 -11 -12 -15 -17 -18 -18 -19 -19 -18 -17 -14 -13 -14 -13 -11 -10 -11 -10 -8 -7
-1 -1 -0 -1 -1 -4 -7 -4 -5 -11 -16 -4 -1 -1 -1 -3 -5 -7 -6 -7 -11 -13 -15 -15 -14 -16 -20 -21 -21 -21 -20 -21 -18 -17 -16 -15 -13 -11 -10 -9 -10 -8 -6 -5
-3 -2 -1 -1 -1 -4 -4 -4 -5 -10 -4 -3 -2 -2 -2 -3 -5 -6 -7 -12 -16 -17 -19 -21 -20 -17 -16 -17 -19 -21 -20 -17 -15 -15 -14 -13 -13 -11 -10 -9 -9 -9 -6 -6
-2 -4 -4 -3 -3 -7 -4 -5 -5 -5 -4 -4 -3 -2 -3 -4 -4 -5 -8 -16 -20 -19 -18 -17 -18 -17 -16 -16 -16 -15 -13 -8 -6 -6 -7 -7 -7 -7 -8 -7 -7 -7 -6 -5
-5 -5 -3 -4 -6 -5 -6 -5 -5 -5 -5 -6 -5 -4 -3 -5 -5 -6 -8 -17 -19 -18 -17 -16 -15 -13 -12 -11 -11 -9 -9 -7 -6 -6 -7 -7 -7 -7 -8 -8 -7 -7 -7 -7
-5 -4 -3 -3 -5 -5 -5 -6 -7 -5 -4 -4 -5 -4 -4 -5 -5 -5 -10 -17 -16 -16 -15 -14 -13 -12 -11 -11 -12 -9 -9 -6 -6 -7 -7 -7 -7 -7 -8 -9 -8 -7 -7 -6
-3 -3 -2 -3 -5 -6 -8 -8 -7 -6 -5 -4 -4 -5 -4 -4 -4 -5 -13 -16 -16 -15 -15 -13 -11 -10 -10 -11 -11 -10 -9 -8 -6 -7 -7 -7 -7 -7 -7 -7 -8 -7 -7 -6

GFSCGP_850_dewp_120.txt.gz
Dewpoint
-0 -1 -1 -3 -1 -2 -1 -0 1 -1 -3 -1 -1 -1 -2 -3 -3 -2 -2 -2 -2 -3 -5 -5 -6 -9 -14 -13 -6 -4 3 3 2 2 3 4 4 5 7 8 8 9 9 9
-1 -2 -2 -2 -1 -1 0 1 0 -1 -2 -1 -1 -0 -1 -2 -1 -1 -2 -2 -2 -2 -3 -5 -7 -8 -8 -13 -8 -3 3 2 1 -0 1 7 8 9 9 9 9 9 9 9
1 -2 -1 1 1 1 1 1 0 -0 -1 -0 1 1 -2 -2 2 2 2 2 -2 -3 -4 -7 -8 -9 -9 -7 -8 3 2 0 -2 -4 3 9 10 10 10 9 9 9 10 10
0 -1 1 1 2 1 2 -1 0 1 3 4 1 4 1 2 3 1 2 2 3 4 -4 -4 -1 -1 -5 3 4 2 1 0 -3 1 7 9 10 9 8 9 9 10 11 11
-0 1 2 3 2 1 2 -1 1 3 5 5 4 4 2 3 3 4 2 3 5 4 2 -1 2 4 4 5 4 6 8 7 7 10 10 10 9 8 9 9 10 11 11 11
2 2 2 1 1 0 -1 1 3 4 5 4 2 4 3 5 4 4 4 5 6 3 3 3 4 5 5 6 8 8 8 7 7 9 9 9 9 10 9 11 11 11 10 11
1 3 2 2 3 3 4 5 4 2 2 3 5 5 5 4 3 4 6 6 6 6 6 5 6 7 7 7 7 8 8 7 7 8 9 8 10 10 10 11 11 11 11 11
2 1 2 2 3 5 6 5 6 4 6 6 4 5 6 4 3 2 3 5 4 4 5 6 6 5 6 6 6 7 9 9 9 9 9 10 10 10 10 9 10 10 10 9
4 3 -0 3 4 4 5 7 6 6 6 5 4 4 5 4 3 2 2 3 3 3 3 4 4 5 5 5 3 6 8 9 9 9 10 9 9 10 9 9 8 8 9 9
2 5 1 2 3 3 5 4 5 3 7 6 4 5 6 4 3 3 2 2 2 2 2 3 1 2 4 3 3 4 6 7 8 9 9 9 10 10 9 9 9 9 9 8
2 3 2 0 1 2 2 2 3 3 5 6 5 4 5 4 4 4 2 1 -0 -3 -5 -5 -6 -4 -4 -7 -5 -2 -1 2 3 3 5 8 8 9 9 9 9 9 9 9
1 1 3 1 -1 -1 0 1 1 2 2 3 3 6 3 3 3 3 -1 -4 -7 -9 -8 -8 -9 -8 -9 -10 -11 -12 -12 -9 -6 -5 -2 0 2 3 6 7 8 8 8 8
-0 1 0 -3 -5 -3 1 0 0 1 0 2 3 4 0 1 2 -1 -4 -7 -8 -9 -11 -11 -11 -10 -11 -11 -12 -13 -14 -15 -15 -16 -16 -13 -10 -8 -6 -4 -1 1 2 3
-0 0 -0 -0 -1 -0 2 0 -0 0 -0 2 2 2 1 1 0 -2 -5 -7 -6 -7 -10 -12 -13 -12 -12 -11 -11 -12 -13 -13 -13 -15 -16 -17 -18 -17 -16 -15 -15 -14 -13 -12
-1 0 -1 -1 -1 -0 1 -1 -1 -1 -1 0 -1 1 0 0 -0 -1 -3 -6 -5 -5 -7 -13 -13 -12 -13 -13 -13 -13 -14 -14 -13 -13 -15 -16 -16 -16 -17 -17 -17 -16 -15 -14
-2 0 -0 0 -1 -3 -2 -2 -2 -0 1 1 1 1 -2 -1 -1 -1 -2 -4 -4 -4 -5 -11 -13 -12 -14 -14 -15 -15 -15 -16 -16 -18 -18 -18 -18 -19 -20 -20 -19 -19 -19 -17
-1 -0 0 -2 -2 -4 -7 -5 -2 -1 -1 -0 1 -1 -2 -1 -1 -1 -2 -3 -3 -3 -6 -10 -12 -10 -11 -13 -13 -15 -15 -15 -14 -12 -13 -15 -17 -17 -17 -17 -18 -17 -18 -18
-1 -2 -1 0 -5 -13 -13 -4 -4 -2 -2 -1 -1 -2 -2 -2 -1 -1 -1 -1 -1 -3 -6 -11 -11 -11 -12 -13 -14 -14 -15 -14 -15 -16 -17 -17 -18 -17 -17 -18 -18 -17 -17 -16
-2 -2 -1 -1 -2 -8 -12 -5 -2 -3 -5 -4 -1 -1 -2 -1 -2 -2 -2 -3 -4 -5 -7 -12 -10 -10 -12 -14 -14 -16 -17 -19 -19 -21 -20 -18 -17 -18 -19 -21 -20 -18 -15 -15
-3 -3 -2 -2 -3 -10 -18 -7 -4 -7 -9 -11 -2 -2 -1 -2 -1 -3 -5 -4 -5 -6 -12 -10 -9 -11 -13 -15 -16 -18 -20 -21 -23 -21 -19 -17 -17 -19 -19 -17 -16 -14 -12 -12
-0 -1 -0 -1 -1 -4 -9 -5 -6 -11 -17 -7 -3 -2 -1 -2 -3 -8 -7 -6 -8 -13 -11 -11 -11 -13 -15 -15 -17 -18 -20 -22 -21 -21 -20 -19 -19 -16 -14 -12 -11 -10 -10 -10
-3 -1 -1 -2 -1 -3 -5 -4 -6 -10 -8 -4 -3 -2 -2 -2 -4 -6 -7 -9 -14 -14 -13 -14 -15 -16 -16 -16 -18 -22 -23 -22 -22 -22 -21 -20 -17 -15 -13 -11 -11 -10 -9 -7
-3 -5 -5 -3 -4 -9 -5 -6 -7 -7 -6 -6 -5 -4 -2 -2 -3 -5 -6 -9 -14 -16 -15 -16 -17 -16 -16 -18 -20 -21 -20 -21 -22 -21 -20 -15 -12 -11 -9 -7 -7 -7 -7 -7
-5 -5 -3 -4 -6 -6 -6 -6 -6 -6 -6 -6 -6 -5 -3 -3 -4 -5 -6 -9 -14 -16 -16 -16 -16 -19 -19 -19 -19 -18 -18 -18 -16 -15 -10 -8 -8 -7 -7 -7 -7 -7 -7 -7
-5 -5 -4 -3 -5 -6 -7 -7 -7 -7 -7 -5 -5 -5 -5 -3 -3 -5 -6 -9 -14 -17 -17 -18 -19 -20 -19 -18 -17 -16 -15 -14 -12 -10 -8 -8 -6 -7 -7 -7 -7 -7 -7 -7
-4 -4 -3 -4 -6 -7 -7 -7 -7 -6 -6 -6 -5 -4 -5 -4 -4 -5 -5 -8 -13 -18 -19 -19 -21 -20 -17 -16 -16 -16 -16 -12 -9 -8 -7 -7 -7 -7 -7 -7 -8 -8 -8 -8

GFSCGP_850_dewp_123.txt.gz
Dewpoint
-1 -2 -1 -2 -2 -3 -1 -0 0 -1 -2 -2 -1 -1 -2 -3 -2 -2 -2 -1 -1 -2 -3 -2 -5 -6 -6 -8 -11 -12 -7 -4 2 4 3 2 1 -0 0 1 3 6 7 8
-2 -1 -2 -2 -2 -1 -0 1 -0 -1 -2 -1 -1 0 -1 -1 -1 -1 0 1 2 1 -3 -3 -3 -5 -6 -8 -10 -14 -10 -5 1 2 1 -0 -1 -2 1 4 5 7 8 9
-1 -2 -1 -0 1 1 0 1 0 0 -1 -0 1 2 -1 -3 1 2 1 3 3 3 2 -3 -5 -5 -7 -7 -9 -14 -13 -7 -0 2 1 -1 -2 2 7 7 5 5 7 7
1 -1 0 1 2 1 2 -1 0 1 3 4 1 4 1 3 2 2 3 3 4 4 2 2 -3 -4 -4 -7 -9 -9 -8 2 2 1 0 -2 -0 9 10 10 8 7 7 8
-1 1 2 3 2 0 1 -1 0 1 5 5 4 5 1 3 3 3 2 4 6 5 3 2 1 2 6 3 3 5 6 4 2 -0 -1 4 10 10 10 9 8 7 8 10
2 1 2 1 1 1 0 2 3 4 5 5 2 4 3 5 4 3 3 5 5 5 5 5 5 5 6 7 7 7 6 5 4 6 8 10 10 10 9 7 8 9 11 11
1 2 1 2 3 3 3 5 4 3 4 4 2 4 3 4 3 2 3 4 3 3 4 5 5 5 5 5 6 6 5 4 5 7 7 8 9 9 9 10 11 11 10 11
4 3 2 2 3 4 6 5 6 6 6 5 4 6 6 4 2 1 2 3 2 2 2 3 4 3 3 4 4 6 8 8 8 8 8 9 9 10 10 10 9 9 10 10
5 3 -0 2 2 4 4 6 5 7 5 6 4 5 5 4 3 2 1 2 2 1 2 3 3 2 4 3 2 3 6 8 8 8 9 9 10 10 9 9 9 9 9 9
2 6 1 1 3 3 4 3 4 4 5 6 3 4 7 4 4 3 2 1 0 1 1 2 1 -3 -3 -2 -0 3 3 6 7 7 9 9 10 9 9 9 9 9 9 9
2 3 2 -0 1 3 2 1 2 3 4 5 5 5 5 5 4 3 1 -1 -5 -6 -6 -6 -6 -6 -7 -6 -8 -2 -6 -1 2 4 6 8 8 8 8 9 8 9 9 9
1 1 3 1 -1 -2 0 0 1 3 2 3 3 5 3 3 2 2 -2 -7 -8 -8 -7 -7 -8 -10 -10 -10 -10 -10 -12 -13 -12 -11 -9 -7 -3 -3 0 2 4 4 4 4
-0 1 1 -3 -5 -3 0 -0 -0 1 0 2 3 3 1 0 1 -1 -3 -7 -7 -8 -9 -8 -8 -9 -10 -11 -14 -14 -13 -13 -15 -15 -16 -17 -17 -18 -17 -17 -16 -16 -15 -13
-0 0 -0 -1 -3 -2 1 0 -0 0 2 2 2 0 1 1 1 -1 -3 -6 -6 -6 -8 -9 -9 -9 -9 -11 -12 -14 -15 -16 -17 -19 -20 -21 -21 -21 -21 -22 -22 -22 -22 -22
-1 1 -1 -1 -1 -1 0 0 -1 -1 -0 1 -2 1 -1 -0 0 -0 -1 -4 -5 -4 -5 -10 -11 -11 -13 -14 -15 -15 -16 -17 -18 -20 -21 -22 -22 -22 -23 -23 -24 -24 -24 -24
-2 1 -0 -0 -1 -1 -1 -2 -2 -2 0 0 0 1 -2 -2 -1 -1 -1 -2 -4 -4 -4 -8 -12 -13 -14 -16 -17 -17 -19 -19 -19 -19 -19 -18 -20 -21 -23 -24 -25 -25 -26 -27
-1 -1 -0 0 -3 -4 -6 -6 -3 -3 -1 -1 1 -1 -2 -1 -1 -1 -1 -1 -3 -3 -3 -6 -14 -14 -15 -17 -18 -18 -19 -19 -19 -19 -20 -20 -20 -21 -20 -20 -19 -20 -19 -18
-1 -2 -1 0 -5 -13 -14 -4 -5 -2 -2 -2 -1 -2 -2 -2 -2 -1 -1 -1 -2 -2 -3 -6 -12 -13 -15 -17 -17 -18 -18 -18 -18 -19 -19 -19 -19 -20 -19 -19 -19 -18 -18 -17
-2 -2 -0 -1 -2 -8 -12 -8 -3 -4 -7 -5 -2 -2 -2 -2 -2 -2 -2 -2 -1 -2 -4 -7 -14 -14 -15 -15 -16 -16 -18 -18 -18 -19 -20 -20 -21 -21 -21 -22 -21 -19 -20 -19
-3 -3 -2 -2 -3 -10 -21 -8 -4 -7 -12 -10 -5 -3 -2 -2 -0 -2 -5 -2 -3 -5 -5 -13 -14 -14 -13 -13 -14 -16 -18 -19 -20 -21 -21 -19 -19 -20 -19 -17 -16 -15 -14 -14
-0 -1 0 -0 -1 -4 -10 -5 -5 -13 -17 -12 -4 -4 -2 -2 -2 -8 -11 -5 -5 -6 -13 -14 -13 -13 -12 -13 -13 -16 -19 -21 -21 -20 -20 -19 -17 -17 -18 -17 -15 -14 -13 -12
-1 -1 -0 -1 -1 -3 -6 -4 -7 -13 -11 -6 -6 -5 -3 -2 -3 -4 -7 -8 -8 -12 -15 -14 -13 -13 -13 -14 -16 -17 -19 -20 -20 -20 -19 -20 -19 -18 -18 -16 -16 -14 -11 -10
-3 -5 -5 -3 -4 -8 -6 -6 -7 -8 -7 -6 -6 -7 -5 -2 -2 -3 -6 -7 -9 -14 -14 -14 -14 -14 -15 -15 -16 -16 -19 -20 -20 -21 -21 -21 -20 -19 -18 -16 -15 -12 -9 -7
-5 -6 -4 -4 -6 -6 -7 -7 -7 -7 -7 -7 -6 -6 -5 -5 -4 -3 -3 -6 -8 -12 -15 -15 -14 -15 -14 -15 -16 -18 -20 -20 -21 -20 -21 -21 -22 -19 -15 -11 -8 -7 -7 -8
-5 -5 -4 -4 -5 -6 -8 -8 -7 -7 -7 -7 -6 -6 -5 -5 -5 -4 -4 -5 -7 -11 -15 -15 -15 -15 -16 -17 -18 -20 -22 -22 -21 -20 -21 -21 -17 -11 -7 -7 -8 -8 -7 -8
-4 -4 -4 -5 -7 -7 -8 -7 -6 -6 -6 -7 -6 -5 -6 -5 -4 -4 -4 -5 -6 -9 -14 -16 -16 -15 -16 -16 -18 -19 -20 -19 -18 -19 -20 -18 -12 -8 -7 -8 -10 -8 -8 -8